Wetterdaten: Dienstag, 07.02.2017
Datum Zeit Temp. A. Feuchte A. Luftdruck Regen Wind Richtung Richtung Sonnenschein ET UV Solar Taupunkt Windchill Windben Empfang
07.02.2017 00:00 1,3 C 98 % 1018,2 hPa 0,0 l/m 6,6 km/h (2 Bft) W-SW 258 0 min 0,000 mm 0,0 UV-I 0 W/m 1,0 C 1,1 C 9,7 km/h (2 Bft) 97,56 %
07.02.2017 00:02 1,3 C 98 % 1018,2 hPa 0,0 l/m 7,0 km/h (2 Bft) S-SW 205 0 min 0,000 mm 0,0 UV-I 0 W/m 1,0 C 0,7 C 9,7 km/h (2 Bft) 9,09 %
07.02.2017 00:04 1,3 C 98 % 1018,2 hPa 0,0 l/m 6,2 km/h (2 Bft) S-SW 198 0 min 0,000 mm 0,0 UV-I 0 W/m 1,0 C 1,3 C 9,7 km/h (2 Bft) 9,09 %
07.02.2017 00:06 1,3 C 98 % 1018,2 hPa 0,0 l/m 7,1 km/h (2 Bft) S-SW 208 0 min 0,000 mm 0,0 UV-I 0 W/m 1,0 C 0,6 C 11,3 km/h (2 Bft) 93,55 %
07.02.2017 00:08 1,3 C 98 % 1018,2 hPa 0,0 l/m 7,2 km/h (2 Bft) SW 215 0 min 0,000 mm 0,0 UV-I 0 W/m 1,0 C 0,5 C 9,7 km/h (2 Bft) 97,87 %
07.02.2017 00:10 1,3 C 98 % 1018,2 hPa 0,0 l/m 5,1 km/h (1 Bft) SW 227 0 min 0,000 mm 0,0 UV-I 0 W/m 1,0 C 1,3 C 8,0 km/h (2 Bft) 97,14 %
07.02.2017 00:12 1,3 C 98 % 1018,2 hPa 0,0 l/m 5,0 km/h (1 Bft) SW 227 0 min 0,000 mm 0,0 UV-I 0 W/m 1,0 C 1,3 C 8,0 km/h (2 Bft) 96,23 %
07.02.2017 00:14 1,3 C 98 % 1018,2 hPa 0,0 l/m 5,6 km/h (1 Bft) W-SW 244 0 min 0,000 mm 0,0 UV-I 0 W/m 1,0 C 1,3 C 8,0 km/h (2 Bft) 98,11 %
07.02.2017 00:16 1,3 C 98 % 1018,3 hPa 0,0 l/m 5,5 km/h (1 Bft) SW 219 0 min 0,000 mm 0,0 UV-I 0 W/m 1,0 C 1,3 C 8,0 km/h (2 Bft) 97,73 %
07.02.2017 00:18 1,3 C 98 % 1018,3 hPa 0,0 l/m 6,2 km/h (2 Bft) S-SW 212 0 min 0,000 mm 0,0 UV-I 0 W/m 1,0 C 1,3 C 11,3 km/h (2 Bft) 95,12 %
07.02.2017 00:20 1,3 C 98 % 1018,2 hPa 0,0 l/m 5,8 km/h (2 Bft) SW 233 0 min 0,000 mm 0,0 UV-I 0 W/m 1,0 C 1,3 C 8,0 km/h (2 Bft) 98,00 %
07.02.2017 00:22 1,3 C 98 % 1018,3 hPa 0,0 l/m 6,5 km/h (2 Bft) SW 234 0 min 0,000 mm 0,0 UV-I 0 W/m 1,0 C 1,2 C 11,3 km/h (2 Bft) 97,87 %
07.02.2017 00:24 1,3 C 98 % 1018,2 hPa 0,0 l/m 6,6 km/h (2 Bft) SW 233 0 min 0,000 mm 0,0 UV-I 0 W/m 1,0 C 1,1 C 9,7 km/h (2 Bft) 97,56 %
07.02.2017 00:26 1,3 C 98 % 1018,2 hPa 0,0 l/m 5,9 km/h (2 Bft) SW 225 0 min 0,000 mm 0,0 UV-I 0 W/m 1,0 C 1,3 C 8,0 km/h (2 Bft) 98,11 %
07.02.2017 00:28 1,3 C 98 % 1018,2 hPa 0,0 l/m 6,5 km/h (2 Bft) SW 225 0 min 0,000 mm 0,0 UV-I 0 W/m 1,0 C 1,2 C 8,0 km/h (2 Bft) 94,87 %
07.02.2017 00:30 1,3 C 98 % 1018,2 hPa 0,0 l/m 6,5 km/h (2 Bft) W-SW 241 0 min 0,000 mm 0,0 UV-I 0 W/m 1,0 C 1,2 C 9,7 km/h (2 Bft) 98,08 %
07.02.2017 00:32 1,3 C 98 % 1018,2 hPa 0,0 l/m 5,1 km/h (1 Bft) SW 229 0 min 0,000 mm 0,0 UV-I 0 W/m 1,0 C 1,3 C 6,4 km/h (2 Bft) 97,62 %
07.02.2017 00:34 1,3 C 98 % 1018,2 hPa 0,0 l/m 5,2 km/h (1 Bft) S-SW 210 0 min 0,000 mm 0,0 UV-I 0 W/m 1,0 C 1,3 C 8,0 km/h (2 Bft) 100,00 %
07.02.2017 00:36 1,3 C 98 % 1018,3 hPa 0,0 l/m 4,2 km/h (1 Bft) SW 215 0 min 0,000 mm 0,0 UV-I 0 W/m 1,0 C 1,3 C 6,4 km/h (2 Bft) 98,44 %
07.02.2017 00:38 1,3 C 98 % 1018,3 hPa 0,0 l/m 4,2 km/h (1 Bft) W-SW 237 0 min 0,000 mm 0,0 UV-I 0 W/m 1,0 C 1,3 C 6,4 km/h (2 Bft) 92,31 %
07.02.2017 00:40 1,4 C 98 % 1018,3 hPa 0,0 l/m 5,5 km/h (1 Bft) SW 221 0 min 0,000 mm 0,0 UV-I 0 W/m 1,1 C 1,4 C 8,0 km/h (2 Bft) 100,00 %
07.02.2017 00:42 1,4 C 98 % 1018,3 hPa 0,0 l/m 4,5 km/h (1 Bft) W-SW 240 0 min 0,000 mm 0,0 UV-I 0 W/m 1,1 C 1,4 C 6,4 km/h (2 Bft) 98,15 %
07.02.2017 00:44 1,4 C 98 % 1018,2 hPa 0,0 l/m 4,5 km/h (1 Bft) SW 231 0 min 0,000 mm 0,0 UV-I 0 W/m 1,1 C 1,4 C 8,0 km/h (2 Bft) 100,00 %
07.02.2017 00:46 1,4 C 98 % 1018,2 hPa 0,0 l/m 4,3 km/h (1 Bft) W-SW 240 0 min 0,000 mm 0,0 UV-I 0 W/m 1,1 C 1,4 C 8,0 km/h (2 Bft) 96,43 %
07.02.2017 00:48 1,4 C 98 % 1018,2 hPa 0,0 l/m 4,7 km/h (1 Bft) SW 227 0 min 0,000 mm 0,0 UV-I 0 W/m 1,1 C 1,4 C 8,0 km/h (2 Bft) 100,00 %
07.02.2017 00:50 1,4 C 98 % 1018,2 hPa 0,0 l/m 4,6 km/h (1 Bft) SW 236 0 min 0,000 mm 0,0 UV-I 0 W/m 1,1 C 1,4 C 6,4 km/h (2 Bft) 98,00 %
07.02.2017 00:52 1,4 C 98 % 1018,2 hPa 0,0 l/m 3,7 km/h (1 Bft) W-SW 238 0 min 0,000 mm 0,0 UV-I 0 W/m 1,1 C 1,4 C 4,8 km/h (1 Bft) 95,12 %
07.02.2017 00:54 1,4 C 98 % 1018,2 hPa 0,0 l/m 5,1 km/h (1 Bft) SW 229 0 min 0,000 mm 0,0 UV-I 0 W/m 1,1 C 1,4 C 6,4 km/h (2 Bft) 94,34 %
07.02.2017 00:56 1,4 C 98 % 1018,2 hPa 0,0 l/m 4,2 km/h (1 Bft) S-SW 207 0 min 0,000 mm 0,0 UV-I 0 W/m 1,1 C 1,4 C 6,4 km/h (2 Bft) 97,56 %
07.02.2017 00:58 1,4 C 98 % 1018,2 hPa 0,0 l/m 3,9 km/h (1 Bft) SW 216 0 min 0,000 mm 0,0 UV-I 0 W/m 1,1 C 1,4 C 6,4 km/h (2 Bft) 100,00 %
07.02.2017 01:00 1,4 C 98 % 1018,2 hPa 0,0 l/m 4,3 km/h (1 Bft) SW 232 0 min 0,000 mm 0,0 UV-I 0 W/m 1,1 C 1,4 C 8,0 km/h (2 Bft) 97,56 %
07.02.2017 01:02 1,4 C 98 % 1018,3 hPa 0,0 l/m 4,2 km/h (1 Bft) SW 235 0 min 0,000 mm 0,0 UV-I 0 W/m 1,1 C 1,4 C 6,4 km/h (2 Bft) 100,00 %
07.02.2017 01:04 1,4 C 98 % 1018,3 hPa 0,0 l/m 3,9 km/h (1 Bft) W 259 0 min 0,000 mm 0,0 UV-I 0 W/m 1,1 C 1,4 C 6,4 km/h (2 Bft) 95,74 %
07.02.2017 01:06 1,4 C 98 % 1018,3 hPa 0,0 l/m 4,1 km/h (1 Bft) SW 236 0 min 0,000 mm 0,0 UV-I 0 W/m 1,1 C 1,4 C 6,4 km/h (2 Bft) 100,00 %
07.02.2017 01:08 1,4 C 98 % 1018,3 hPa 0,0 l/m 4,5 km/h (1 Bft) W-SW 257 0 min 0,000 mm 0,0 UV-I 0 W/m 1,1 C 1,4 C 6,4 km/h (2 Bft) 97,87 %
07.02.2017 01:10 1,4 C 98 % 1018,3 hPa 0,0 l/m 4,0 km/h (1 Bft) W-SW 252 0 min 0,000 mm 0,0 UV-I 0 W/m 1,1 C 1,4 C 6,4 km/h (2 Bft) 97,87 %
07.02.2017 01:12 1,4 C 98 % 1018,3 hPa 0,0 l/m 4,0 km/h (1 Bft) W 275 0 min 0,000 mm 0,0 UV-I 0 W/m 1,1 C 1,4 C 6,4 km/h (2 Bft) 100,00 %
07.02.2017 01:14 1,4 C 98 % 1018,3 hPa 0,0 l/m 5,4 km/h (1 Bft) W-SW 248 0 min 0,000 mm 0,0 UV-I 0 W/m 1,1 C 1,4 C 9,7 km/h (2 Bft) 97,62 %
07.02.2017 01:16 1,4 C 98 % 1018,3 hPa 0,0 l/m 4,4 km/h (1 Bft) W-SW 247 0 min 0,000 mm 0,0 UV-I 0 W/m 1,1 C 1,4 C 6,4 km/h (2 Bft) 97,87 %
07.02.2017 01:18 1,4 C 98 % 1018,3 hPa 0,0 l/m 5,7 km/h (1 Bft) SW 232 0 min 0,000 mm 0,0 UV-I 0 W/m 1,1 C 1,4 C 9,7 km/h (2 Bft) 100,00 %
07.02.2017 01:20 1,5 C 98 % 1018,3 hPa 0,0 l/m 5,3 km/h (1 Bft) W-SW 247 0 min 0,000 mm 0,0 UV-I 0 W/m 1,2 C 1,5 C 8,0 km/h (2 Bft) 98,00 %
07.02.2017 01:22 1,5 C 98 % 1018,3 hPa 0,0 l/m 7,2 km/h (2 Bft) W 261 0 min 0,000 mm 0,0 UV-I 0 W/m 1,2 C 0,7 C 12,9 km/h (3 Bft) 97,37 %
07.02.2017 01:24 1,5 C 98 % 1018,3 hPa 0,0 l/m 5,9 km/h (2 Bft) W-SW 238 0 min 0,000 mm 0,0 UV-I 0 W/m 1,2 C 1,5 C 8,0 km/h (2 Bft) 96,00 %
07.02.2017 01:26 1,5 C 98 % 1018,3 hPa 0,0 l/m 5,7 km/h (1 Bft) W-SW 258 0 min 0,000 mm 0,0 UV-I 0 W/m 1,2 C 1,5 C 11,3 km/h (2 Bft) 96,00 %
07.02.2017 01:28 1,6 C 98 % 1018,3 hPa 0,0 l/m 4,2 km/h (1 Bft) SW 228 0 min 0,000 mm 0,0 UV-I 0 W/m 1,3 C 1,6 C 6,4 km/h (2 Bft) 100,00 %
07.02.2017 01:30 1,6 C 98 % 1018,3 hPa 0,0 l/m 5,0 km/h (1 Bft) SW 217 0 min 0,000 mm 0,0 UV-I 0 W/m 1,3 C 1,6 C 8,0 km/h (2 Bft) 97,87 %
07.02.2017 01:32 1,5 C 98 % 1018,2 hPa 0,0 l/m 4,0 km/h (1 Bft) SW 236 0 min 0,000 mm 0,0 UV-I 0 W/m 1,2 C 1,5 C 6,4 km/h (2 Bft) 95,12 %
07.02.2017 01:34 1,5 C 98 % 1018,3 hPa 0,0 l/m 4,0 km/h (1 Bft) SW 234 0 min 0,000 mm 0,0 UV-I 0 W/m 1,2 C 1,5 C 6,4 km/h (2 Bft) 100,00 %
07.02.2017 01:36 1,5 C 98 % 1018,3 hPa 0,0 l/m 4,8 km/h (1 Bft) SW 224 0 min 0,000 mm 0,0 UV-I 0 W/m 1,2 C 1,5 C 8,0 km/h (2 Bft) 96,00 %
07.02.2017 01:38 1,4 C 98 % 1018,3 hPa 0,0 l/m 4,5 km/h (1 Bft) SW 219 0 min 0,000 mm 0,0 UV-I 0 W/m 1,1 C 1,4 C 6,4 km/h (2 Bft) 97,87 %
07.02.2017 01:40 1,4 C 98 % 1018,3 hPa 0,0 l/m 2,9 km/h (1 Bft) W-SW 242 0 min 0,000 mm 0,0 UV-I 0 W/m 1,1 C 1,4 C 4,8 km/h (1 Bft) 97,73 %
07.02.2017 01:42 1,4 C 98 % 1018,2 hPa 0,0 l/m 3,2 km/h (1 Bft) W-SW 252 0 min 0,000 mm 0,0 UV-I 0 W/m 1,1 C 1,4 C 6,4 km/h (2 Bft) 100,00 %
07.02.2017 01:44 1,4 C 98 % 1018,3 hPa 0,0 l/m 3,1 km/h (1 Bft) W-SW 253 0 min 0,000 mm 0,0 UV-I 0 W/m 1,1 C 1,4 C 6,4 km/h (2 Bft) 100,00 %
07.02.2017 01:46 1,4 C 98 % 1018,3 hPa 0,0 l/m 3,1 km/h (1 Bft) W-SW 253 0 min 0,000 mm 0,0 UV-I 0 W/m 1,1 C 1,4 C 3,2 km/h (1 Bft) 97,56 %
07.02.2017 01:48 1,4 C 98 % 1018,3 hPa 0,0 l/m 3,5 km/h (1 Bft) W-SW 242 0 min 0,000 mm 0,0 UV-I 0 W/m 1,1 C 1,4 C 4,8 km/h (1 Bft) 98,00 %
07.02.2017 01:50 1,4 C 98 % 1018,3 hPa 0,0 l/m 2,3 km/h (1 Bft) W-SW 257 0 min 0,000 mm 0,0 UV-I 0 W/m 1,1 C 1,4 C 3,2 km/h (1 Bft) 95,74 %
07.02.2017 01:52 1,4 C 98 % 1018,3 hPa 0,0 l/m 2,7 km/h (1 Bft) W-SW 257 0 min 0,000 mm 0,0 UV-I 0 W/m 1,1 C 1,4 C 4,8 km/h (1 Bft) 98,00 %
07.02.2017 01:54 1,4 C 98 % 1018,3 hPa 0,0 l/m 1,2 km/h (1 Bft) W-SW 257 0 min 0,000 mm 0,0 UV-I 0 W/m 1,1 C 1,4 C 3,2 km/h (1 Bft) 97,87 %
07.02.2017 01:56 1,4 C 98 % 1018,3 hPa 0,0 l/m 0,2 km/h (0 Bft) W-SW 257 0 min 0,000 mm 0,0 UV-I 0 W/m 1,1 C 1,4 C 1,6 km/h (1 Bft) 94,87 %
07.02.2017 01:58 1,4 C 98 % 1018,3 hPa 0,0 l/m 0,0 km/h (0 Bft) W-SW 257 0 min 0,000 mm 0,0 UV-I 0 W/m 1,1 C 1,4 C 1,6 km/h (1 Bft) 97,87 %
07.02.2017 02:00 1,4 C 98 % 1018,3 hPa 0,0 l/m 0,0 km/h (0 Bft) W-SW 257 0 min 0,000 mm 0,0 UV-I 0 W/m 1,1 C 1,4 C 0,0 km/h (0 Bft) 93,62 %
07.02.2017 02:02 1,4 C 98 % 1018,2 hPa 0,0 l/m 0,0 km/h (0 Bft) W-SW 257 0 min 0,000 mm 0,0 UV-I 0 W/m 1,1 C 1,4 C 0,0 km/h (0 Bft) 94,34 %
07.02.2017 02:04 1,4 C 98 % 1018,3 hPa 0,0 l/m 0,0 km/h (0 Bft) W-SW 257 0 min 0,000 mm 0,0 UV-I 0 W/m 1,1 C 1,4 C 0,0 km/h (0 Bft) 97,37 %
07.02.2017 02:06 1,4 C 98 % 1018,3 hPa 0,0 l/m 0,0 km/h (0 Bft) W-SW 257 0 min 0,000 mm 0,0 UV-I 0 W/m 1,1 C 1,4 C 0,0 km/h (0 Bft) 95,74 %
07.02.2017 02:08 1,4 C 98 % 1018,3 hPa 0,0 l/m 0,0 km/h (0 Bft) W-SW 257 0 min 0,000 mm 0,0 UV-I 0 W/m 1,1 C 1,4 C 0,0 km/h (0 Bft) 98,11 %
07.02.2017 02:10 1,4 C 98 % 1018,3 hPa 0,0 l/m 0,0 km/h (0 Bft) W-SW 257 0 min 0,000 mm 0,0 UV-I 0 W/m 1,1 C 1,4 C 0,0 km/h (0 Bft) 98,00 %
07.02.2017 02:12 1,4 C 98 % 1018,2 hPa 0,0 l/m 0,0 km/h (0 Bft) W-SW 257 0 min 0,000 mm 0,0 UV-I 0 W/m 1,1 C 1,4 C 0,0 km/h (0 Bft) 97,87 %
07.02.2017 02:14 1,3 C 98 % 1018,2 hPa 0,0 l/m 0,0 km/h (0 Bft) W-SW 257 0 min 0,000 mm 0,0 UV-I 0 W/m 1,0 C 1,3 C 0,0 km/h (0 Bft) 95,45 %
07.02.2017 02:16 1,3 C 98 % 1018,2 hPa 0,0 l/m 0,0 km/h (0 Bft) W-SW 257 0 min 0,000 mm 0,0 UV-I 0 W/m 1,0 C 1,3 C 0,0 km/h (0 Bft) 96,00 %
07.02.2017 02:18 1,3 C 98 % 1018,2 hPa 0,0 l/m 0,0 km/h (0 Bft) W-SW 257 0 min 0,000 mm 0,0 UV-I 0 W/m 1,0 C 1,3 C 0,0 km/h (0 Bft) 95,74 %
07.02.2017 02:20 1,3 C 98 % 1018,2 hPa 0,0 l/m 0,0 km/h (0 Bft) W-SW 257 0 min 0,000 mm 0,0 UV-I 0 W/m 1,0 C 1,3 C 0,0 km/h (0 Bft) 97,37 %
07.02.2017 02:22 1,3 C 98 % 1018,2 hPa 0,0 l/m 0,0 km/h (0 Bft) W-SW 257 0 min 0,000 mm 0,0 UV-I 0 W/m 1,0 C 1,3 C 0,0 km/h (0 Bft) 95,74 %
07.02.2017 02:24 1,4 C 98 % 1018,2 hPa 0,0 l/m 0,0 km/h (0 Bft) W-SW 257 0 min 0,000 mm 0,0 UV-I 0 W/m 1,1 C 1,4 C 0,0 km/h (0 Bft) 97,87 %
07.02.2017 02:26 1,3 C 98 % 1018,2 hPa 0,0 l/m 0,0 km/h (0 Bft) W-SW 257 0 min 0,000 mm 0,0 UV-I 0 W/m 1,0 C 1,3 C 0,0 km/h (0 Bft) 95,74 %
07.02.2017 02:28 1,3 C 98 % 1018,2 hPa 0,0 l/m 0,0 km/h (0 Bft) W-SW 257 0 min 0,000 mm 0,0 UV-I 0 W/m 1,0 C 1,3 C 0,0 km/h (0 Bft) 100,00 %
07.02.2017 02:30 1,3 C 98 % 1018,2 hPa 0,0 l/m 0,0 km/h (0 Bft) W-SW 257 0 min 0,000 mm 0,0 UV-I 0 W/m 1,0 C 1,3 C 0,0 km/h (0 Bft) 100,00 %
07.02.2017 02:32 1,3 C 98 % 1018,2 hPa 0,0 l/m 0,0 km/h (0 Bft) W-SW 257 0 min 0,000 mm 0,0 UV-I 0 W/m 1,0 C 1,3 C 0,0 km/h (0 Bft) 98,08 %
07.02.2017 02:34 1,3 C 98 % 1018,2 hPa 0,0 l/m 0,0 km/h (0 Bft) W-SW 257 0 min 0,000 mm 0,0 UV-I 0 W/m 1,0 C 1,3 C 0,0 km/h (0 Bft) 97,87 %
07.02.2017 02:36 1,3 C 98 % 1018,1 hPa 0,0 l/m 0,0 km/h (0 Bft) W-SW 257 0 min 0,000 mm 0,0 UV-I 0 W/m 1,0 C 1,3 C 0,0 km/h (0 Bft) 97,92 %
07.02.2017 02:38 1,3 C 98 % 1018,2 hPa 0,0 l/m 0,0 km/h (0 Bft) W-SW 257 0 min 0,000 mm 0,0 UV-I 0 W/m 1,0 C 1,3 C 0,0 km/h (0 Bft) 100,00 %
07.02.2017 02:40 1,3 C 98 % 1018,1 hPa 0,0 l/m 0,0 km/h (0 Bft) W-SW 257 0 min 0,000 mm 0,0 UV-I 0 W/m 1,0 C 1,3 C 0,0 km/h (0 Bft) 98,00 %
07.02.2017 02:42 1,3 C 98 % 1018,0 hPa 0,0 l/m 0,0 km/h (0 Bft) W-SW 257 0 min 0,000 mm 0,0 UV-I 0 W/m 1,0 C 1,3 C 0,0 km/h (0 Bft) 97,87 %
07.02.2017 02:44 1,3 C 98 % 1018,1 hPa 0,0 l/m 0,0 km/h (0 Bft) W-SW 257 0 min 0,000 mm 0,0 UV-I 0 W/m 1,0 C 1,3 C 0,0 km/h (0 Bft) 100,00 %
07.02.2017 02:46 1,3 C 98 % 1018,1 hPa 0,0 l/m 0,0 km/h (0 Bft) W-SW 257 0 min 0,000 mm 0,0 UV-I 0 W/m 1,0 C 1,3 C 0,0 km/h (0 Bft) 98,00 %
07.02.2017 02:48 1,3 C 98 % 1018,1 hPa 0,0 l/m 0,0 km/h (0 Bft) W-SW 257 0 min 0,000 mm 0,0 UV-I 0 W/m 1,0 C 1,3 C 0,0 km/h (0 Bft) 97,87 %
07.02.2017 02:50 1,3 C 98 % 1018,1 hPa 0,0 l/m 0,0 km/h (0 Bft) W-SW 257 0 min 0,000 mm 0,0 UV-I 0 W/m 1,0 C 1,3 C 0,0 km/h (0 Bft) 97,87 %
07.02.2017 02:52 1,3 C 98 % 1018,0 hPa 0,0 l/m 0,0 km/h (0 Bft) W-SW 257 0 min 0,000 mm 0,0 UV-I 0 W/m 1,0 C 1,3 C 0,0 km/h (0 Bft) 98,00 %
07.02.2017 02:54 1,3 C 98 % 1018,0 hPa 0,0 l/m 0,0 km/h (0 Bft) W-SW 257 0 min 0,000 mm 0,0 UV-I 0 W/m 1,0 C 1,3 C 0,0 km/h (0 Bft) 100,00 %
07.02.2017 02:56 1,3 C 98 % 1018,0 hPa 0,0 l/m 0,0 km/h (0 Bft) W-SW 257 0 min 0,000 mm 0,0 UV-I 0 W/m 1,0 C 1,3 C 0,0 km/h (0 Bft) 98,00 %
07.02.2017 02:58 1,2 C 98 % 1018,0 hPa 0,0 l/m 0,0 km/h (0 Bft) W-SW 257 0 min 0,000 mm 0,0 UV-I 0 W/m 0,9 C 1,2 C 0,0 km/h (0 Bft) 97,56 %
07.02.2017 03:00 1,2 C 98 % 1018,0 hPa 0,0 l/m 0,0 km/h (0 Bft) W-SW 257 0 min 0,000 mm 0,0 UV-I 0 W/m 0,9 C 1,2 C 0,0 km/h (0 Bft) 100,00 %
07.02.2017 03:02 1,2 C 98 % 1018,0 hPa 0,0 l/m 0,0 km/h (0 Bft) W-SW 257 0 min 0,000 mm 0,0 UV-I 0 W/m 0,9 C 1,2 C 0,0 km/h (0 Bft) 95,74 %
07.02.2017 03:04 1,2 C 98 % 1018,0 hPa 0,0 l/m 0,0 km/h (0 Bft) W-SW 257 0 min 0,000 mm 0,0 UV-I 0 W/m 0,9 C 1,2 C 0,0 km/h (0 Bft) 98,00 %
07.02.2017 03:06 1,2 C 98 % 1018,0 hPa 0,0 l/m 0,0 km/h (0 Bft) W-SW 257 0 min 0,000 mm 0,0 UV-I 0 W/m 0,9 C 1,2 C 0,0 km/h (0 Bft) 96,00 %
07.02.2017 03:08 1,2 C 98 % 1018,0 hPa 0,0 l/m 0,0 km/h (0 Bft) W-SW 257 0 min 0,000 mm 0,0 UV-I 0 W/m 0,9 C 1,2 C 0,0 km/h (0 Bft) 97,87 %
07.02.2017 03:10 1,2 C 98 % 1018,0 hPa 0,0 l/m 0,0 km/h (0 Bft) W-SW 257 0 min 0,000 mm 0,0 UV-I 0 W/m 0,9 C 1,2 C 0,0 km/h (0 Bft) 97,87 %
07.02.2017 03:12 1,2 C 98 % 1018,0 hPa 0,0 l/m 0,0 km/h (0 Bft) W-SW 257 0 min 0,000 mm 0,0 UV-I 0 W/m 0,9 C 1,2 C 0,0 km/h (0 Bft) 100,00 %
07.02.2017 03:14 1,2 C 98 % 1018,0 hPa 0,0 l/m 0,0 km/h (0 Bft) W-SW 257 0 min 0,000 mm 0,0 UV-I 0 W/m 0,9 C 1,2 C 0,0 km/h (0 Bft) 100,00 %
07.02.2017 03:16 1,2 C 98 % 1018,0 hPa 0,0 l/m 0,0 km/h (0 Bft) W-SW 257 0 min 0,000 mm 0,0 UV-I 0 W/m 0,9 C 1,2 C 0,0 km/h (0 Bft) 98,00 %
07.02.2017 03:18 1,1 C 98 % 1018,0 hPa 0,0 l/m 0,0 km/h (0 Bft) W-SW 257 0 min 0,000 mm 0,0 UV-I 0 W/m 0,8 C 1,1 C 0,0 km/h (0 Bft) 95,74 %
07.02.2017 03:20 1,1 C 98 % 1018,0 hPa 0,0 l/m 0,0 km/h (0 Bft) W-SW 257 0 min 0,000 mm 0,0 UV-I 0 W/m 0,8 C 1,1 C 0,0 km/h (0 Bft) 98,00 %
07.02.2017 03:22 1,1 C 98 % 1018,0 hPa 0,0 l/m 0,0 km/h (0 Bft) W-SW 257 0 min 0,000 mm 0,0 UV-I 0 W/m 0,8 C 1,1 C 0,0 km/h (0 Bft) 97,87 %
07.02.2017 03:24 1,2 C 98 % 1018,0 hPa 0,0 l/m 0,0 km/h (0 Bft) W-SW 257 0 min 0,000 mm 0,0 UV-I 0 W/m 0,9 C 1,2 C 0,0 km/h (0 Bft) 100,00 %
07.02.2017 03:26 1,2 C 98 % 1018,0 hPa 0,0 l/m 0,0 km/h (0 Bft) W-SW 257 0 min 0,000 mm 0,0 UV-I 0 W/m 0,9 C 1,2 C 0,0 km/h (0 Bft) 100,00 %
07.02.2017 03:28 1,2 C 98 % 1018,0 hPa 0,0 l/m 0,0 km/h (0 Bft) W-SW 257 0 min 0,000 mm 0,0 UV-I 0 W/m 0,9 C 1,2 C 0,0 km/h (0 Bft) 94,00 %
07.02.2017 03:30 1,2 C 98 % 1018,0 hPa 0,0 l/m 0,0 km/h (0 Bft) W-SW 257 0 min 0,000 mm 0,0 UV-I 0 W/m 0,9 C 1,2 C 0,0 km/h (0 Bft) 97,87 %
07.02.2017 03:32 1,2 C 98 % 1017,9 hPa 0,0 l/m 0,0 km/h (0 Bft) W-SW 257 0 min 0,000 mm 0,0 UV-I 0 W/m 0,9 C 1,2 C 0,0 km/h (0 Bft) 100,00 %
07.02.2017 03:34 1,2 C 98 % 1017,9 hPa 0,0 l/m 0,0 km/h (0 Bft) W-SW 257 0 min 0,000 mm 0,0 UV-I 0 W/m 0,9 C 1,2 C 0,0 km/h (0 Bft) 97,87 %
07.02.2017 03:36 1,2 C 98 % 1017,9 hPa 0,0 l/m 0,0 km/h (0 Bft) W-SW 257 0 min 0,000 mm 0,0 UV-I 0 W/m 0,9 C 1,2 C 0,0 km/h (0 Bft) 100,00 %
07.02.2017 03:38 1,2 C 98 % 1017,9 hPa 0,0 l/m 0,0 km/h (0 Bft) W-SW 257 0 min 0,000 mm 0,0 UV-I 0 W/m 0,9 C 1,2 C 0,0 km/h (0 Bft) 100,00 %
07.02.2017 03:40 1,2 C 98 % 1017,9 hPa 0,0 l/m 0,0 km/h (0 Bft) W-SW 257 0 min 0,000 mm 0,0 UV-I 0 W/m 0,9 C 1,2 C 0,0 km/h (0 Bft) 100,00 %
07.02.2017 03:42 1,1 C 98 % 1017,8 hPa 0,0 l/m 0,0 km/h (0 Bft) W-SW 257 0 min 0,000 mm 0,0 UV-I 0 W/m 0,8 C 1,1 C 0,0 km/h (0 Bft) 98,00 %
07.02.2017 03:44 1,1 C 98 % 1017,8 hPa 0,0 l/m 0,0 km/h (0 Bft) W-SW 257 0 min 0,000 mm 0,0 UV-I 0 W/m 0,8 C 1,1 C 0,0 km/h (0 Bft) 100,00 %
07.02.2017 03:46 1,1 C 98 % 1017,8 hPa 0,0 l/m 0,0 km/h (0 Bft) W-SW 257 0 min 0,000 mm 0,0 UV-I 0 W/m 0,8 C 1,1 C 0,0 km/h (0 Bft) 97,87 %
07.02.2017 03:48 1,1 C 98 % 1017,8 hPa 0,0 l/m 0,0 km/h (0 Bft) W-SW 257 0 min 0,000 mm 0,0 UV-I 0 W/m 0,8 C 1,1 C 0,0 km/h (0 Bft) 95,74 %
07.02.2017 03:50 1,1 C 98 % 1017,8 hPa 0,0 l/m 0,0 km/h (0 Bft) W-SW 257 0 min 0,000 mm 0,0 UV-I 0 W/m 0,8 C 1,1 C 0,0 km/h (0 Bft) 100,00 %
07.02.2017 03:52 1,0 C 98 % 1017,8 hPa 0,0 l/m 0,0 km/h (0 Bft) W-SW 257 0 min 0,000 mm 0,0 UV-I 0 W/m 0,7 C 1,0 C 0,0 km/h (0 Bft) 97,87 %
07.02.2017 03:54 1,0 C 98 % 1017,8 hPa 0,0 l/m 0,0 km/h (0 Bft) W-SW 257 0 min 0,000 mm 0,0 UV-I 0 W/m 0,7 C 1,0 C 0,0 km/h (0 Bft) 100,00 %
07.02.2017 03:56 1,0 C 98 % 1017,8 hPa 0,0 l/m 0,4 km/h (0 Bft) W-SW 257 0 min 0,000 mm 0,0 UV-I 0 W/m 0,7 C 1,0 C 3,2 km/h (1 Bft) 100,00 %
07.02.2017 03:58 1,1 C 98 % 1017,8 hPa 0,0 l/m 0,2 km/h (0 Bft) W-SW 257 0 min 0,000 mm 0,0 UV-I 0 W/m 0,8 C 1,1 C 1,6 km/h (1 Bft) 97,92 %
07.02.2017 04:00 1,0 C 98 % 1017,8 hPa 0,0 l/m 1,2 km/h (1 Bft) W-SW 257 0 min 0,000 mm 0,0 UV-I 0 W/m 0,7 C 1,0 C 3,2 km/h (1 Bft) 97,87 %
07.02.2017 04:02 1,0 C 98 % 1017,7 hPa 0,0 l/m 0,1 km/h (0 Bft) W-SW 257 0 min 0,000 mm 0,0 UV-I 0 W/m 0,7 C 1,0 C 1,6 km/h (1 Bft) 94,44 %
07.02.2017 04:04 1,0 C 98 % 1017,7 hPa 0,0 l/m 0,0 km/h (0 Bft) W-SW 257 0 min 0,000 mm 0,0 UV-I 0 W/m 0,7 C 1,0 C 1,6 km/h (1 Bft) 97,87 %
07.02.2017 04:06 1,0 C 98 % 1017,6 hPa 0,0 l/m 0,0 km/h (0 Bft) W-SW 257 0 min 0,000 mm 0,0 UV-I 0 W/m 0,7 C 1,0 C 0,0 km/h (0 Bft) 97,87 %
07.02.2017 04:08 1,0 C 98 % 1017,6 hPa 0,0 l/m 0,0 km/h (0 Bft) W-SW 257 0 min 0,000 mm 0,0 UV-I 0 W/m 0,7 C 1,0 C 0,0 km/h (0 Bft) 97,14 %
07.02.2017 04:10 1,0 C 98 % 1017,6 hPa 0,0 l/m 0,0 km/h (0 Bft) W-SW 257 0 min 0,000 mm 0,0 UV-I 0 W/m 0,7 C 1,0 C 0,0 km/h (0 Bft) 96,00 %
07.02.2017 04:12 1,0 C 98 % 1017,6 hPa 0,0 l/m 0,0 km/h (0 Bft) W-SW 257 0 min 0,000 mm 0,0 UV-I 0 W/m 0,7 C 1,0 C 0,0 km/h (0 Bft) 95,74 %
07.02.2017 04:14 1,1 C 98 % 1017,6 hPa 0,0 l/m 0,0 km/h (0 Bft) W-SW 257 0 min 0,000 mm 0,0 UV-I 0 W/m 0,8 C 1,1 C 0,0 km/h (0 Bft) 93,62 %
07.02.2017 04:16 1,1 C 98 % 1017,6 hPa 0,0 l/m 0,0 km/h (0 Bft) W-SW 257 0 min 0,000 mm 0,0 UV-I 0 W/m 0,8 C 1,1 C 0,0 km/h (0 Bft) 95,74 %
07.02.2017 04:18 1,2 C 98 % 1017,6 hPa 0,0 l/m 0,0 km/h (0 Bft) W-SW 257 0 min 0,000 mm 0,0 UV-I 0 W/m 0,9 C 1,2 C 0,0 km/h (0 Bft) 98,00 %
07.02.2017 04:20 1,2 C 98 % 1017,7 hPa 0,0 l/m 0,0 km/h (0 Bft) W-SW 257 0 min 0,000 mm 0,0 UV-I 0 W/m 0,9 C 1,2 C 0,0 km/h (0 Bft) 94,00 %
07.02.2017 04:22 1,3 C 98 % 1017,7 hPa 0,0 l/m 0,0 km/h (0 Bft) W-SW 257 0 min 0,000 mm 0,0 UV-I 0 W/m 1,0 C 1,3 C 0,0 km/h (0 Bft) 95,74 %
07.02.2017 04:24 1,3 C 98 % 1017,7 hPa 0,0 l/m 0,0 km/h (0 Bft) W-SW 257 0 min 0,000 mm 0,0 UV-I 0 W/m 1,0 C 1,3 C 0,0 km/h (0 Bft) 95,12 %
07.02.2017 04:26 1,3 C 98 % 1017,7 hPa 0,0 l/m 0,0 km/h (0 Bft) W-SW 257 0 min 0,000 mm 0,0 UV-I 0 W/m 1,0 C 1,3 C 0,0 km/h (0 Bft) 96,23 %
07.02.2017 04:28 1,3 C 98 % 1017,8 hPa 0,0 l/m 0,0 km/h (0 Bft) W-SW 257 0 min 0,000 mm 0,0 UV-I 0 W/m 1,0 C 1,3 C 0,0 km/h (0 Bft) 97,22 %
07.02.2017 04:30 1,3 C 98 % 1017,8 hPa 0,0 l/m 0,0 km/h (0 Bft) W-SW 257 0 min 0,000 mm 0,0 UV-I 0 W/m 1,0 C 1,3 C 0,0 km/h (0 Bft) 94,74 %
07.02.2017 04:32 1,3 C 98 % 1017,8 hPa 0,0 l/m 0,0 km/h (0 Bft) W-SW 257 0 min 0,000 mm 0,0 UV-I 0 W/m 1,0 C 1,3 C 0,0 km/h (0 Bft) 95,31 %
07.02.2017 04:34 1,3 C 98 % 1017,8 hPa 0,0 l/m 0,0 km/h (0 Bft) W-SW 257 0 min 0,000 mm 0,0 UV-I 0 W/m 1,0 C 1,3 C 0,0 km/h (0 Bft) 96,00 %
07.02.2017 04:36 1,3 C 98 % 1017,8 hPa 0,0 l/m 0,0 km/h (0 Bft) W-SW 257 0 min 0,000 mm 0,0 UV-I 0 W/m 1,0 C 1,3 C 0,0 km/h (0 Bft) 95,74 %
07.02.2017 04:38 1,2 C 98 % 1017,8 hPa 0,0 l/m 0,0 km/h (0 Bft) W-SW 257 0 min 0,000 mm 0,0 UV-I 0 W/m 0,9 C 1,2 C 0,0 km/h (0 Bft) 100,00 %
07.02.2017 04:40 1,2 C 98 % 1017,8 hPa 0,0 l/m 0,0 km/h (0 Bft) W-SW 257 0 min 0,000 mm 0,0 UV-I 0 W/m 0,9 C 1,2 C 0,0 km/h (0 Bft) 98,00 %
07.02.2017 04:42 1,1 C 98 % 1017,8 hPa 0,0 l/m 0,0 km/h (0 Bft) W-SW 257 0 min 0,000 mm 0,0 UV-I 0 W/m 0,8 C 1,1 C 0,0 km/h (0 Bft) 100,00 %
07.02.2017 04:44 1,1 C 98 % 1017,9 hPa 0,0 l/m 0,0 km/h (0 Bft) W-SW 257 0 min 0,000 mm 0,0 UV-I 0 W/m 0,8 C 1,1 C 0,0 km/h (0 Bft) 98,00 %
07.02.2017 04:46 1,1 C 98 % 1017,9 hPa 0,0 l/m 0,0 km/h (0 Bft) W-SW 257 0 min 0,000 mm 0,0 UV-I 0 W/m 0,8 C 1,1 C 0,0 km/h (0 Bft) 97,37 %
07.02.2017 04:48 1,1 C 98 % 1017,9 hPa 0,0 l/m 0,0 km/h (0 Bft) W-SW 257 0 min 0,000 mm 0,0 UV-I 0 W/m 0,8 C 1,1 C 0,0 km/h (0 Bft) 93,62 %
07.02.2017 04:50 1,1 C 98 % 1017,9 hPa 0,0 l/m 0,0 km/h (0 Bft) W-SW 257 0 min 0,000 mm 0,0 UV-I 0 W/m 0,8 C 1,1 C 0,0 km/h (0 Bft) 100,00 %
07.02.2017 04:52 1,1 C 98 % 1017,9 hPa 0,0 l/m 0,0 km/h (0 Bft) W-SW 257 0 min 0,000 mm 0,0 UV-I 0 W/m 0,8 C 1,1 C 0,0 km/h (0 Bft) 98,11 %
07.02.2017 04:54 1,1 C 98 % 1017,9 hPa 0,0 l/m 0,0 km/h (0 Bft) W-SW 257 0 min 0,000 mm 0,0 UV-I 0 W/m 0,8 C 1,1 C 0,0 km/h (0 Bft) 100,00 %
07.02.2017 04:56 1,2 C 98 % 1017,9 hPa 0,0 l/m 0,0 km/h (0 Bft) W-SW 257 0 min 0,000 mm 0,0 UV-I 0 W/m 0,9 C 1,2 C 0,0 km/h (0 Bft) 93,62 %
07.02.2017 04:58 1,2 C 98 % 1017,9 hPa 0,0 l/m 0,0 km/h (0 Bft) W-SW 257 0 min 0,000 mm 0,0 UV-I 0 W/m 0,9 C 1,2 C 0,0 km/h (0 Bft) 97,37 %
07.02.2017 05:00 1,2 C 98 % 1018,0 hPa 0,0 l/m 0,0 km/h (0 Bft) W-SW 257 0 min 0,000 mm 0,0 UV-I 0 W/m 0,9 C 1,2 C 0,0 km/h (0 Bft) 98,11 %
07.02.2017 05:02 1,2 C 98 % 1017,9 hPa 0,0 l/m 0,0 km/h (0 Bft) W-SW 257 0 min 0,000 mm 0,0 UV-I 0 W/m 0,9 C 1,2 C 0,0 km/h (0 Bft) 100,00 %
07.02.2017 05:04 1,2 C 98 % 1017,9 hPa 0,0 l/m 0,0 km/h (0 Bft) W-SW 257 0 min 0,000 mm 0,0 UV-I 0 W/m 0,9 C 1,2 C 0,0 km/h (0 Bft) 98,00 %
07.02.2017 05:06 1,2 C 98 % 1017,9 hPa 0,0 l/m 0,0 km/h (0 Bft) W-SW 257 0 min 0,000 mm 0,0 UV-I 0 W/m 0,9 C 1,2 C 0,0 km/h (0 Bft) 100,00 %
07.02.2017 05:08 1,1 C 98 % 1017,9 hPa 0,0 l/m 0,0 km/h (0 Bft) W-SW 257 0 min 0,000 mm 0,0 UV-I 0 W/m 0,8 C 1,1 C 0,0 km/h (0 Bft) 97,87 %
07.02.2017 05:10 1,1 C 98 % 1017,9 hPa 0,0 l/m 0,0 km/h (0 Bft) W-SW 257 0 min 0,000 mm 0,0 UV-I 0 W/m 0,8 C 1,1 C 0,0 km/h (0 Bft) 100,00 %
07.02.2017 05:12 1,2 C 98 % 1017,9 hPa 0,0 l/m 0,0 km/h (0 Bft) W-SW 257 0 min 0,000 mm 0,0 UV-I 0 W/m 0,9 C 1,2 C 0,0 km/h (0 Bft) 94,44 %
07.02.2017 05:14 1,2 C 98 % 1017,9 hPa 0,0 l/m 0,0 km/h (0 Bft) W-SW 257 0 min 0,000 mm 0,0 UV-I 0 W/m 0,9 C 1,2 C 0,0 km/h (0 Bft) 98,00 %
07.02.2017 05:16 1,2 C 98 % 1017,9 hPa 0,0 l/m 0,0 km/h (0 Bft) W-SW 257 0 min 0,000 mm 0,0 UV-I 0 W/m 0,9 C 1,2 C 0,0 km/h (0 Bft) 97,87 %
07.02.2017 05:18 1,2 C 98 % 1017,9 hPa 0,0 l/m 0,0 km/h (0 Bft) W-SW 257 0 min 0,000 mm 0,0 UV-I 0 W/m 0,9 C 1,2 C 0,0 km/h (0 Bft) 100,00 %
07.02.2017 05:20 1,2 C 98 % 1017,9 hPa 0,0 l/m 0,0 km/h (0 Bft) W-SW 257 0 min 0,000 mm 0,0 UV-I 0 W/m 0,9 C 1,2 C 0,0 km/h (0 Bft) 96,00 %
07.02.2017 05:22 1,2 C 98 % 1017,9 hPa 0,0 l/m 0,0 km/h (0 Bft) W-SW 257 0 min 0,000 mm 0,0 UV-I 0 W/m 0,9 C 1,2 C 0,0 km/h (0 Bft) 98,00 %
07.02.2017 05:24 1,2 C 98 % 1017,9 hPa 0,0 l/m 0,0 km/h (0 Bft) W-SW 257 0 min 0,000 mm 0,0 UV-I 0 W/m 0,9 C 1,2 C 0,0 km/h (0 Bft) 100,00 %
07.02.2017 05:26 1,2 C 98 % 1017,9 hPa 0,0 l/m 0,0 km/h (0 Bft) W-SW 257 0 min 0,000 mm 0,0 UV-I 0 W/m 0,9 C 1,2 C 0,0 km/h (0 Bft) 97,37 %
07.02.2017 05:28 1,1 C 98 % 1017,9 hPa 0,0 l/m 0,0 km/h (0 Bft) W-SW 257 0 min 0,000 mm 0,0 UV-I 0 W/m 0,8 C 1,1 C 0,0 km/h (0 Bft) 100,00 %
07.02.2017 05:30 1,1 C 98 % 1017,9 hPa 0,0 l/m 0,0 km/h (0 Bft) W-SW 257 0 min 0,000 mm 0,0 UV-I 0 W/m 0,8 C 1,1 C 0,0 km/h (0 Bft) 100,00 %
07.02.2017 05:32 1,1 C 98 % 1017,9 hPa 0,0 l/m 0,0 km/h (0 Bft) W-SW 257 0 min 0,000 mm 0,0 UV-I 0 W/m 0,8 C 1,1 C 0,0 km/h (0 Bft) 100,00 %
07.02.2017 05:34 1,1 C 98 % 1017,9 hPa 0,0 l/m 0,0 km/h (0 Bft) W-SW 257 0 min 0,000 mm 0,0 UV-I 0 W/m 0,8 C 1,1 C 0,0 km/h (0 Bft) 100,00 %
07.02.2017 05:36 1,1 C 98 % 1017,9 hPa 0,0 l/m 0,0 km/h (0 Bft) W-SW 257 0 min 0,000 mm 0,0 UV-I 0 W/m 0,8 C 1,1 C 0,0 km/h (0 Bft) 100,00 %
07.02.2017 05:38 1,1 C 98 % 1017,9 hPa 0,0 l/m 0,0 km/h (0 Bft) W-SW 257 0 min 0,000 mm 0,0 UV-I 0 W/m 0,8 C 1,1 C 0,0 km/h (0 Bft) 97,87 %
07.02.2017 05:40 1,1 C 98 % 1017,9 hPa 0,0 l/m 0,0 km/h (0 Bft) W-SW 257 0 min 0,000 mm 0,0 UV-I 0 W/m 0,8 C 1,1 C 0,0 km/h (0 Bft) 100,00 %
07.02.2017 05:42 1,1 C 98 % 1017,9 hPa 0,0 l/m 0,0 km/h (0 Bft) W-SW 257 0 min 0,000 mm 0,0 UV-I 0 W/m 0,8 C 1,1 C 0,0 km/h (0 Bft) 98,11 %
07.02.2017 05:44 1,1 C 98 % 1017,9 hPa 0,0 l/m 0,0 km/h (0 Bft) W-SW 257 0 min 0,000 mm 0,0 UV-I 0 W/m 0,8 C 1,1 C 0,0 km/h (0 Bft) 100,00 %
07.02.2017 05:46 1,1 C 98 % 1017,9 hPa 0,0 l/m 0,0 km/h (0 Bft) W-SW 257 0 min 0,000 mm 0,0 UV-I 0 W/m 0,8 C 1,1 C 0,0 km/h (0 Bft) 97,87 %
07.02.2017 05:48 1,1 C 98 % 1017,9 hPa 0,0 l/m 0,0 km/h (0 Bft) W-SW 257 0 min 0,000 mm 0,0 UV-I 0 W/m 0,8 C 1,1 C 0,0 km/h (0 Bft) 97,87 %
07.02.2017 05:50 1,1 C 98 % 1017,9 hPa 0,0 l/m 0,0 km/h (0 Bft) W-SW 257 0 min 0,000 mm 0,0 UV-I 0 W/m 0,8 C 1,1 C 0,0 km/h (0 Bft) 98,00 %
07.02.2017 05:52 1,1 C 98 % 1017,9 hPa 0,0 l/m 0,0 km/h (0 Bft) W-SW 257 0 min 0,000 mm 0,0 UV-I 0 W/m 0,8 C 1,1 C 0,0 km/h (0 Bft) 96,00 %
07.02.2017 05:54 1,1 C 98 % 1017,9 hPa 0,0 l/m 0,0 km/h (0 Bft) W-SW 257 0 min 0,000 mm 0,0 UV-I 0 W/m 0,8 C 1,1 C 0,0 km/h (0 Bft) 97,87 %
07.02.2017 05:56 1,1 C 98 % 1017,9 hPa 0,0 l/m 0,0 km/h (0 Bft) W-SW 257 0 min 0,000 mm 0,0 UV-I 0 W/m 0,8 C 1,1 C 0,0 km/h (0 Bft) 100,00 %
07.02.2017 05:58 1,1 C 98 % 1017,9 hPa 0,0 l/m 0,0 km/h (0 Bft) W-SW 257 0 min 0,000 mm 0,0 UV-I 0 W/m 0,8 C 1,1 C 0,0 km/h (0 Bft) 98,00 %
07.02.2017 06:00 1,2 C 98 % 1018,0 hPa 0,0 l/m 0,0 km/h (0 Bft) W-SW 257 0 min 0,000 mm 0,0 UV-I 0 W/m 0,9 C 1,2 C 0,0 km/h (0 Bft) 98,00 %
07.02.2017 06:02 1,1 C 98 % 1018,0 hPa 0,0 l/m 0,0 km/h (0 Bft) W-SW 257 0 min 0,000 mm 0,0 UV-I 0 W/m 0,8 C 1,1 C 0,0 km/h (0 Bft) 97,37 %
07.02.2017 06:04 1,1 C 98 % 1018,0 hPa 0,0 l/m 0,0 km/h (0 Bft) W-SW 257 0 min 0,000 mm 0,0 UV-I 0 W/m 0,8 C 1,1 C 0,0 km/h (0 Bft) 100,00 %
07.02.2017 06:06 1,1 C 98 % 1018,0 hPa 0,0 l/m 0,0 km/h (0 Bft) W-SW 257 0 min 0,000 mm 0,0 UV-I 0 W/m 0,8 C 1,1 C 0,0 km/h (0 Bft) 97,37 %
07.02.2017 06:08 1,1 C 98 % 1018,0 hPa 0,0 l/m 0,0 km/h (0 Bft) W-SW 257 0 min 0,000 mm 0,0 UV-I 0 W/m 0,8 C 1,1 C 0,0 km/h (0 Bft) 93,62 %
07.02.2017 06:10 1,1 C 98 % 1018,0 hPa 0,0 l/m 0,0 km/h (0 Bft) W-SW 257 0 min 0,000 mm 0,0 UV-I 0 W/m 0,8 C 1,1 C 0,0 km/h (0 Bft) 96,23 %
07.02.2017 06:12 1,1 C 98 % 1018,0 hPa 0,0 l/m 0,0 km/h (0 Bft) W-SW 257 0 min 0,000 mm 0,0 UV-I 0 W/m 0,8 C 1,1 C 0,0 km/h (0 Bft) 93,62 %
07.02.2017 06:14 1,1 C 98 % 1018,2 hPa 0,0 l/m 0,0 km/h (0 Bft) W-SW 257 0 min 0,000 mm 0,0 UV-I 0 W/m 0,8 C 1,1 C 0,0 km/h (0 Bft) 98,00 %
07.02.2017 06:16 1,2 C 98 % 1018,1 hPa 0,0 l/m 0,0 km/h (0 Bft) W-SW 257 0 min 0,000 mm 0,0 UV-I 0 W/m 0,9 C 1,2 C 0,0 km/h (0 Bft) 97,87 %
07.02.2017 06:18 1,2 C 98 % 1018,2 hPa 0,0 l/m 0,9 km/h (0 Bft) W-SW 257 0 min 0,000 mm 0,0 UV-I 0 W/m 0,9 C 1,2 C 3,2 km/h (1 Bft) 95,12 %
07.02.2017 06:20 1,2 C 98 % 1018,2 hPa 0,0 l/m 1,9 km/h (1 Bft) W-SW 257 0 min 0,000 mm 0,0 UV-I 0 W/m 0,9 C 1,2 C 3,2 km/h (1 Bft) 94,00 %
07.02.2017 06:22 1,2 C 98 % 1018,2 hPa 0,0 l/m 2,7 km/h (1 Bft) W-SW 257 0 min 0,000 mm 0,0 UV-I 0 W/m 0,9 C 1,2 C 3,2 km/h (1 Bft) 93,62 %
07.02.2017 06:24 1,1 C 98 % 1018,2 hPa 0,0 l/m 1,9 km/h (1 Bft) W-SW 257 0 min 0,000 mm 0,0 UV-I 0 W/m 0,8 C 1,1 C 3,2 km/h (1 Bft) 95,45 %
07.02.2017 06:26 1,1 C 98 % 1018,2 hPa 0,0 l/m 2,0 km/h (1 Bft) W-SW 257 0 min 0,000 mm 0,0 UV-I 0 W/m 0,8 C 1,1 C 3,2 km/h (1 Bft) 93,62 %
07.02.2017 06:28 1,1 C 98 % 1018,2 hPa 0,0 l/m 1,4 km/h (1 Bft) W-SW 257 0 min 0,000 mm 0,0 UV-I 0 W/m 0,8 C 1,1 C 3,2 km/h (1 Bft) 98,00 %
07.02.2017 06:30 1,1 C 98 % 1018,2 hPa 0,0 l/m 2,5 km/h (1 Bft) W-SW 257 0 min 0,000 mm 0,0 UV-I 0 W/m 0,8 C 1,1 C 3,2 km/h (1 Bft) 95,74 %
07.02.2017 06:32 1,1 C 98 % 1018,2 hPa 0,0 l/m 2,3 km/h (1 Bft) W-SW 257 0 min 0,000 mm 0,0 UV-I 0 W/m 0,8 C 1,1 C 3,2 km/h (1 Bft) 94,44 %
07.02.2017 06:34 1,1 C 98 % 1018,2 hPa 0,0 l/m 3,4 km/h (1 Bft) W-SW 257 0 min 0,000 mm 0,0 UV-I 0 W/m 0,8 C 1,1 C 4,8 km/h (1 Bft) 98,11 %
07.02.2017 06:36 1,1 C 98 % 1018,2 hPa 0,0 l/m 3,3 km/h (1 Bft) W-SW 257 0 min 0,000 mm 0,0 UV-I 0 W/m 0,8 C 1,1 C 4,8 km/h (1 Bft) 97,87 %
07.02.2017 06:38 1,1 C 98 % 1018,2 hPa 0,0 l/m 3,7 km/h (1 Bft) SW 227 0 min 0,000 mm 0,0 UV-I 0 W/m 0,8 C 1,1 C 4,8 km/h (1 Bft) 94,34 %
07.02.2017 06:40 1,1 C 98 % 1018,2 hPa 0,0 l/m 4,2 km/h (1 Bft) SW 227 0 min 0,000 mm 0,0 UV-I 0 W/m 0,8 C 1,1 C 6,4 km/h (2 Bft) 97,87 %
07.02.2017 06:42 1,1 C 98 % 1018,2 hPa 0,0 l/m 4,2 km/h (1 Bft) SW 227 0 min 0,000 mm 0,0 UV-I 0 W/m 0,8 C 1,1 C 6,4 km/h (2 Bft) 92,11 %
07.02.2017 06:44 1,1 C 98 % 1018,3 hPa 0,0 l/m 4,0 km/h (1 Bft) SW 227 0 min 0,000 mm 0,0 UV-I 0 W/m 0,8 C 1,1 C 4,8 km/h (1 Bft) 97,87 %
07.02.2017 06:46 1,1 C 98 % 1018,3 hPa 0,0 l/m 3,4 km/h (1 Bft) SW 227 0 min 0,000 mm 0,0 UV-I 0 W/m 0,8 C 1,1 C 4,8 km/h (1 Bft) 94,34 %
07.02.2017 06:48 1,1 C 98 % 1018,3 hPa 0,0 l/m 2,6 km/h (1 Bft) SW 227 0 min 0,000 mm 0,0 UV-I 0 W/m 0,8 C 1,1 C 4,8 km/h (1 Bft) 100,00 %
07.02.2017 06:50 1,1 C 98 % 1018,3 hPa 0,0 l/m 2,2 km/h (1 Bft) SW 227 0 min 0,000 mm 0,0 UV-I 0 W/m 0,8 C 1,1 C 4,8 km/h (1 Bft) 100,00 %
07.02.2017 06:52 1,1 C 98 % 1018,3 hPa 0,0 l/m 1,3 km/h (1 Bft) SW 227 0 min 0,000 mm 0,0 UV-I 0 W/m 0,8 C 1,1 C 3,2 km/h (1 Bft) 96,23 %
07.02.2017 06:54 1,1 C 98 % 1018,3 hPa 0,0 l/m 2,0 km/h (1 Bft) SW 227 0 min 0,000 mm 0,0 UV-I 0 W/m 0,8 C 1,1 C 3,2 km/h (1 Bft) 97,56 %
07.02.2017 06:56 1,1 C 98 % 1018,3 hPa 0,0 l/m 1,8 km/h (1 Bft) SW 227 0 min 0,000 mm 0,0 UV-I 0 W/m 0,8 C 1,1 C 4,8 km/h (1 Bft) 94,34 %
07.02.2017 06:58 1,1 C 98 % 1018,2 hPa 0,0 l/m 3,1 km/h (1 Bft) SW 227 0 min 0,000 mm 0,0 UV-I 0 W/m 0,8 C 1,1 C 6,4 km/h (2 Bft) 100,00 %
07.02.2017 07:00 1,2 C 98 % 1018,3 hPa 0,0 l/m 2,8 km/h (1 Bft) SW 227 0 min 0,000 mm 0,0 UV-I 0 W/m 0,9 C 1,2 C 4,8 km/h (1 Bft) 97,87 %
07.02.2017 07:02 1,2 C 98 % 1018,2 hPa 0,0 l/m 2,6 km/h (1 Bft) SW 227 0 min 0,000 mm 0,0 UV-I 0 W/m 0,9 C 1,2 C 4,8 km/h (1 Bft) 100,00 %
07.02.2017 07:04 1,2 C 98 % 1018,3 hPa 0,0 l/m 2,3 km/h (1 Bft) SW 227 0 min 0,000 mm 0,0 UV-I 0 W/m 0,9 C 1,2 C 6,4 km/h (2 Bft) 100,00 %
07.02.2017 07:06 1,1 C 98 % 1018,3 hPa 0,0 l/m 1,4 km/h (1 Bft) SW 227 0 min 0,000 mm 0,0 UV-I 0 W/m 0,8 C 1,1 C 3,2 km/h (1 Bft) 97,56 %
07.02.2017 07:08 1,1 C 98 % 1018,3 hPa 0,0 l/m 1,4 km/h (1 Bft) SW 227 0 min 0,000 mm 0,0 UV-I 0 W/m 0,8 C 1,1 C 3,2 km/h (1 Bft) 98,00 %
07.02.2017 07:10 1,2 C 98 % 1018,3 hPa 0,0 l/m 1,1 km/h (1 Bft) SW 227 0 min 0,000 mm 0,0 UV-I 0 W/m 0,9 C 1,2 C 3,2 km/h (1 Bft) 98,00 %
07.02.2017 07:12 1,2 C 98 % 1018,3 hPa 0,0 l/m 0,8 km/h (0 Bft) SW 227 0 min 0,000 mm 0,0 UV-I 0 W/m 0,9 C 1,2 C 3,2 km/h (1 Bft) 100,00 %
07.02.2017 07:14 1,2 C 98 % 1018,4 hPa 0,0 l/m 0,0 km/h (0 Bft) SW 227 0 min 0,000 mm 0,0 UV-I 0 W/m 0,9 C 1,2 C 0,0 km/h (0 Bft) 95,74 %
07.02.2017 07:16 1,2 C 98 % 1018,4 hPa 0,0 l/m 0,0 km/h (0 Bft) SW 227 0 min 0,000 mm 0,0 UV-I 0 W/m 0,9 C 1,2 C 0,0 km/h (0 Bft) 93,62 %
07.02.2017 07:18 1,2 C 98 % 1018,4 hPa 0,0 l/m 0,0 km/h (0 Bft) SW 227 0 min 0,000 mm 0,0 UV-I 0 W/m 0,9 C 1,2 C 1,6 km/h (1 Bft) 98,00 %
07.02.2017 07:20 1,2 C 98 % 1018,4 hPa 0,0 l/m 0,1 km/h (0 Bft) SW 227 0 min 0,000 mm 0,0 UV-I 0 W/m 0,9 C 1,2 C 1,6 km/h (1 Bft) 100,00 %
07.02.2017 07:22 1,2 C 98 % 1018,5 hPa 0,0 l/m 0,4 km/h (0 Bft) SW 227 0 min 0,000 mm 0,0 UV-I 0 W/m 0,9 C 1,2 C 1,6 km/h (1 Bft) 97,56 %
07.02.2017 07:24 1,2 C 98 % 1018,5 hPa 0,0 l/m 0,1 km/h (0 Bft) SW 227 0 min 0,000 mm 0,0 UV-I 0 W/m 0,9 C 1,2 C 1,6 km/h (1 Bft) 91,49 %
07.02.2017 07:26 1,2 C 98 % 1018,5 hPa 0,0 l/m 0,0 km/h (0 Bft) SW 227 0 min 0,000 mm 0,0 UV-I 0 W/m 0,9 C 1,2 C 0,0 km/h (0 Bft) 94,00 %
07.02.2017 07:28 1,2 C 98 % 1018,5 hPa 0,0 l/m 0,0 km/h (0 Bft) SW 227 0 min 0,000 mm 0,0 UV-I 0 W/m 0,9 C 1,2 C 0,0 km/h (0 Bft) 96,00 %
07.02.2017 07:30 1,2 C 98 % 1018,5 hPa 0,0 l/m 0,0 km/h (0 Bft) SW 227 0 min 0,000 mm 0,0 UV-I 0 W/m 0,9 C 1,2 C 0,0 km/h (0 Bft) 93,62 %
07.02.2017 07:32 1,2 C 98 % 1018,5 hPa 0,0 l/m 0,0 km/h (0 Bft) SW 227 0 min 0,000 mm 0,0 UV-I 0 W/m 0,9 C 1,2 C 0,0 km/h (0 Bft) 95,74 %
07.02.2017 07:34 1,2 C 98 % 1018,5 hPa 0,0 l/m 0,0 km/h (0 Bft) SW 227 0 min 0,000 mm 0,0 UV-I 0 W/m 0,9 C 1,2 C 0,0 km/h (0 Bft) 90,24 %
07.02.2017 07:36 1,2 C 98 % 1018,5 hPa 0,0 l/m 0,0 km/h (0 Bft) SW 227 0 min 0,000 mm 0,0 UV-I 0 W/m 0,9 C 1,2 C 0,0 km/h (0 Bft) 100,00 %
07.02.2017 07:38 1,2 C 98 % 1018,5 hPa 0,0 l/m 0,0 km/h (0 Bft) SW 227 0 min 0,000 mm 0,0 UV-I 0 W/m 0,9 C 1,2 C 0,0 km/h (0 Bft) 98,00 %
07.02.2017 07:40 1,2 C 98 % 1018,5 hPa 0,0 l/m 0,0 km/h (0 Bft) SW 227 0 min 0,000 mm 0,0 UV-I 4 W/m 0,9 C 1,2 C 0,0 km/h (0 Bft) 97,14 %
07.02.2017 07:42 1,2 C 98 % 1018,5 hPa 0,0 l/m 0,0 km/h (0 Bft) SW 227 0 min 0,000 mm 0,0 UV-I 5 W/m 0,9 C 1,2 C 0,0 km/h (0 Bft) 98,00 %
07.02.2017 07:44 1,2 C 98 % 1018,5 hPa 0,0 l/m 0,0 km/h (0 Bft) SW 227 0 min 0,000 mm 0,0 UV-I 5 W/m 0,9 C 1,2 C 0,0 km/h (0 Bft) 100,00 %
07.02.2017 07:46 1,2 C 98 % 1018,5 hPa 0,0 l/m 0,0 km/h (0 Bft) SW 227 0 min 0,000 mm 0,0 UV-I 5 W/m 0,9 C 1,2 C 0,0 km/h (0 Bft) 97,87 %
07.02.2017 07:48 1,2 C 98 % 1018,6 hPa 0,0 l/m 0,0 km/h (0 Bft) SW 227 0 min 0,000 mm 0,0 UV-I 5 W/m 0,9 C 1,2 C 0,0 km/h (0 Bft) 97,87 %
07.02.2017 07:50 1,1 C 98 % 1018,6 hPa 0,0 l/m 0,0 km/h (0 Bft) SW 227 0 min 0,000 mm 0,0 UV-I 5 W/m 0,8 C 1,1 C 0,0 km/h (0 Bft) 96,00 %
07.02.2017 07:52 1,1 C 98 % 1018,6 hPa 0,0 l/m 0,0 km/h (0 Bft) SW 227 0 min 0,000 mm 0,0 UV-I 7 W/m 0,8 C 1,1 C 0,0 km/h (0 Bft) 97,87 %
07.02.2017 07:54 1,1 C 98 % 1018,6 hPa 0,0 l/m 0,0 km/h (0 Bft) SW 227 0 min 0,000 mm 0,0 UV-I 7 W/m 0,8 C 1,1 C 0,0 km/h (0 Bft) 94,00 %
07.02.2017 07:56 1,1 C 98 % 1018,6 hPa 0,0 l/m 0,0 km/h (0 Bft) SW 227 0 min 0,000 mm 0,0 UV-I 7 W/m 0,8 C 1,1 C 0,0 km/h (0 Bft) 100,00 %
07.02.2017 07:58 1,1 C 98 % 1018,6 hPa 0,0 l/m 0,0 km/h (0 Bft) SW 227 0 min 0,000 mm 0,0 UV-I 9 W/m 0,8 C 1,1 C 0,0 km/h (0 Bft) 95,74 %
07.02.2017 08:00 1,0 C 98 % 1018,6 hPa 0,0 l/m 0,0 km/h (0 Bft) SW 227 0 min 0,000 mm 0,0 UV-I 9 W/m 0,7 C 1,0 C 0,0 km/h (0 Bft) 95,74 %
07.02.2017 08:02 1,0 C 98 % 1018,6 hPa 0,0 l/m 0,0 km/h (0 Bft) SW 227 0 min 0,000 mm 0,0 UV-I 8 W/m 0,7 C 1,0 C 0,0 km/h (0 Bft) 96,00 %
07.02.2017 08:04 1,1 C 98 % 1018,7 hPa 0,0 l/m 0,0 km/h (0 Bft) SW 227 0 min 0,000 mm 0,0 UV-I 7 W/m 0,8 C 1,1 C 0,0 km/h (0 Bft) 98,00 %
07.02.2017 08:06 1,1 C 98 % 1018,6 hPa 0,0 l/m 0,0 km/h (0 Bft) SW 227 0 min 0,000 mm 0,0 UV-I 7 W/m 0,8 C 1,1 C 0,0 km/h (0 Bft) 95,74 %
07.02.2017 08:08 1,1 C 98 % 1018,6 hPa 0,0 l/m 0,0 km/h (0 Bft) SW 227 0 min 0,000 mm 0,0 UV-I 7 W/m 0,8 C 1,1 C 0,0 km/h (0 Bft) 95,74 %
07.02.2017 08:10 1,1 C 98 % 1018,7 hPa 0,0 l/m 0,0 km/h (0 Bft) SW 227 0 min 0,000 mm 0,0 UV-I 9 W/m 0,8 C 1,1 C 0,0 km/h (0 Bft) 97,37 %
07.02.2017 08:12 1,1 C 98 % 1018,7 hPa 0,0 l/m 0,0 km/h (0 Bft) SW 227 0 min 0,000 mm 0,0 UV-I 9 W/m 0,8 C 1,1 C 0,0 km/h (0 Bft) 95,74 %
07.02.2017 08:14 1,2 C 98 % 1018,7 hPa 0,0 l/m 0,0 km/h (0 Bft) SW 227 0 min 0,000 mm 0,0 UV-I 9 W/m 0,9 C 1,2 C 0,0 km/h (0 Bft) 95,74 %
07.02.2017 08:16 1,2 C 98 % 1018,7 hPa 0,0 l/m 0,0 km/h (0 Bft) SW 227 0 min 0,000 mm 0,0 UV-I 9 W/m 0,9 C 1,2 C 0,0 km/h (0 Bft) 97,87 %
07.02.2017 08:18 1,1 C 98 % 1018,7 hPa 0,0 l/m 0,0 km/h (0 Bft) SW 227 0 min 0,000 mm 0,0 UV-I 9 W/m 0,8 C 1,1 C 0,0 km/h (0 Bft) 95,74 %
07.02.2017 08:20 1,2 C 98 % 1018,7 hPa 0,0 l/m 0,0 km/h (0 Bft) SW 227 0 min 0,000 mm 0,0 UV-I 9 W/m 0,9 C 1,2 C 0,0 km/h (0 Bft) 95,74 %
07.02.2017 08:22 1,2 C 98 % 1018,7 hPa 0,0 l/m 0,0 km/h (0 Bft) SW 227 0 min 0,000 mm 0,0 UV-I 9 W/m 0,9 C 1,2 C 0,0 km/h (0 Bft) 97,87 %
07.02.2017 08:24 1,2 C 98 % 1018,7 hPa 0,0 l/m 0,0 km/h (0 Bft) SW 227 0 min 0,000 mm 0,0 UV-I 11 W/m 0,9 C 1,2 C 0,0 km/h (0 Bft) 92,00 %
07.02.2017 08:26 1,2 C 98 % 1018,7 hPa 0,0 l/m 0,0 km/h (0 Bft) SW 227 0 min 0,000 mm 0,0 UV-I 11 W/m 0,9 C 1,2 C 0,0 km/h (0 Bft) 95,74 %
07.02.2017 08:28 1,2 C 98 % 1018,7 hPa 0,0 l/m 0,0 km/h (0 Bft) SW 227 0 min 0,000 mm 0,0 UV-I 11 W/m 0,9 C 1,2 C 0,0 km/h (0 Bft) 98,00 %
07.02.2017 08:30 1,2 C 98 % 1018,7 hPa 0,0 l/m 0,0 km/h (0 Bft) SW 227 0 min 0,000 mm 0,0 UV-I 11 W/m 0,9 C 1,2 C 0,0 km/h (0 Bft) 97,30 %
07.02.2017 08:32 1,2 C 98 % 1018,6 hPa 0,0 l/m 0,0 km/h (0 Bft) SW 227 0 min 0,000 mm 0,0 UV-I 11 W/m 0,9 C 1,2 C 0,0 km/h (0 Bft) 96,00 %
07.02.2017 08:34 1,2 C 98 % 1018,7 hPa 0,0 l/m 0,0 km/h (0 Bft) SW 227 0 min 0,000 mm 0,0 UV-I 11 W/m 0,9 C 1,2 C 0,0 km/h (0 Bft) 93,62 %
07.02.2017 08:36 1,2 C 98 % 1018,7 hPa 0,0 l/m 0,0 km/h (0 Bft) SW 227 0 min 0,000 mm 0,0 UV-I 12 W/m 0,9 C 1,2 C 0,0 km/h (0 Bft) 89,36 %
07.02.2017 08:38 1,2 C 98 % 1018,8 hPa 0,0 l/m 0,0 km/h (0 Bft) SW 227 0 min 0,000 mm 0,0 UV-I 15 W/m 0,9 C 1,2 C 0,0 km/h (0 Bft) 94,34 %
07.02.2017 08:40 1,2 C 98 % 1018,7 hPa 0,0 l/m 0,0 km/h (0 Bft) SW 227 0 min 0,000 mm 0,0 UV-I 17 W/m 0,9 C 1,2 C 0,0 km/h (0 Bft) 97,44 %
07.02.2017 08:42 1,2 C 98 % 1018,8 hPa 0,0 l/m 0,0 km/h (0 Bft) SW 227 0 min 0,000 mm 0,0 UV-I 18 W/m 0,9 C 1,2 C 0,0 km/h (0 Bft) 93,62 %
07.02.2017 08:44 1,2 C 98 % 1018,8 hPa 0,0 l/m 0,0 km/h (0 Bft) SW 227 0 min 0,000 mm 0,0 UV-I 19 W/m 0,9 C 1,2 C 0,0 km/h (0 Bft) 92,00 %
07.02.2017 08:46 1,2 C 98 % 1018,8 hPa 0,0 l/m 0,0 km/h (0 Bft) SW 227 0 min 0,000 mm 0,0 UV-I 19 W/m 0,9 C 1,2 C 0,0 km/h (0 Bft) 96,00 %
07.02.2017 08:48 1,2 C 98 % 1018,8 hPa 0,0 l/m 0,0 km/h (0 Bft) SW 227 0 min 0,000 mm 0,0 UV-I 19 W/m 0,9 C 1,2 C 0,0 km/h (0 Bft) 97,87 %
07.02.2017 08:50 1,2 C 98 % 1018,8 hPa 0,0 l/m 0,0 km/h (0 Bft) SW 227 0 min 0,000 mm 0,0 UV-I 21 W/m 0,9 C 1,2 C 0,0 km/h (0 Bft) 96,00 %
07.02.2017 08:52 1,2 C 98 % 1018,8 hPa 0,0 l/m 0,0 km/h (0 Bft) SW 227 0 min 0,000 mm 0,0 UV-I 21 W/m 0,9 C 1,2 C 0,0 km/h (0 Bft) 95,45 %
07.02.2017 08:54 1,1 C 98 % 1018,8 hPa 0,0 l/m 0,0 km/h (0 Bft) SW 227 0 min 0,000 mm 0,0 UV-I 21 W/m 0,8 C 1,1 C 0,0 km/h (0 Bft) 93,62 %
07.02.2017 08:56 1,1 C 98 % 1018,7 hPa 0,0 l/m 0,0 km/h (0 Bft) SW 227 0 min 0,000 mm 0,0 UV-I 21 W/m 0,8 C 1,1 C 0,0 km/h (0 Bft) 100,00 %
07.02.2017 08:58 1,1 C 98 % 1018,7 hPa 0,0 l/m 0,0 km/h (0 Bft) SW 227 0 min 0,000 mm 0,0 UV-I 23 W/m 0,8 C 1,1 C 0,0 km/h (0 Bft) 98,00 %
07.02.2017 09:00 1,2 C 98 % 1018,7 hPa 0,0 l/m 0,0 km/h (0 Bft) SW 227 0 min 0,000 mm 0,0 UV-I 24 W/m 0,9 C 1,2 C 0,0 km/h (0 Bft) 97,87 %
07.02.2017 09:02 1,2 C 98 % 1018,7 hPa 0,0 l/m 0,0 km/h (0 Bft) SW 227 0 min 0,000 mm 0,0 UV-I 25 W/m 0,9 C 1,2 C 0,0 km/h (0 Bft) 95,74 %
07.02.2017 09:04 1,3 C 98 % 1018,7 hPa 0,0 l/m 0,1 km/h (0 Bft) SW 227 0 min 0,000 mm 0,0 UV-I 25 W/m 1,0 C 1,3 C 1,6 km/h (1 Bft) 98,00 %
07.02.2017 09:06 1,3 C 98 % 1018,7 hPa 0,0 l/m 0,0 km/h (0 Bft) SW 227 0 min 0,000 mm 0,0 UV-I 25 W/m 1,0 C 1,3 C 0,0 km/h (0 Bft) 98,00 %
07.02.2017 09:08 1,3 C 98 % 1018,6 hPa 0,0 l/m 0,0 km/h (0 Bft) SW 227 0 min 0,000 mm 0,0 UV-I 25 W/m 1,0 C 1,3 C 0,0 km/h (0 Bft) 95,74 %
07.02.2017 09:10 1,3 C 98 % 1018,7 hPa 0,0 l/m 0,0 km/h (0 Bft) SW 227 0 min 0,000 mm 0,0 UV-I 26 W/m 1,0 C 1,3 C 1,6 km/h (1 Bft) 100,00 %
07.02.2017 09:12 1,3 C 98 % 1018,6 hPa 0,0 l/m 0,0 km/h (0 Bft) SW 227 0 min 0,000 mm 0,0 UV-I 26 W/m 1,0 C 1,3 C 0,0 km/h (0 Bft) 100,00 %
07.02.2017 09:14 1,3 C 98 % 1018,6 hPa 0,0 l/m 0,0 km/h (0 Bft) SW 227 0 min 0,000 mm 0,0 UV-I 26 W/m 1,0 C 1,3 C 0,0 km/h (0 Bft) 100,00 %
07.02.2017 09:16 1,3 C 98 % 1018,5 hPa 0,0 l/m 0,3 km/h (0 Bft) SW 227 0 min 0,000 mm 0,0 UV-I 28 W/m 1,0 C 1,3 C 1,6 km/h (1 Bft) 93,62 %
07.02.2017 09:18 1,3 C 98 % 1018,5 hPa 0,0 l/m 1,1 km/h (1 Bft) SW 227 0 min 0,000 mm 0,0 UV-I 30 W/m 1,0 C 1,3 C 3,2 km/h (1 Bft) 89,47 %
07.02.2017 09:20 1,3 C 98 % 1018,5 hPa 0,0 l/m 1,1 km/h (1 Bft) SW 227 0 min 0,000 mm 0,0 UV-I 33 W/m 1,0 C 1,3 C 3,2 km/h (1 Bft) 97,73 %
07.02.2017 09:22 1,3 C 98 % 1018,5 hPa 0,0 l/m 1,5 km/h (1 Bft) SW 227 0 min 0,000 mm 0,0 UV-I 35 W/m 1,0 C 1,3 C 3,2 km/h (1 Bft) 100,00 %
07.02.2017 09:24 1,3 C 98 % 1018,5 hPa 0,0 l/m 1,1 km/h (1 Bft) SW 227 0 min 0,000 mm 0,0 UV-I 35 W/m 1,0 C 1,3 C 3,2 km/h (1 Bft) 97,37 %
07.02.2017 09:26 1,3 C 98 % 1018,5 hPa 0,0 l/m 0,0 km/h (0 Bft) SW 227 0 min 0,000 mm 0,0 UV-I 33 W/m 1,0 C 1,3 C 0,0 km/h (0 Bft) 96,23 %
07.02.2017 09:28 1,3 C 98 % 1018,5 hPa 0,0 l/m 0,0 km/h (0 Bft) SW 227 0 min 0,000 mm 0,0 UV-I 32 W/m 1,0 C 1,3 C 0,0 km/h (0 Bft) 97,87 %
07.02.2017 09:30 1,3 C 98 % 1018,6 hPa 0,0 l/m 0,0 km/h (0 Bft) SW 227 0 min 0,000 mm 0,0 UV-I 33 W/m 1,0 C 1,3 C 0,0 km/h (0 Bft) 96,00 %
07.02.2017 09:32 1,3 C 98 % 1018,5 hPa 0,0 l/m 0,0 km/h (0 Bft) SW 227 0 min 0,000 mm 0,0 UV-I 33 W/m 1,0 C 1,3 C 0,0 km/h (0 Bft) 94,74 %
07.02.2017 09:34 1,4 C 98 % 1018,5 hPa 0,0 l/m 0,0 km/h (0 Bft) SW 227 0 min 0,000 mm 0,0 UV-I 37 W/m 1,1 C 1,4 C 0,0 km/h (0 Bft) 98,11 %
07.02.2017 09:36 1,4 C 98 % 1018,5 hPa 0,0 l/m 0,0 km/h (0 Bft) SW 227 0 min 0,000 mm 0,0 UV-I 39 W/m 1,1 C 1,4 C 0,0 km/h (0 Bft) 100,00 %
07.02.2017 09:38 1,4 C 98 % 1018,5 hPa 0,0 l/m 0,0 km/h (0 Bft) SW 227 0 min 0,000 mm 0,0 UV-I 40 W/m 1,1 C 1,4 C 0,0 km/h (0 Bft) 92,11 %
07.02.2017 09:40 1,4 C 98 % 1018,5 hPa 0,0 l/m 0,0 km/h (0 Bft) SW 227 0 min 0,000 mm 0,0 UV-I 40 W/m 1,1 C 1,4 C 0,0 km/h (0 Bft) 100,00 %
07.02.2017 09:42 1,4 C 98 % 1018,5 hPa 0,0 l/m 0,0 km/h (0 Bft) SW 227 0 min 0,000 mm 0,0 UV-I 41 W/m 1,1 C 1,4 C 0,0 km/h (0 Bft) 96,00 %
07.02.2017 09:44 1,4 C 98 % 1018,5 hPa 0,0 l/m 0,0 km/h (0 Bft) SW 227 0 min 0,000 mm 0,0 UV-I 45 W/m 1,1 C 1,4 C 0,0 km/h (0 Bft) 98,00 %
07.02.2017 09:46 1,5 C 98 % 1018,5 hPa 0,0 l/m 0,0 km/h (0 Bft) SW 227 0 min 0,000 mm 0,0 UV-I 46 W/m 1,2 C 1,5 C 0,0 km/h (0 Bft) 100,00 %
07.02.2017 09:48 1,5 C 98 % 1018,5 hPa 0,0 l/m 0,0 km/h (0 Bft) SW 227 0 min 0,000 mm 0,0 UV-I 46 W/m 1,2 C 1,5 C 0,0 km/h (0 Bft) 100,00 %
07.02.2017 09:50 1,5 C 98 % 1018,5 hPa 0,0 l/m 0,0 km/h (0 Bft) SW 227 0 min 0,000 mm 0,0 UV-I 44 W/m 1,2 C 1,5 C 0,0 km/h (0 Bft) 98,00 %
07.02.2017 09:52 1,5 C 98 % 1018,5 hPa 0,0 l/m 0,0 km/h (0 Bft) SW 227 0 min 0,000 mm 0,0 UV-I 44 W/m 1,2 C 1,5 C 0,0 km/h (0 Bft) 98,00 %
07.02.2017 09:54 1,5 C 98 % 1018,5 hPa 0,0 l/m 0,0 km/h (0 Bft) SW 227 0 min 0,000 mm 0,0 UV-I 42 W/m 1,2 C 1,5 C 0,0 km/h (0 Bft) 96,00 %
07.02.2017 09:56 1,5 C 98 % 1018,5 hPa 0,0 l/m 0,0 km/h (0 Bft) SW 227 0 min 0,000 mm 0,0 UV-I 42 W/m 1,2 C 1,5 C 0,0 km/h (0 Bft) 100,00 %
07.02.2017 09:58 1,6 C 98 % 1018,5 hPa 0,0 l/m 0,6 km/h (0 Bft) SW 227 0 min 0,000 mm 0,0 UV-I 45 W/m 1,3 C 1,6 C 1,6 km/h (1 Bft) 100,00 %
07.02.2017 10:00 1,6 C 98 % 1018,5 hPa 0,0 l/m 0,0 km/h (0 Bft) SW 227 0 min 0,000 mm 0,0 UV-I 49 W/m 1,3 C 1,6 C 0,0 km/h (0 Bft) 97,87 %
07.02.2017 10:02 1,6 C 98 % 1018,5 hPa 0,0 l/m 0,0 km/h (0 Bft) SW 227 0 min 0,000 mm 0,0 UV-I 53 W/m 1,3 C 1,6 C 0,0 km/h (0 Bft) 100,00 %
07.02.2017 10:04 1,6 C 98 % 1018,4 hPa 0,0 l/m 0,0 km/h (0 Bft) SW 227 0 min 0,000 mm 0,0 UV-I 53 W/m 1,3 C 1,6 C 0,0 km/h (0 Bft) 100,00 %
07.02.2017 10:06 1,6 C 98 % 1018,5 hPa 0,0 l/m 0,0 km/h (0 Bft) SW 227 0 min 0,000 mm 0,0 UV-I 53 W/m 1,3 C 1,6 C 0,0 km/h (0 Bft) 97,37 %
07.02.2017 10:08 1,6 C 98 % 1018,5 hPa 0,0 l/m 0,0 km/h (0 Bft) SW 227 0 min 0,000 mm 0,0 UV-I 53 W/m 1,3 C 1,6 C 0,0 km/h (0 Bft) 97,87 %
07.02.2017 10:10 1,6 C 98 % 1018,4 hPa 0,0 l/m 0,0 km/h (0 Bft) SW 227 0 min 0,000 mm 0,0 UV-I 54 W/m 1,3 C 1,6 C 0,0 km/h (0 Bft) 94,00 %
07.02.2017 10:12 1,6 C 98 % 1018,5 hPa 0,0 l/m 0,0 km/h (0 Bft) SW 227 0 min 0,000 mm 0,0 UV-I 54 W/m 1,3 C 1,6 C 0,0 km/h (0 Bft) 96,00 %
07.02.2017 10:14 1,6 C 98 % 1018,5 hPa 0,0 l/m 0,0 km/h (0 Bft) SW 227 0 min 0,000 mm 0,0 UV-I 54 W/m 1,3 C 1,6 C 0,0 km/h (0 Bft) 95,74 %
07.02.2017 10:16 1,6 C 98 % 1018,4 hPa 0,0 l/m 0,0 km/h (0 Bft) SW 227 0 min 0,000 mm 0,0 UV-I 56 W/m 1,3 C 1,6 C 0,0 km/h (0 Bft) 97,14 %
07.02.2017 10:18 1,6 C 98 % 1018,4 hPa 0,0 l/m 0,0 km/h (0 Bft) SW 227 0 min 0,000 mm 0,0 UV-I 62 W/m 1,3 C 1,6 C 0,0 km/h (0 Bft) 100,00 %
07.02.2017 10:20 1,6 C 98 % 1018,4 hPa 0,0 l/m 0,0 km/h (0 Bft) SW 227 0 min 0,000 mm 0,0 UV-I 68 W/m 1,3 C 1,6 C 0,0 km/h (0 Bft) 96,20 %
07.02.2017 10:22 1,7 C 98 % 1018,4 hPa 0,0 l/m 0,0 km/h (0 Bft) SW 227 0 min 0,000 mm 0,0 UV-I 70 W/m 1,4 C 1,7 C 0,0 km/h (0 Bft) 93,62 %
07.02.2017 10:24 1,7 C 98 % 1018,4 hPa 0,0 l/m 0,0 km/h (0 Bft) SW 227 0 min 0,000 mm 0,0 UV-I 70 W/m 1,4 C 1,7 C 0,0 km/h (0 Bft) 100,00 %
07.02.2017 10:26 1,7 C 98 % 1018,4 hPa 0,0 l/m 0,0 km/h (0 Bft) SW 227 0 min 0,000 mm 0,0 UV-I 72 W/m 1,4 C 1,7 C 0,0 km/h (0 Bft) 97,87 %
07.02.2017 10:28 1,7 C 98 % 1018,4 hPa 0,0 l/m 0,0 km/h (0 Bft) SW 227 0 min 0,000 mm 0,0 UV-I 73 W/m 1,4 C 1,7 C 0,0 km/h (0 Bft) 95,83 %
07.02.2017 10:30 1,7 C 98 % 1018,4 hPa 0,0 l/m 0,0 km/h (0 Bft) SW 227 0 min 0,000 mm 0,0 UV-I 70 W/m 1,4 C 1,7 C 0,0 km/h (0 Bft) 93,62 %
07.02.2017 10:32 1,7 C 98 % 1018,4 hPa 0,0 l/m 0,0 km/h (0 Bft) SW 227 0 min 0,000 mm 0,0 UV-I 70 W/m 1,4 C 1,7 C 0,0 km/h (0 Bft) 94,00 %
07.02.2017 10:34 1,7 C 98 % 1018,4 hPa 0,0 l/m 0,0 km/h (0 Bft) SW 227 0 min 0,000 mm 0,0 UV-I 73 W/m 1,4 C 1,7 C 0,0 km/h (0 Bft) 95,74 %
07.02.2017 10:36 1,8 C 98 % 1018,4 hPa 0,0 l/m 0,0 km/h (0 Bft) SW 227 0 min 0,000 mm 0,0 UV-I 76 W/m 1,5 C 1,8 C 0,0 km/h (0 Bft) 92,00 %
07.02.2017 10:38 1,8 C 98 % 1018,4 hPa 0,0 l/m 0,0 km/h (0 Bft) SW 227 0 min 0,000 mm 0,0 UV-I 78 W/m 1,5 C 1,8 C 0,0 km/h (0 Bft) 93,62 %
07.02.2017 10:40 1,8 C 98 % 1018,4 hPa 0,0 l/m 0,0 km/h (0 Bft) SW 227 0 min 0,000 mm 0,0 UV-I 82 W/m 1,5 C 1,8 C 0,0 km/h (0 Bft) 97,14 %
07.02.2017 10:42 1,8 C 98 % 1018,4 hPa 0,0 l/m 0,0 km/h (0 Bft) SW 227 0 min 0,000 mm 0,0 UV-I 83 W/m 1,5 C 1,8 C 0,0 km/h (0 Bft) 96,00 %
07.02.2017 10:44 1,8 C 98 % 1018,4 hPa 0,0 l/m 0,0 km/h (0 Bft) SW 227 0 min 0,000 mm 0,0 UV-I 84 W/m 1,5 C 1,8 C 0,0 km/h (0 Bft) 94,00 %
07.02.2017 10:46 1,8 C 98 % 1018,5 hPa 0,0 l/m 0,0 km/h (0 Bft) SW 227 0 min 0,000 mm 0,0 UV-I 86 W/m 1,5 C 1,8 C 0,0 km/h (0 Bft) 95,74 %
07.02.2017 10:48 1,9 C 98 % 1018,5 hPa 0,0 l/m 0,0 km/h (0 Bft) SW 227 0 min 0,000 mm 0,0 UV-I 91 W/m 1,6 C 1,9 C 0,0 km/h (0 Bft) 94,00 %
07.02.2017 10:50 1,9 C 98 % 1018,4 hPa 0,0 l/m 0,0 km/h (0 Bft) SW 227 0 min 0,000 mm 0,0 UV-I 93 W/m 1,6 C 1,9 C 0,0 km/h (0 Bft) 95,74 %
07.02.2017 10:52 1,9 C 98 % 1018,5 hPa 0,0 l/m 0,0 km/h (0 Bft) SW 227 0 min 0,000 mm 0,0 UV-I 96 W/m 1,6 C 1,9 C 0,0 km/h (0 Bft) 89,47 %
07.02.2017 10:54 1,9 C 98 % 1018,4 hPa 0,0 l/m 0,0 km/h (0 Bft) SW 227 0 min 0,000 mm 0,0 UV-I 98 W/m 1,6 C 1,9 C 0,0 km/h (0 Bft) 96,00 %
07.02.2017 10:56 1,9 C 98 % 1018,4 hPa 0,0 l/m 0,0 km/h (0 Bft) SW 227 0 min 0,000 mm 0,0 UV-I 98 W/m 1,6 C 1,9 C 0,0 km/h (0 Bft) 98,00 %
07.02.2017 10:58 1,9 C 98 % 1018,4 hPa 0,0 l/m 0,0 km/h (0 Bft) SW 227 0 min 0,000 mm 0,0 UV-I 98 W/m 1,6 C 1,9 C 0,0 km/h (0 Bft) 94,34 %
07.02.2017 11:00 1,9 C 98 % 1018,4 hPa 0,0 l/m 0,0 km/h (0 Bft) SW 227 0 min 0,025 mm 0,0 UV-I 97 W/m 1,6 C 1,9 C 0,0 km/h (0 Bft) 100,00 %
07.02.2017 11:02 1,9 C 98 % 1018,4 hPa 0,0 l/m 0,0 km/h (0 Bft) SW 227 0 min 0,000 mm 0,0 UV-I 94 W/m 1,6 C 1,9 C 0,0 km/h (0 Bft) 91,49 %
07.02.2017 11:04 1,9 C 98 % 1018,4 hPa 0,0 l/m 0,0 km/h (0 Bft) SW 227 0 min 0,000 mm 0,0 UV-I 95 W/m 1,6 C 1,9 C 0,0 km/h (0 Bft) 98,11 %
07.02.2017 11:06 1,9 C 98 % 1018,3 hPa 0,0 l/m 0,0 km/h (0 Bft) SW 227 0 min 0,000 mm 0,0 UV-I 104 W/m 1,6 C 1,9 C 0,0 km/h (0 Bft) 97,73 %
07.02.2017 11:08 1,9 C 98 % 1018,4 hPa 0,0 l/m 0,0 km/h (0 Bft) SW 227 0 min 0,000 mm 0,0 UV-I 109 W/m 1,6 C 1,9 C 0,0 km/h (0 Bft) 97,87 %
07.02.2017 11:10 1,9 C 98 % 1018,4 hPa 0,0 l/m 0,0 km/h (0 Bft) SW 227 0 min 0,000 mm 0,0 UV-I 111 W/m 1,6 C 1,9 C 0,0 km/h (0 Bft) 100,00 %
07.02.2017 11:12 1,9 C 98 % 1018,4 hPa 0,0 l/m 0,0 km/h (0 Bft) SW 227 0 min 0,000 mm 0,0 UV-I 111 W/m 1,6 C 1,9 C 0,0 km/h (0 Bft) 97,44 %
07.02.2017 11:14 1,9 C 98 % 1018,3 hPa 0,0 l/m 0,0 km/h (0 Bft) SW 227 0 min 0,000 mm 0,0 UV-I 109 W/m 1,6 C 1,9 C 0,0 km/h (0 Bft) 96,30 %
07.02.2017 11:16 2,0 C 98 % 1018,3 hPa 0,0 l/m 0,8 km/h (0 Bft) SW 227 0 min 0,000 mm 0,0 UV-I 105 W/m 1,7 C 2,0 C 3,2 km/h (1 Bft) 97,87 %
07.02.2017 11:18 2,1 C 98 % 1018,4 hPa 0,0 l/m 1,2 km/h (1 Bft) SW 227 0 min 0,000 mm 0,0 UV-I 104 W/m 1,8 C 2,1 C 3,2 km/h (1 Bft) 100,00 %
07.02.2017 11:20 2,0 C 98 % 1018,4 hPa 0,0 l/m 1,6 km/h (1 Bft) SW 227 0 min 0,000 mm 0,0 UV-I 104 W/m 1,7 C 2,0 C 3,2 km/h (1 Bft) 100,00 %
07.02.2017 11:22 2,0 C 98 % 1018,3 hPa 0,0 l/m 0,3 km/h (0 Bft) SW 227 0 min 0,000 mm 0,0 UV-I 105 W/m 1,7 C 2,0 C 1,6 km/h (1 Bft) 98,00 %
07.02.2017 11:24 2,1 C 98 % 1018,3 hPa 0,0 l/m 0,0 km/h (0 Bft) SW 227 0 min 0,000 mm 0,0 UV-I 110 W/m 1,8 C 2,1 C 0,0 km/h (0 Bft) 96,23 %
07.02.2017 11:26 2,1 C 98 % 1018,3 hPa 0,0 l/m 0,8 km/h (0 Bft) SW 227 0 min 0,000 mm 0,0 UV-I 115 W/m 1,8 C 2,1 C 3,2 km/h (1 Bft) 97,87 %
07.02.2017 11:28 2,1 C 97 % 1018,3 hPa 0,0 l/m 1,2 km/h (1 Bft) SW 227 0 min 0,000 mm 0,0 UV-I 115 W/m 1,7 C 2,1 C 3,2 km/h (1 Bft) 97,14 %
07.02.2017 11:30 2,0 C 97 % 1018,3 hPa 0,0 l/m 0,0 km/h (0 Bft) SW 227 0 min 0,000 mm 0,0 UV-I 122 W/m 1,6 C 2,0 C 0,0 km/h (0 Bft) 98,11 %
07.02.2017 11:32 2,0 C 97 % 1018,3 hPa 0,0 l/m 0,0 km/h (0 Bft) SW 227 0 min 0,000 mm 0,0 UV-I 128 W/m 1,6 C 2,0 C 0,0 km/h (0 Bft) 100,00 %
07.02.2017 11:34 1,9 C 97 % 1018,2 hPa 0,0 l/m 0,1 km/h (0 Bft) SW 227 0 min 0,000 mm 0,0 UV-I 132 W/m 1,5 C 1,9 C 1,6 km/h (1 Bft) 97,56 %
07.02.2017 11:36 2,0 C 97 % 1018,2 hPa 0,0 l/m 1,5 km/h (1 Bft) SW 227 0 min 0,000 mm 0,0 UV-I 128 W/m 1,6 C 2,0 C 3,2 km/h (1 Bft) 100,00 %
07.02.2017 11:38 2,1 C 97 % 1018,2 hPa 0,0 l/m 2,3 km/h (1 Bft) SW 233 0 min 0,000 mm 0,0 UV-I 125 W/m 1,7 C 2,1 C 3,2 km/h (1 Bft) 100,00 %
07.02.2017 11:40 2,1 C 97 % 1018,2 hPa 0,0 l/m 0,4 km/h (0 Bft) SW 233 0 min 0,000 mm 0,1 UV-I 134 W/m 1,7 C 2,1 C 1,6 km/h (1 Bft) 100,00 %
07.02.2017 11:42 2,2 C 97 % 1018,1 hPa 0,0 l/m 0,0 km/h (0 Bft) SW 233 0 min 0,000 mm 0,5 UV-I 147 W/m 1,8 C 2,2 C 0,0 km/h (0 Bft) 100,00 %
07.02.2017 11:44 2,2 C 97 % 1018,1 hPa 0,0 l/m 0,0 km/h (0 Bft) SW 233 0 min 0,000 mm 0,5 UV-I 153 W/m 1,8 C 2,2 C 0,0 km/h (0 Bft) 98,00 %
07.02.2017 11:46 2,2 C 97 % 1018,1 hPa 0,0 l/m 0,0 km/h (0 Bft) SW 233 0 min 0,000 mm 0,5 UV-I 155 W/m 1,8 C 2,2 C 0,0 km/h (0 Bft) 97,87 %
07.02.2017 11:48 2,2 C 97 % 1018,2 hPa 0,0 l/m 0,6 km/h (0 Bft) SW 233 0 min 0,000 mm 0,5 UV-I 145 W/m 1,8 C 2,2 C 3,2 km/h (1 Bft) 100,00 %
07.02.2017 11:50 2,2 C 97 % 1018,2 hPa 0,0 l/m 2,6 km/h (1 Bft) W-SW 239 0 min 0,000 mm 0,0 UV-I 130 W/m 1,8 C 2,2 C 4,8 km/h (1 Bft) 100,00 %
07.02.2017 11:52 2,2 C 97 % 1018,2 hPa 0,0 l/m 1,4 km/h (1 Bft) W-SW 239 0 min 0,000 mm 0,4 UV-I 135 W/m 1,8 C 2,2 C 3,2 km/h (1 Bft) 98,00 %
07.02.2017 11:54 2,3 C 97 % 1018,2 hPa 0,0 l/m 0,4 km/h (0 Bft) W-SW 239 0 min 0,000 mm 0,5 UV-I 141 W/m 1,9 C 2,3 C 3,2 km/h (1 Bft) 95,74 %
07.02.2017 11:56 2,3 C 97 % 1018,1 hPa 0,0 l/m 0,1 km/h (0 Bft) W-SW 239 0 min 0,000 mm 0,5 UV-I 149 W/m 1,9 C 2,3 C 1,6 km/h (1 Bft) 96,00 %
07.02.2017 11:58 2,3 C 97 % 1018,1 hPa 0,0 l/m 0,0 km/h (0 Bft) W-SW 239 0 min 0,000 mm 0,5 UV-I 146 W/m 1,9 C 2,3 C 0,0 km/h (0 Bft) 96,00 %
07.02.2017 12:00 2,3 C 97 % 1018,2 hPa 0,0 l/m 0,2 km/h (0 Bft) W-SW 239 0 min 0,051 mm 0,5 UV-I 142 W/m 1,9 C 2,3 C 1,6 km/h (1 Bft) 100,00 %
07.02.2017 12:02 2,3 C 97 % 1018,1 hPa 0,0 l/m 0,2 km/h (0 Bft) W-SW 239 0 min 0,000 mm 0,5 UV-I 151 W/m 1,9 C 2,3 C 1,6 km/h (1 Bft) 95,12 %
07.02.2017 12:04 2,3 C 97 % 1018,0 hPa 0,0 l/m 0,0 km/h (0 Bft) W-SW 239 0 min 0,000 mm 0,5 UV-I 157 W/m 1,9 C 2,3 C 0,0 km/h (0 Bft) 98,00 %
07.02.2017 12:06 2,3 C 97 % 1018,0 hPa 0,0 l/m 0,0 km/h (0 Bft) W-SW 239 0 min 0,000 mm 0,5 UV-I 155 W/m 1,9 C 2,3 C 0,0 km/h (0 Bft) 95,74 %
07.02.2017 12:08 2,3 C 96 % 1018,0 hPa 0,0 l/m 0,0 km/h (0 Bft) W-SW 239 0 min 0,000 mm 0,5 UV-I 146 W/m 1,7 C 2,3 C 0,0 km/h (0 Bft) 100,00 %
07.02.2017 12:10 2,3 C 96 % 1018,0 hPa 0,0 l/m 0,1 km/h (0 Bft) W-SW 239 0 min 0,000 mm 0,5 UV-I 137 W/m 1,7 C 2,3 C 1,6 km/h (1 Bft) 96,00 %
07.02.2017 12:12 2,4 C 96 % 1018,0 hPa 0,0 l/m 0,7 km/h (0 Bft) W-SW 239 0 min 0,000 mm 0,0 UV-I 129 W/m 1,8 C 2,4 C 3,2 km/h (1 Bft) 100,00 %
07.02.2017 12:14 2,3 C 96 % 1018,0 hPa 0,0 l/m 2,1 km/h (1 Bft) S-SW 208 0 min 0,000 mm 0,0 UV-I 118 W/m 1,7 C 2,3 C 4,8 km/h (1 Bft) 100,00 %
07.02.2017 12:16 2,3 C 96 % 1018,0 hPa 0,0 l/m 1,6 km/h (1 Bft) SW 221 0 min 0,000 mm 0,0 UV-I 115 W/m 1,7 C 2,3 C 4,8 km/h (1 Bft) 93,62 %
07.02.2017 12:18 2,3 C 96 % 1017,9 hPa 0,0 l/m 1,1 km/h (1 Bft) SW 235 0 min 0,000 mm 0,0 UV-I 126 W/m 1,7 C 2,3 C 3,2 km/h (1 Bft) 98,00 %
07.02.2017 12:20 2,3 C 96 % 1017,9 hPa 0,0 l/m 0,0 km/h (0 Bft) SW 235 0 min 0,000 mm 0,5 UV-I 143 W/m 1,7 C 2,3 C 0,0 km/h (0 Bft) 95,74 %
07.02.2017 12:22 2,3 C 96 % 1017,9 hPa 0,0 l/m 0,0 km/h (0 Bft) SW 235 0 min 0,000 mm 0,5 UV-I 152 W/m 1,7 C 2,3 C 1,6 km/h (1 Bft) 95,74 %
07.02.2017 12:24 2,3 C 96 % 1017,9 hPa 0,0 l/m 0,0 km/h (0 Bft) SW 235 0 min 0,000 mm 0,5 UV-I 150 W/m 1,7 C 2,3 C 0,0 km/h (0 Bft) 97,67 %
07.02.2017 12:26 2,3 C 96 % 1017,9 hPa 0,0 l/m 0,0 km/h (0 Bft) SW 235 0 min 0,000 mm 0,5 UV-I 145 W/m 1,7 C 2,3 C 0,0 km/h (0 Bft) 93,62 %
07.02.2017 12:28 2,3 C 96 % 1017,9 hPa 0,0 l/m 0,0 km/h (0 Bft) SW 235 0 min 0,000 mm 0,5 UV-I 141 W/m 1,7 C 2,3 C 0,0 km/h (0 Bft) 97,92 %
07.02.2017 12:30 2,4 C 96 % 1017,9 hPa 0,0 l/m 0,0 km/h (0 Bft) SW 235 0 min 0,000 mm 0,5 UV-I 139 W/m 1,8 C 2,4 C 0,0 km/h (0 Bft) 97,37 %
07.02.2017 12:32 2,4 C 96 % 1017,8 hPa 0,0 l/m 0,0 km/h (0 Bft) SW 235 0 min 0,000 mm 0,5 UV-I 144 W/m 1,8 C 2,4 C 0,0 km/h (0 Bft) 94,64 %
07.02.2017 12:34 2,4 C 96 % 1017,8 hPa 0,0 l/m 0,0 km/h (0 Bft) SW 235 0 min 0,000 mm 0,5 UV-I 149 W/m 1,8 C 2,4 C 0,0 km/h (0 Bft) 93,62 %
07.02.2017 12:36 2,4 C 96 % 1017,8 hPa 0,0 l/m 0,0 km/h (0 Bft) SW 235 0 min 0,000 mm 0,5 UV-I 153 W/m 1,8 C 2,4 C 0,0 km/h (0 Bft) 94,34 %
07.02.2017 12:38 2,5 C 96 % 1017,8 hPa 0,0 l/m 0,0 km/h (0 Bft) SW 235 0 min 0,000 mm 0,5 UV-I 155 W/m 1,9 C 2,5 C 1,6 km/h (1 Bft) 97,37 %
07.02.2017 12:40 2,5 C 95 % 1017,8 hPa 0,0 l/m 0,0 km/h (0 Bft) SW 235 0 min 0,000 mm 0,5 UV-I 158 W/m 1,8 C 2,5 C 0,0 km/h (0 Bft) 96,00 %
07.02.2017 12:42 2,4 C 95 % 1017,8 hPa 0,0 l/m 0,0 km/h (0 Bft) SW 235 0 min 0,000 mm 0,5 UV-I 157 W/m 1,7 C 2,4 C 0,0 km/h (0 Bft) 97,87 %
07.02.2017 12:44 2,5 C 95 % 1017,8 hPa 0,0 l/m 0,0 km/h (0 Bft) SW 235 0 min 0,000 mm 0,5 UV-I 151 W/m 1,8 C 2,5 C 0,0 km/h (0 Bft) 97,73 %
07.02.2017 12:46 2,6 C 95 % 1017,8 hPa 0,0 l/m 0,0 km/h (0 Bft) SW 235 0 min 0,000 mm 0,5 UV-I 148 W/m 1,9 C 2,6 C 0,0 km/h (0 Bft) 94,00 %
07.02.2017 12:48 2,6 C 95 % 1017,8 hPa 0,0 l/m 0,0 km/h (0 Bft) SW 235 0 min 0,000 mm 0,5 UV-I 150 W/m 1,9 C 2,6 C 0,0 km/h (0 Bft) 95,74 %
07.02.2017 12:50 2,5 C 95 % 1017,9 hPa 0,0 l/m 0,0 km/h (0 Bft) SW 235 0 min 0,000 mm 0,5 UV-I 150 W/m 1,8 C 2,5 C 0,0 km/h (0 Bft) 96,00 %
07.02.2017 12:52 2,6 C 95 % 1017,8 hPa 0,0 l/m 0,0 km/h (0 Bft) SW 235 0 min 0,000 mm 0,5 UV-I 148 W/m 1,9 C 2,6 C 0,0 km/h (0 Bft) 97,87 %
07.02.2017 12:54 2,6 C 95 % 1017,8 hPa 0,0 l/m 0,1 km/h (0 Bft) SW 235 0 min 0,000 mm 0,5 UV-I 148 W/m 1,9 C 2,6 C 1,6 km/h (1 Bft) 97,87 %
07.02.2017 12:56 2,6 C 95 % 1017,8 hPa 0,0 l/m 0,0 km/h (0 Bft) SW 235 0 min 0,000 mm 0,5 UV-I 150 W/m 1,9 C 2,6 C 0,0 km/h (0 Bft) 97,37 %
07.02.2017 12:58 2,6 C 94 % 1017,8 hPa 0,0 l/m 0,0 km/h (0 Bft) SW 235 0 min 0,000 mm 0,5 UV-I 151 W/m 1,7 C 2,6 C 0,0 km/h (0 Bft) 95,74 %
07.02.2017 13:00 2,6 C 94 % 1017,8 hPa 0,0 l/m 0,0 km/h (0 Bft) SW 235 0 min 0,051 mm 0,5 UV-I 151 W/m 1,7 C 2,6 C 1,6 km/h (1 Bft) 96,00 %
07.02.2017 13:03 2,6 C 94 % 1017,7 hPa 0,0 l/m 0,0 km/h (0 Bft) SW 235 0 min 0,000 mm 0,5 UV-I 151 W/m 1,7 C 2,6 C 0,0 km/h (0 Bft) 91,89 %
07.02.2017 13:04 2,6 C 94 % 1017,7 hPa 0,0 l/m 0,0 km/h (0 Bft) SW 235 0 min 0,000 mm 0,5 UV-I 151 W/m 1,7 C 2,6 C 0,0 km/h (0 Bft) 96,15 %
07.02.2017 13:06 2,6 C 94 % 1017,6 hPa 0,0 l/m 0,0 km/h (0 Bft) SW 235 0 min 0,000 mm 0,5 UV-I 151 W/m 1,7 C 2,6 C 0,0 km/h (0 Bft) 97,22 %
07.02.2017 13:08 2,6 C 94 % 1017,6 hPa 0,0 l/m 0,0 km/h (0 Bft) SW 235 0 min 0,000 mm 0,5 UV-I 151 W/m 1,7 C 2,6 C 0,0 km/h (0 Bft) 98,00 %
07.02.2017 13:10 2,6 C 94 % 1017,6 hPa 0,0 l/m 0,0 km/h (0 Bft) SW 235 0 min 0,000 mm 0,5 UV-I 148 W/m 1,7 C 2,6 C 0,0 km/h (0 Bft) 97,87 %
07.02.2017 13:12 2,6 C 94 % 1017,7 hPa 0,0 l/m 0,1 km/h (0 Bft) SW 235 0 min 0,000 mm 0,4 UV-I 140 W/m 1,7 C 2,6 C 1,6 km/h (1 Bft) 98,18 %
07.02.2017 13:14 2,6 C 94 % 1017,7 hPa 0,0 l/m 0,0 km/h (0 Bft) SW 235 0 min 0,000 mm 0,0 UV-I 129 W/m 1,7 C 2,6 C 0,0 km/h (0 Bft) 100,00 %
07.02.2017 13:16 2,6 C 94 % 1017,7 hPa 0,0 l/m 0,0 km/h (0 Bft) SW 235 0 min 0,000 mm 0,0 UV-I 131 W/m 1,7 C 2,6 C 0,0 km/h (0 Bft) 97,87 %
07.02.2017 13:18 2,6 C 94 % 1017,6 hPa 0,0 l/m 0,1 km/h (0 Bft) SW 235 0 min 0,000 mm 0,0 UV-I 136 W/m 1,7 C 2,6 C 1,6 km/h (1 Bft) 100,00 %
07.02.2017 13:20 2,6 C 94 % 1017,6 hPa 0,0 l/m 1,2 km/h (1 Bft) SW 235 0 min 0,000 mm 0,4 UV-I 140 W/m 1,7 C 2,6 C 3,2 km/h (1 Bft) 98,00 %
07.02.2017 13:22 2,7 C 94 % 1017,6 hPa 0,0 l/m 2,0 km/h (1 Bft) SW 234 0 min 0,000 mm 0,5 UV-I 142 W/m 1,8 C 2,7 C 4,8 km/h (1 Bft) 95,74 %
07.02.2017 13:24 2,7 C 94 % 1017,6 hPa 0,0 l/m 2,7 km/h (1 Bft) O-NO 67 0 min 0,000 mm 0,5 UV-I 143 W/m 1,8 C 2,7 C 4,8 km/h (1 Bft) 100,00 %
07.02.2017 13:26 2,6 C 94 % 1017,6 hPa 0,0 l/m 2,9 km/h (1 Bft) O-NO 67 0 min 0,000 mm 0,5 UV-I 146 W/m 1,7 C 2,6 C 4,8 km/h (1 Bft) 98,00 %
07.02.2017 13:28 2,6 C 94 % 1017,6 hPa 0,0 l/m 3,5 km/h (1 Bft) O-NO 67 0 min 0,000 mm 0,5 UV-I 153 W/m 1,7 C 2,6 C 4,8 km/h (1 Bft) 98,00 %
07.02.2017 13:30 2,6 C 94 % 1017,5 hPa 0,0 l/m 3,0 km/h (1 Bft) O-NO 67 0 min 0,000 mm 0,5 UV-I 158 W/m 1,7 C 2,6 C 4,8 km/h (1 Bft) 96,00 %
07.02.2017 13:32 2,6 C 94 % 1017,5 hPa 0,0 l/m 4,0 km/h (1 Bft) O-NO 67 0 min 0,000 mm 0,5 UV-I 161 W/m 1,7 C 2,6 C 4,8 km/h (1 Bft) 95,45 %
07.02.2017 13:34 2,6 C 94 % 1017,5 hPa 0,0 l/m 3,7 km/h (1 Bft) NO 51 0 min 0,000 mm 0,5 UV-I 166 W/m 1,7 C 2,6 C 4,8 km/h (1 Bft) 95,12 %
07.02.2017 13:36 2,7 C 94 % 1017,5 hPa 0,0 l/m 3,8 km/h (1 Bft) NO 51 0 min 0,000 mm 0,5 UV-I 173 W/m 1,8 C 2,7 C 4,8 km/h (1 Bft) 96,00 %
07.02.2017 13:38 2,7 C 94 % 1017,5 hPa 0,0 l/m 3,1 km/h (1 Bft) NO 51 0 min 0,000 mm 0,5 UV-I 176 W/m 1,8 C 2,7 C 4,8 km/h (1 Bft) 93,62 %
07.02.2017 13:40 2,7 C 94 % 1017,5 hPa 0,0 l/m 3,0 km/h (1 Bft) NO 51 0 min 0,000 mm 0,5 UV-I 176 W/m 1,8 C 2,7 C 4,8 km/h (1 Bft) 94,00 %
07.02.2017 13:42 2,8 C 94 % 1017,5 hPa 0,0 l/m 3,1 km/h (1 Bft) NO 51 0 min 0,000 mm 0,5 UV-I 175 W/m 1,9 C 2,8 C 4,8 km/h (1 Bft) 95,12 %
07.02.2017 13:44 2,8 C 94 % 1017,5 hPa 0,0 l/m 3,2 km/h (1 Bft) NO 51 0 min 0,000 mm 0,5 UV-I 173 W/m 1,9 C 2,8 C 4,8 km/h (1 Bft) 96,00 %
07.02.2017 13:46 2,7 C 94 % 1017,6 hPa 0,0 l/m 2,8 km/h (1 Bft) NO 51 0 min 0,000 mm 0,5 UV-I 170 W/m 1,8 C 2,7 C 4,8 km/h (1 Bft) 100,00 %
07.02.2017 13:48 2,7 C 94 % 1017,6 hPa 0,0 l/m 2,8 km/h (1 Bft) NO 51 0 min 0,000 mm 0,5 UV-I 164 W/m 1,8 C 2,7 C 4,8 km/h (1 Bft) 97,37 %
07.02.2017 13:50 2,7 C 94 % 1017,6 hPa 0,0 l/m 2,7 km/h (1 Bft) NO 51 0 min 0,000 mm 0,5 UV-I 158 W/m 1,8 C 2,7 C 3,2 km/h (1 Bft) 100,00 %
07.02.2017 13:52 2,7 C 94 % 1017,5 hPa 0,0 l/m 1,0 km/h (0 Bft) NO 51 0 min 0,000 mm 0,5 UV-I 155 W/m 1,8 C 2,7 C 3,2 km/h (1 Bft) 91,49 %
07.02.2017 13:54 2,7 C 94 % 1017,5 hPa 0,0 l/m 1,0 km/h (0 Bft) NO 51 0 min 0,000 mm 0,4 UV-I 152 W/m 1,8 C 2,7 C 3,2 km/h (1 Bft) 100,00 %
07.02.2017 13:56 2,6 C 94 % 1017,5 hPa 0,0 l/m 1,0 km/h (0 Bft) NO 51 0 min 0,000 mm 0,0 UV-I 148 W/m 1,7 C 2,6 C 1,6 km/h (1 Bft) 100,00 %
07.02.2017 13:58 2,6 C 94 % 1017,5 hPa 0,0 l/m 1,6 km/h (1 Bft) NO 51 0 min 0,000 mm 0,0 UV-I 144 W/m 1,7 C 2,6 C 3,2 km/h (1 Bft) 98,00 %
07.02.2017 14:00 2,6 C 94 % 1017,6 hPa 0,0 l/m 0,3 km/h (0 Bft) NO 51 0 min 0,000 mm 0,0 UV-I 141 W/m 1,7 C 2,6 C 3,2 km/h (1 Bft) 94,34 %
07.02.2017 14:02 2,6 C 94 % 1017,5 hPa 0,0 l/m 2,2 km/h (1 Bft) NO 51 0 min 0,051 mm 0,0 UV-I 140 W/m 1,7 C 2,6 C 4,8 km/h (1 Bft) 100,00 %
07.02.2017 14:04 2,7 C 94 % 1017,5 hPa 0,0 l/m 2,2 km/h (1 Bft) NO 51 0 min 0,000 mm 0,0 UV-I 142 W/m 1,8 C 2,7 C 3,2 km/h (1 Bft) 94,64 %
07.02.2017 14:06 2,7 C 94 % 1017,4 hPa 0,0 l/m 2,3 km/h (1 Bft) NO 51 0 min 0,000 mm 0,0 UV-I 143 W/m 1,8 C 2,7 C 3,2 km/h (1 Bft) 95,74 %
07.02.2017 14:08 2,7 C 94 % 1017,5 hPa 0,0 l/m 0,6 km/h (0 Bft) NO 51 0 min 0,000 mm 0,0 UV-I 142 W/m 1,8 C 2,7 C 3,2 km/h (1 Bft) 94,74 %
07.02.2017 14:10 2,6 C 94 % 1017,4 hPa 0,0 l/m 0,0 km/h (0 Bft) NO 51 0 min 0,000 mm 0,0 UV-I 141 W/m 1,7 C 2,6 C 0,0 km/h (0 Bft) 92,45 %
07.02.2017 14:12 2,5 C 94 % 1017,5 hPa 0,0 l/m 0,0 km/h (0 Bft) NO 51 0 min 0,000 mm 0,0 UV-I 138 W/m 1,6 C 2,5 C 0,0 km/h (0 Bft) 93,62 %
07.02.2017 14:14 2,5 C 95 % 1017,5 hPa 0,0 l/m 0,0 km/h (0 Bft) NO 51 0 min 0,000 mm 0,0 UV-I 136 W/m 1,8 C 2,5 C 0,0 km/h (0 Bft) 98,00 %
07.02.2017 14:16 2,6 C 95 % 1017,5 hPa 0,0 l/m 0,0 km/h (0 Bft) NO 51 0 min 0,000 mm 0,0 UV-I 135 W/m 1,9 C 2,6 C 0,0 km/h (0 Bft) 95,12 %
07.02.2017 14:18 2,7 C 94 % 1017,4 hPa 0,0 l/m 0,0 km/h (0 Bft) NO 51 0 min 0,000 mm 0,0 UV-I 134 W/m 1,8 C 2,7 C 0,0 km/h (0 Bft) 95,74 %
07.02.2017 14:20 2,7 C 94 % 1017,4 hPa 0,0 l/m 0,0 km/h (0 Bft) NO 51 0 min 0,000 mm 0,0 UV-I 134 W/m 1,8 C 2,7 C 0,0 km/h (0 Bft) 97,87 %
07.02.2017 14:22 2,7 C 94 % 1017,4 hPa 0,0 l/m 0,0 km/h (0 Bft) NO 51 0 min 0,000 mm 0,0 UV-I 132 W/m 1,8 C 2,7 C 0,0 km/h (0 Bft) 98,00 %
07.02.2017 14:24 2,7 C 94 % 1017,4 hPa 0,0 l/m 0,0 km/h (0 Bft) NO 51 0 min 0,000 mm 0,0 UV-I 130 W/m 1,8 C 2,7 C 0,0 km/h (0 Bft) 97,87 %
07.02.2017 14:26 2,6 C 94 % 1017,4 hPa 0,0 l/m 0,0 km/h (0 Bft) NO 51 0 min 0,000 mm 0,0 UV-I 129 W/m 1,7 C 2,6 C 0,0 km/h (0 Bft) 97,87 %
07.02.2017 14:28 2,7 C 94 % 1017,4 hPa 0,0 l/m 0,0 km/h (0 Bft) NO 51 0 min 0,000 mm 0,0 UV-I 127 W/m 1,8 C 2,7 C 0,0 km/h (0 Bft) 100,00 %
07.02.2017 14:30 2,7 C 94 % 1017,4 hPa 0,0 l/m 0,0 km/h (0 Bft) NO 51 0 min 0,000 mm 0,0 UV-I 125 W/m 1,8 C 2,7 C 0,0 km/h (0 Bft) 100,00 %
07.02.2017 14:32 2,7 C 94 % 1017,5 hPa 0,0 l/m 0,0 km/h (0 Bft) NO 51 0 min 0,000 mm 0,0 UV-I 123 W/m 1,8 C 2,7 C 0,0 km/h (0 Bft) 95,74 %
07.02.2017 14:34 2,7 C 94 % 1017,5 hPa 0,0 l/m 0,0 km/h (0 Bft) NO 51 0 min 0,000 mm 0,0 UV-I 121 W/m 1,8 C 2,7 C 0,0 km/h (0 Bft) 96,00 %
07.02.2017 14:36 2,7 C 94 % 1017,4 hPa 0,0 l/m 0,0 km/h (0 Bft) NO 51 0 min 0,000 mm 0,0 UV-I 119 W/m 1,8 C 2,7 C 0,0 km/h (0 Bft) 93,62 %
07.02.2017 14:38 2,7 C 94 % 1017,5 hPa 0,0 l/m 0,0 km/h (0 Bft) NO 51 0 min 0,000 mm 0,0 UV-I 118 W/m 1,8 C 2,7 C 0,0 km/h (0 Bft) 98,11 %
07.02.2017 14:40 2,7 C 94 % 1017,5 hPa 0,0 l/m 0,0 km/h (0 Bft) NO 51 0 min 0,000 mm 0,0 UV-I 118 W/m 1,8 C 2,7 C 0,0 km/h (0 Bft) 100,00 %
07.02.2017 14:42 2,6 C 94 % 1017,4 hPa 0,0 l/m 0,0 km/h (0 Bft) NO 51 0 min 0,000 mm 0,0 UV-I 117 W/m 1,7 C 2,6 C 0,0 km/h (0 Bft) 92,68 %
07.02.2017 14:44 2,6 C 94 % 1017,5 hPa 0,0 l/m 0,0 km/h (0 Bft) NO 51 0 min 0,000 mm 0,0 UV-I 113 W/m 1,7 C 2,6 C 0,0 km/h (0 Bft) 98,11 %
07.02.2017 14:46 2,6 C 94 % 1017,5 hPa 0,0 l/m 0,0 km/h (0 Bft) NO 51 0 min 0,000 mm 0,0 UV-I 107 W/m 1,7 C 2,6 C 0,0 km/h (0 Bft) 94,29 %
07.02.2017 14:48 2,6 C 94 % 1017,4 hPa 0,0 l/m 0,0 km/h (0 Bft) NO 51 0 min 0,000 mm 0,0 UV-I 103 W/m 1,7 C 2,6 C 0,0 km/h (0 Bft) 92,00 %
07.02.2017 14:50 2,6 C 94 % 1017,5 hPa 0,0 l/m 2,8 km/h (1 Bft) NO 51 0 min 0,000 mm 0,0 UV-I 97 W/m 1,7 C 2,6 C 4,8 km/h (1 Bft) 92,45 %
07.02.2017 14:52 2,6 C 94 % 1017,5 hPa 0,0 l/m 1,9 km/h (1 Bft) NO 51 0 min 0,000 mm 0,0 UV-I 93 W/m 1,7 C 2,6 C 3,2 km/h (1 Bft) 97,37 %
07.02.2017 14:54 2,6 C 95 % 1017,4 hPa 0,0 l/m 2,6 km/h (1 Bft) NO 51 0 min 0,000 mm 0,0 UV-I 87 W/m 1,9 C 2,6 C 4,8 km/h (1 Bft) 93,62 %
07.02.2017 14:56 2,6 C 95 % 1017,5 hPa 0,0 l/m 2,6 km/h (1 Bft) NO 51 0 min 0,000 mm 0,0 UV-I 80 W/m 1,9 C 2,6 C 4,8 km/h (1 Bft) 96,00 %
07.02.2017 14:58 2,6 C 95 % 1017,5 hPa 0,0 l/m 0,8 km/h (0 Bft) NO 51 0 min 0,000 mm 0,0 UV-I 77 W/m 1,9 C 2,6 C 1,6 km/h (1 Bft) 94,00 %
07.02.2017 15:00 2,6 C 95 % 1017,5 hPa 0,0 l/m 1,5 km/h (1 Bft) NO 51 0 min 0,051 mm 0,0 UV-I 75 W/m 1,9 C 2,6 C 3,2 km/h (1 Bft) 94,00 %
07.02.2017 15:02 2,6 C 95 % 1017,5 hPa 0,0 l/m 3,7 km/h (1 Bft) NO 51 0 min 0,000 mm 0,0 UV-I 73 W/m 1,9 C 2,6 C 4,8 km/h (1 Bft) 91,67 %
07.02.2017 15:04 2,4 C 94 % 1017,5 hPa 0,0 l/m 2,5 km/h (1 Bft) NO 51 0 min 0,000 mm 0,0 UV-I 71 W/m 1,5 C 2,4 C 4,8 km/h (1 Bft) 93,75 %
07.02.2017 15:06 2,5 C 95 % 1017,5 hPa 0,0 l/m 2,5 km/h (1 Bft) NO 51 0 min 0,000 mm 0,0 UV-I 67 W/m 1,8 C 2,5 C 4,8 km/h (1 Bft) 97,87 %
07.02.2017 15:08 2,5 C 95 % 1017,5 hPa 0,0 l/m 3,6 km/h (1 Bft) NO 51 0 min 0,000 mm 0,0 UV-I 62 W/m 1,8 C 2,5 C 4,8 km/h (1 Bft) 96,00 %
07.02.2017 15:10 2,5 C 95 % 1017,4 hPa 0,0 l/m 4,2 km/h (1 Bft) NO 51 0 min 0,000 mm 0,0 UV-I 60 W/m 1,8 C 2,5 C 4,8 km/h (1 Bft) 92,00 %
07.02.2017 15:12 2,5 C 95 % 1017,4 hPa 0,0 l/m 5,2 km/h (1 Bft) O-NO 66 0 min 0,000 mm 0,0 UV-I 62 W/m 1,8 C 2,5 C 8,0 km/h (2 Bft) 97,62 %
07.02.2017 15:14 2,4 C 94 % 1017,4 hPa 0,0 l/m 5,1 km/h (1 Bft) O-NO 68 0 min 0,000 mm 0,0 UV-I 63 W/m 1,5 C 2,4 C 8,0 km/h (2 Bft) 95,12 %
07.02.2017 15:16 2,3 C 95 % 1017,4 hPa 0,0 l/m 3,3 km/h (1 Bft) O-NO 69 0 min 0,000 mm 0,0 UV-I 63 W/m 1,6 C 2,3 C 6,4 km/h (2 Bft) 94,00 %
07.02.2017 15:18 2,3 C 95 % 1017,5 hPa 0,0 l/m 1,2 km/h (1 Bft) O-NO 69 0 min 0,000 mm 0,0 UV-I 61 W/m 1,6 C 2,3 C 4,8 km/h (1 Bft) 94,34 %
07.02.2017 15:20 2,3 C 95 % 1017,4 hPa 0,0 l/m 2,2 km/h (1 Bft) O-NO 69 0 min 0,000 mm 0,0 UV-I 57 W/m 1,6 C 2,3 C 4,8 km/h (1 Bft) 93,62 %
07.02.2017 15:22 2,3 C 95 % 1017,5 hPa 0,0 l/m 3,1 km/h (1 Bft) O-NO 69 0 min 0,000 mm 0,0 UV-I 53 W/m 1,6 C 2,3 C 4,8 km/h (1 Bft) 89,47 %
07.02.2017 15:24 2,4 C 95 % 1017,5 hPa 0,0 l/m 3,3 km/h (1 Bft) O-NO 68 0 min 0,000 mm 0,0 UV-I 49 W/m 1,7 C 2,4 C 4,8 km/h (1 Bft) 94,00 %
07.02.2017 15:26 2,4 C 95 % 1017,5 hPa 0,0 l/m 4,0 km/h (1 Bft) O-NO 68 0 min 0,000 mm 0,0 UV-I 49 W/m 1,7 C 2,4 C 6,4 km/h (2 Bft) 100,00 %
07.02.2017 15:28 2,3 C 95 % 1017,5 hPa 0,0 l/m 5,1 km/h (1 Bft) O-NO 70 0 min 0,000 mm 0,0 UV-I 51 W/m 1,6 C 2,3 C 8,0 km/h (2 Bft) 97,56 %
07.02.2017 15:30 2,3 C 95 % 1017,5 hPa 0,0 l/m 5,6 km/h (1 Bft) O-NO 70 0 min 0,000 mm 0,0 UV-I 53 W/m 1,6 C 2,3 C 6,4 km/h (2 Bft) 94,00 %
07.02.2017 15:32 2,3 C 95 % 1017,6 hPa 0,0 l/m 5,1 km/h (1 Bft) O-NO 69 0 min 0,000 mm 0,0 UV-I 51 W/m 1,6 C 2,3 C 6,4 km/h (2 Bft) 95,74 %
07.02.2017 15:34 2,3 C 95 % 1017,6 hPa 0,0 l/m 4,4 km/h (1 Bft) O-NO 69 0 min 0,000 mm 0,0 UV-I 52 W/m 1,6 C 2,3 C 4,8 km/h (1 Bft) 95,74 %
07.02.2017 15:36 2,3 C 95 % 1017,6 hPa 0,0 l/m 5,3 km/h (1 Bft) O-NO 68 0 min 0,000 mm 0,0 UV-I 53 W/m 1,6 C 2,3 C 6,4 km/h (2 Bft) 98,00 %
07.02.2017 15:38 2,3 C 95 % 1017,5 hPa 0,0 l/m 5,1 km/h (1 Bft) O-NO 64 0 min 0,000 mm 0,0 UV-I 53 W/m 1,6 C 2,3 C 6,4 km/h (2 Bft) 97,73 %
07.02.2017 15:40 2,3 C 95 % 1017,6 hPa 0,0 l/m 5,3 km/h (1 Bft) O-NO 65 0 min 0,000 mm 0,0 UV-I 53 W/m 1,6 C 2,3 C 8,0 km/h (2 Bft) 100,00 %
07.02.2017 15:42 2,2 C 95 % 1017,5 hPa 0,0 l/m 6,0 km/h (2 Bft) O-NO 69 0 min 0,000 mm 0,0 UV-I 53 W/m 1,5 C 2,2 C 9,7 km/h (2 Bft) 96,30 %
07.02.2017 15:44 2,2 C 95 % 1017,5 hPa 0,0 l/m 6,0 km/h (2 Bft) O-NO 70 0 min 0,000 mm 0,0 UV-I 53 W/m 1,5 C 2,2 C 8,0 km/h (2 Bft) 100,00 %
07.02.2017 15:46 2,2 C 95 % 1017,6 hPa 0,0 l/m 6,5 km/h (2 Bft) O-NO 71 0 min 0,000 mm 0,0 UV-I 53 W/m 1,5 C 2,1 C 8,0 km/h (2 Bft) 97,62 %
07.02.2017 15:48 2,2 C 95 % 1017,6 hPa 0,0 l/m 4,9 km/h (1 Bft) O-NO 62 0 min 0,000 mm 0,0 UV-I 52 W/m 1,5 C 2,2 C 6,4 km/h (2 Bft) 98,00 %
07.02.2017 15:50 2,1 C 95 % 1017,6 hPa 0,0 l/m 4,0 km/h (1 Bft) O-NO 64 0 min 0,000 mm 0,0 UV-I 50 W/m 1,4 C 2,1 C 6,4 km/h (2 Bft) 100,00 %
07.02.2017 15:52 2,1 C 95 % 1017,6 hPa 0,0 l/m 4,1 km/h (1 Bft) NO 56 0 min 0,000 mm 0,0 UV-I 49 W/m 1,4 C 2,1 C 6,4 km/h (2 Bft) 96,00 %
07.02.2017 15:54 2,1 C 95 % 1017,6 hPa 0,0 l/m 5,1 km/h (1 Bft) NO 55 0 min 0,000 mm 0,0 UV-I 49 W/m 1,4 C 2,1 C 6,4 km/h (2 Bft) 97,87 %
07.02.2017 15:56 2,1 C 95 % 1017,6 hPa 0,0 l/m 4,7 km/h (1 Bft) NO 55 0 min 0,000 mm 0,0 UV-I 49 W/m 1,4 C 2,1 C 6,4 km/h (2 Bft) 100,00 %
07.02.2017 15:58 2,1 C 95 % 1017,6 hPa 0,0 l/m 5,4 km/h (1 Bft) NO 56 0 min 0,000 mm 0,0 UV-I 48 W/m 1,4 C 2,1 C 8,0 km/h (2 Bft) 97,14 %
07.02.2017 16:00 2,1 C 96 % 1017,6 hPa 0,0 l/m 5,0 km/h (1 Bft) O-NO 62 0 min 0,025 mm 0,0 UV-I 47 W/m 1,5 C 2,1 C 6,4 km/h (2 Bft) 100,00 %
07.02.2017 16:02 2,1 C 95 % 1017,6 hPa 0,0 l/m 4,9 km/h (1 Bft) O-NO 63 0 min 0,000 mm 0,0 UV-I 46 W/m 1,4 C 2,1 C 8,0 km/h (2 Bft) 100,00 %
07.02.2017 16:04 2,1 C 95 % 1017,6 hPa 0,0 l/m 4,8 km/h (1 Bft) O-NO 63 0 min 0,000 mm 0,0 UV-I 46 W/m 1,4 C 2,1 C 6,4 km/h (2 Bft) 100,00 %
07.02.2017 16:06 2,1 C 95 % 1017,6 hPa 0,0 l/m 4,3 km/h (1 Bft) O-NO 64 0 min 0,000 mm 0,0 UV-I 44 W/m 1,4 C 2,1 C 6,4 km/h (2 Bft) 97,73 %
07.02.2017 16:08 2,0 C 95 % 1017,6 hPa 0,0 l/m 3,8 km/h (1 Bft) O-NO 65 0 min 0,000 mm 0,0 UV-I 44 W/m 1,3 C 2,0 C 4,8 km/h (1 Bft) 97,56 %
07.02.2017 16:10 2,0 C 95 % 1017,6 hPa 0,0 l/m 2,3 km/h (1 Bft) O-NO 65 0 min 0,000 mm 0,0 UV-I 43 W/m 1,3 C 2,0 C 4,8 km/h (1 Bft) 98,00 %
07.02.2017 16:12 2,0 C 96 % 1017,6 hPa 0,0 l/m 2,4 km/h (1 Bft) O-NO 65 0 min 0,000 mm 0,0 UV-I 40 W/m 1,4 C 2,0 C 4,8 km/h (1 Bft) 98,11 %
07.02.2017 16:14 1,9 C 96 % 1017,7 hPa 0,0 l/m 3,2 km/h (1 Bft) O-NO 65 0 min 0,000 mm 0,0 UV-I 36 W/m 1,3 C 1,9 C 4,8 km/h (1 Bft) 95,12 %
07.02.2017 16:16 2,0 C 96 % 1017,6 hPa 0,0 l/m 2,2 km/h (1 Bft) O-NO 65 0 min 0,000 mm 0,0 UV-I 29 W/m 1,4 C 2,0 C 3,2 km/h (1 Bft) 100,00 %
07.02.2017 16:18 2,1 C 96 % 1017,6 hPa 0,0 l/m 4,5 km/h (1 Bft) O-NO 66 0 min 0,000 mm 0,0 UV-I 22 W/m 1,5 C 2,1 C 8,0 km/h (2 Bft) 98,00 %
07.02.2017 16:20 2,1 C 96 % 1017,6 hPa 0,0 l/m 2,1 km/h (1 Bft) O-NO 66 0 min 0,000 mm 0,0 UV-I 24 W/m 1,5 C 2,1 C 3,2 km/h (1 Bft) 97,56 %
07.02.2017 16:22 2,0 C 96 % 1017,6 hPa 0,0 l/m 1,7 km/h (1 Bft) O-NO 66 0 min 0,000 mm 0,0 UV-I 31 W/m 1,4 C 2,0 C 3,2 km/h (1 Bft) 100,00 %
07.02.2017 16:24 2,0 C 96 % 1017,7 hPa 0,0 l/m 1,0 km/h (0 Bft) O-NO 66 0 min 0,000 mm 0,0 UV-I 35 W/m 1,4 C 2,0 C 3,2 km/h (1 Bft) 100,00 %
07.02.2017 16:26 2,0 C 96 % 1017,7 hPa 0,0 l/m 3,4 km/h (1 Bft) O-NO 61 0 min 0,000 mm 0,0 UV-I 35 W/m 1,4 C 2,0 C 6,4 km/h (2 Bft) 100,00 %
07.02.2017 16:28 2,0 C 96 % 1017,6 hPa 0,0 l/m 5,0 km/h (1 Bft) O-NO 72 0 min 0,000 mm 0,0 UV-I 35 W/m 1,4 C 2,0 C 6,4 km/h (2 Bft) 94,00 %
07.02.2017 16:30 2,0 C 96 % 1017,6 hPa 0,0 l/m 4,0 km/h (1 Bft) O-NO 72 0 min 0,000 mm 0,0 UV-I 33 W/m 1,4 C 2,0 C 8,0 km/h (2 Bft) 100,00 %
07.02.2017 16:32 1,9 C 96 % 1017,6 hPa 0,0 l/m 2,3 km/h (1 Bft) O-NO 72 0 min 0,000 mm 0,0 UV-I 33 W/m 1,3 C 1,9 C 4,8 km/h (1 Bft) 98,00 %
07.02.2017 16:34 1,9 C 96 % 1017,6 hPa 0,0 l/m 1,3 km/h (1 Bft) O-NO 72 0 min 0,000 mm 0,0 UV-I 32 W/m 1,3 C 1,9 C 4,8 km/h (1 Bft) 89,47 %
07.02.2017 16:36 1,9 C 96 % 1017,6 hPa 0,0 l/m 1,4 km/h (1 Bft) O-NO 72 0 min 0,000 mm 0,0 UV-I 30 W/m 1,3 C 1,9 C 3,2 km/h (1 Bft) 100,00 %
07.02.2017 16:38 1,9 C 96 % 1017,6 hPa 0,0 l/m 1,6 km/h (1 Bft) O-NO 72 0 min 0,000 mm 0,0 UV-I 28 W/m 1,3 C 1,9 C 3,2 km/h (1 Bft) 100,00 %
07.02.2017 16:40 1,9 C 96 % 1017,6 hPa 0,0 l/m 3,2 km/h (1 Bft) O-NO 72 0 min 0,000 mm 0,0 UV-I 27 W/m 1,3 C 1,9 C 4,8 km/h (1 Bft) 94,34 %
07.02.2017 16:42 1,8 C 96 % 1017,6 hPa 0,0 l/m 6,0 km/h (2 Bft) O 82 0 min 0,000 mm 0,0 UV-I 25 W/m 1,2 C 1,8 C 8,0 km/h (2 Bft) 94,74 %
07.02.2017 16:44 1,8 C 96 % 1017,6 hPa 0,0 l/m 5,3 km/h (1 Bft) O 80 0 min 0,000 mm 0,0 UV-I 22 W/m 1,2 C 1,8 C 6,4 km/h (2 Bft) 100,00 %
07.02.2017 16:46 1,8 C 96 % 1017,6 hPa 0,0 l/m 5,4 km/h (1 Bft) O 89 0 min 0,000 mm 0,0 UV-I 21 W/m 1,2 C 1,8 C 8,0 km/h (2 Bft) 91,49 %
07.02.2017 16:48 1,8 C 96 % 1017,7 hPa 0,0 l/m 4,4 km/h (1 Bft) O-NO 78 0 min 0,000 mm 0,0 UV-I 19 W/m 1,2 C 1,8 C 6,4 km/h (2 Bft) 91,49 %
07.02.2017 16:50 1,8 C 96 % 1017,7 hPa 0,0 l/m 1,9 km/h (1 Bft) O-NO 78 0 min 0,000 mm 0,0 UV-I 18 W/m 1,2 C 1,8 C 3,2 km/h (1 Bft) 100,00 %
07.02.2017 16:52 1,8 C 96 % 1017,7 hPa 0,0 l/m 3,3 km/h (1 Bft) O-NO 77 0 min 0,000 mm 0,0 UV-I 16 W/m 1,2 C 1,8 C 6,4 km/h (2 Bft) 95,74 %
07.02.2017 16:54 1,8 C 97 % 1017,7 hPa 0,0 l/m 5,0 km/h (1 Bft) O-NO 72 0 min 0,000 mm 0,0 UV-I 13 W/m 1,4 C 1,8 C 8,0 km/h (2 Bft) 91,67 %
07.02.2017 16:56 1,8 C 97 % 1017,7 hPa 0,0 l/m 5,0 km/h (1 Bft) O-NO 77 0 min 0,000 mm 0,0 UV-I 11 W/m 1,4 C 1,8 C 8,0 km/h (2 Bft) 100,00 %
07.02.2017 16:58 1,8 C 97 % 1017,8 hPa 0,0 l/m 5,2 km/h (1 Bft) O-NO 73 0 min 0,000 mm 0,0 UV-I 10 W/m 1,4 C 1,8 C 6,4 km/h (2 Bft) 95,74 %
07.02.2017 17:00 1,8 C 97 % 1017,8 hPa 0,0 l/m 4,6 km/h (1 Bft) O-NO 76 0 min 0,000 mm 0,0 UV-I 9 W/m 1,4 C 1,8 C 6,4 km/h (2 Bft) 92,00 %
07.02.2017 17:02 1,8 C 96 % 1017,8 hPa 0,0 l/m 4,1 km/h (1 Bft) O-NO 65 0 min 0,000 mm 0,0 UV-I 8 W/m 1,2 C 1,8 C 6,4 km/h (2 Bft) 97,44 %
07.02.2017 17:04 1,8 C 96 % 1017,8 hPa 0,0 l/m 1,2 km/h (1 Bft) O-NO 65 0 min 0,000 mm 0,0 UV-I 7 W/m 1,2 C 1,8 C 3,2 km/h (1 Bft) 90,00 %
07.02.2017 17:06 1,8 C 96 % 1017,8 hPa 0,0 l/m 1,8 km/h (1 Bft) O-NO 65 0 min 0,000 mm 0,0 UV-I 7 W/m 1,2 C 1,8 C 3,2 km/h (1 Bft) 93,62 %
07.02.2017 17:08 1,7 C 96 % 1017,8 hPa 0,0 l/m 2,8 km/h (1 Bft) O-NO 67 0 min 0,000 mm 0,0 UV-I 6 W/m 1,1 C 1,7 C 6,4 km/h (2 Bft) 95,74 %
07.02.2017 17:10 1,7 C 96 % 1017,8 hPa 0,0 l/m 2,1 km/h (1 Bft) O-NO 67 0 min 0,000 mm 0,0 UV-I 5 W/m 1,1 C 1,7 C 3,2 km/h (1 Bft) 96,36 %
07.02.2017 17:12 1,7 C 96 % 1017,8 hPa 0,0 l/m 2,4 km/h (1 Bft) O-NO 67 0 min 0,000 mm 0,0 UV-I 5 W/m 1,1 C 1,7 C 4,8 km/h (1 Bft) 93,75 %
07.02.2017 17:14 1,7 C 96 % 1017,8 hPa 0,0 l/m 1,5 km/h (1 Bft) O-NO 67 0 min 0,000 mm 0,0 UV-I 5 W/m 1,1 C 1,7 C 3,2 km/h (1 Bft) 92,31 %
07.02.2017 17:16 1,7 C 96 % 1017,8 hPa 0,0 l/m 1,3 km/h (1 Bft) O-NO 67 0 min 0,000 mm 0,0 UV-I 5 W/m 1,1 C 1,7 C 3,2 km/h (1 Bft) 89,36 %
07.02.2017 17:18 1,7 C 96 % 1017,8 hPa 0,0 l/m 2,3 km/h (1 Bft) O-NO 67 0 min 0,000 mm 0,0 UV-I 5 W/m 1,1 C 1,7 C 3,2 km/h (1 Bft) 89,36 %
07.02.2017 17:20 1,6 C 97 % 1017,8 hPa 0,0 l/m 3,0 km/h (1 Bft) O-NO 67 0 min 0,000 mm 0,0 UV-I 3 W/m 1,2 C 1,6 C 4,8 km/h (1 Bft) 97,87 %
07.02.2017 17:22 1,6 C 97 % 1017,8 hPa 0,0 l/m 3,4 km/h (1 Bft) O-NO 67 0 min 0,000 mm 0,0 UV-I 0 W/m 1,2 C 1,6 C 4,8 km/h (1 Bft) 92,00 %
07.02.2017 17:24 1,6 C 97 % 1017,8 hPa 0,0 l/m 1,9 km/h (1 Bft) O-NO 67 0 min 0,000 mm 0,0 UV-I 0 W/m 1,2 C 1,6 C 3,2 km/h (1 Bft) 92,11 %
07.02.2017 17:26 1,6 C 97 % 1017,8 hPa 0,0 l/m 3,6 km/h (1 Bft) O-NO 67 0 min 0,000 mm 0,0 UV-I 0 W/m 1,2 C 1,6 C 4,8 km/h (1 Bft) 98,11 %
07.02.2017 17:28 1,6 C 97 % 1017,8 hPa 0,0 l/m 4,7 km/h (1 Bft) O-NO 71 0 min 0,000 mm 0,0 UV-I 0 W/m 1,2 C 1,6 C 6,4 km/h (2 Bft) 90,57 %
07.02.2017 17:30 1,6 C 97 % 1017,8 hPa 0,0 l/m 4,1 km/h (1 Bft) O-NO 71 0 min 0,000 mm 0,0 UV-I 0 W/m 1,2 C 1,6 C 6,4 km/h (2 Bft) 93,62 %
07.02.2017 17:32 1,6 C 97 % 1017,8 hPa 0,0 l/m 4,4 km/h (1 Bft) O-NO 71 0 min 0,000 mm 0,0 UV-I 0 W/m 1,2 C 1,6 C 6,4 km/h (2 Bft) 97,87 %
07.02.2017 17:34 1,6 C 97 % 1017,8 hPa 0,0 l/m 5,4 km/h (1 Bft) O 90 0 min 0,000 mm 0,0 UV-I 0 W/m 1,2 C 1,6 C 8,0 km/h (2 Bft) 97,87 %
07.02.2017 17:36 1,6 C 97 % 1017,9 hPa 0,0 l/m 4,8 km/h (1 Bft) O 94 0 min 0,000 mm 0,0 UV-I 0 W/m 1,2 C 1,6 C 6,4 km/h (2 Bft) 90,24 %
07.02.2017 17:38 1,6 C 97 % 1017,8 hPa 0,0 l/m 5,4 km/h (1 Bft) O 92 0 min 0,000 mm 0,0 UV-I 0 W/m 1,2 C 1,6 C 6,4 km/h (2 Bft) 96,23 %
07.02.2017 17:40 1,5 C 97 % 1017,9 hPa 0,0 l/m 6,0 km/h (2 Bft) O-NO 76 0 min 0,000 mm 0,0 UV-I 0 W/m 1,1 C 1,5 C 8,0 km/h (2 Bft) 97,37 %
07.02.2017 17:42 1,4 C 97 % 1017,8 hPa 0,0 l/m 6,7 km/h (2 Bft) O 98 0 min 0,000 mm 0,0 UV-I 0 W/m 1,0 C 1,1 C 9,7 km/h (2 Bft) 96,00 %
07.02.2017 17:44 1,4 C 97 % 1017,9 hPa 0,0 l/m 6,0 km/h (2 Bft) O 92 0 min 0,000 mm 0,0 UV-I 0 W/m 1,0 C 1,4 C 8,0 km/h (2 Bft) 97,62 %
07.02.2017 17:46 1,5 C 97 % 1017,9 hPa 0,0 l/m 6,4 km/h (2 Bft) O 93 0 min 0,000 mm 0,0 UV-I 0 W/m 1,1 C 1,5 C 11,3 km/h (2 Bft) 98,00 %
07.02.2017 17:48 1,5 C 97 % 1017,9 hPa 0,0 l/m 5,3 km/h (1 Bft) O 83 0 min 0,000 mm 0,0 UV-I 0 W/m 1,1 C 1,5 C 11,3 km/h (2 Bft) 93,62 %
07.02.2017 17:50 1,5 C 97 % 1017,9 hPa 0,0 l/m 5,9 km/h (2 Bft) O-NO 71 0 min 0,000 mm 0,0 UV-I 0 W/m 1,1 C 1,5 C 9,7 km/h (2 Bft) 96,00 %
07.02.2017 17:52 1,5 C 97 % 1017,9 hPa 0,0 l/m 8,4 km/h (2 Bft) O-NO 73 0 min 0,000 mm 0,0 UV-I 0 W/m 1,1 C -0,4 C 12,9 km/h (3 Bft) 98,00 %
07.02.2017 17:54 1,5 C 97 % 1017,9 hPa 0,0 l/m 8,9 km/h (2 Bft) O 80 0 min 0,000 mm 0,0 UV-I 0 W/m 1,1 C -0,9 C 14,5 km/h (3 Bft) 92,11 %
07.02.2017 17:56 1,5 C 97 % 1017,9 hPa 0,0 l/m 8,3 km/h (2 Bft) O 95 0 min 0,000 mm 0,0 UV-I 0 W/m 1,1 C -0,3 C 12,9 km/h (3 Bft) 98,11 %
07.02.2017 17:58 1,4 C 97 % 1017,9 hPa 0,0 l/m 8,4 km/h (2 Bft) O 84 0 min 0,000 mm 0,0 UV-I 0 W/m 1,0 C -0,5 C 12,9 km/h (3 Bft) 100,00 %
07.02.2017 18:00 1,4 C 97 % 1017,9 hPa 0,0 l/m 9,1 km/h (2 Bft) O 82 0 min 0,000 mm 0,0 UV-I 0 W/m 1,0 C -1,2 C 12,9 km/h (3 Bft) 96,00 %
07.02.2017 18:02 1,4 C 97 % 1017,9 hPa 0,0 l/m 9,0 km/h (2 Bft) O 94 0 min 0,000 mm 0,0 UV-I 0 W/m 1,0 C -1,1 C 12,9 km/h (3 Bft) 94,34 %
07.02.2017 18:04 1,4 C 97 % 1017,8 hPa 0,0 l/m 9,9 km/h (2 Bft) O 81 0 min 0,000 mm 0,0 UV-I 0 W/m 1,0 C -1,8 C 14,5 km/h (3 Bft) 98,11 %
07.02.2017 18:06 1,4 C 97 % 1017,8 hPa 0,0 l/m 12,5 km/h (3 Bft) O 89 0 min 0,000 mm 0,0 UV-I 0 W/m 1,0 C -3,7 C 16,1 km/h (3 Bft) 92,11 %
07.02.2017 18:08 1,4 C 96 % 1017,9 hPa 0,0 l/m 13,3 km/h (3 Bft) O 97 0 min 0,000 mm 0,0 UV-I 0 W/m 0,8 C -4,3 C 19,3 km/h (3 Bft) 98,00 %
07.02.2017 18:10 1,4 C 96 % 1017,9 hPa 0,0 l/m 14,3 km/h (3 Bft) O 99 0 min 0,000 mm 0,0 UV-I 0 W/m 0,8 C -4,9 C 19,3 km/h (3 Bft) 97,73 %
07.02.2017 18:12 1,3 C 96 % 1017,9 hPa 0,0 l/m 12,2 km/h (2 Bft) O-SO 117 0 min 0,000 mm 0,0 UV-I 0 W/m 0,7 C -3,6 C 16,1 km/h (3 Bft) 92,68 %
07.02.2017 18:14 1,3 C 97 % 1017,8 hPa 0,0 l/m 13,3 km/h (3 Bft) SO 127 0 min 0,000 mm 0,0 UV-I 0 W/m 0,9 C -4,4 C 16,1 km/h (3 Bft) 98,11 %
07.02.2017 18:16 1,3 C 97 % 1017,9 hPa 0,0 l/m 14,9 km/h (3 Bft) O-SO 113 0 min 0,000 mm 0,0 UV-I 0 W/m 0,9 C -5,3 C 20,9 km/h (4 Bft) 100,00 %
07.02.2017 18:18 1,3 C 97 % 1017,9 hPa 0,0 l/m 13,2 km/h (3 Bft) O 101 0 min 0,000 mm 0,0 UV-I 0 W/m 0,9 C -4,3 C 17,7 km/h (3 Bft) 96,00 %
07.02.2017 18:20 1,3 C 97 % 1017,9 hPa 0,0 l/m 12,7 km/h (3 Bft) O 89 0 min 0,000 mm 0,0 UV-I 0 W/m 0,9 C -4,0 C 19,3 km/h (3 Bft) 97,37 %
07.02.2017 18:22 1,3 C 97 % 1018,0 hPa 0,0 l/m 13,1 km/h (3 Bft) O 90 0 min 0,000 mm 0,0 UV-I 0 W/m 0,9 C -4,2 C 19,3 km/h (3 Bft) 100,00 %
07.02.2017 18:24 1,4 C 97 % 1018,0 hPa 0,0 l/m 9,0 km/h (2 Bft) O-NO 71 0 min 0,000 mm 0,0 UV-I 0 W/m 1,0 C -1,1 C 14,5 km/h (3 Bft) 97,62 %
07.02.2017 18:26 1,4 C 97 % 1018,1 hPa 0,0 l/m 7,3 km/h (2 Bft) NO 52 0 min 0,000 mm 0,0 UV-I 0 W/m 1,0 C 0,5 C 11,3 km/h (2 Bft) 93,62 %
07.02.2017 18:28 1,4 C 97 % 1018,1 hPa 0,0 l/m 7,2 km/h (2 Bft) N-NO 25 0 min 0,000 mm 0,0 UV-I 0 W/m 1,0 C 0,6 C 11,3 km/h (2 Bft) 98,18 %
07.02.2017 18:30 1,3 C 96 % 1018,2 hPa 0,0 l/m 3,0 km/h (1 Bft) N-NO 19 0 min 0,000 mm 0,0 UV-I 0 W/m 0,7 C 1,3 C 6,4 km/h (2 Bft) 91,49 %
07.02.2017 18:32 1,2 C 96 % 1018,2 hPa 0,0 l/m 0,8 km/h (0 Bft) N 5 0 min 0,000 mm 0,0 UV-I 0 W/m 0,6 C 1,2 C 4,8 km/h (1 Bft) 95,83 %
07.02.2017 18:34 1,1 C 96 % 1018,3 hPa 0,0 l/m 1,5 km/h (1 Bft) N-NO 17 0 min 0,000 mm 0,0 UV-I 0 W/m 0,5 C 1,1 C 4,8 km/h (1 Bft) 100,00 %
07.02.2017 18:36 1,1 C 96 % 1018,3 hPa 0,0 l/m 5,4 km/h (1 Bft) NO 46 0 min 0,000 mm 0,0 UV-I 0 W/m 0,5 C 1,1 C 9,7 km/h (2 Bft) 98,21 %
07.02.2017 18:38 1,1 C 96 % 1018,2 hPa 0,0 l/m 7,8 km/h (2 Bft) NO 47 0 min 0,000 mm 0,0 UV-I 0 W/m 0,5 C -0,3 C 12,9 km/h (3 Bft) 94,29 %
07.02.2017 18:40 1,2 C 97 % 1018,2 hPa 0,0 l/m 6,1 km/h (2 Bft) NO 53 0 min 0,000 mm 0,0 UV-I 0 W/m 0,8 C 1,2 C 8,0 km/h (2 Bft) 98,21 %
07.02.2017 18:42 1,2 C 97 % 1018,2 hPa 0,0 l/m 5,5 km/h (1 Bft) NO 54 0 min 0,000 mm 0,0 UV-I 0 W/m 0,8 C 1,2 C 8,0 km/h (2 Bft) 97,73 %
07.02.2017 18:44 1,2 C 97 % 1018,2 hPa 0,0 l/m 5,2 km/h (1 Bft) N-NO 31 0 min 0,000 mm 0,0 UV-I 0 W/m 0,8 C 1,2 C 6,4 km/h (2 Bft) 93,62 %
07.02.2017 18:46 1,2 C 96 % 1018,2 hPa 0,0 l/m 6,4 km/h (2 Bft) NO 49 0 min 0,000 mm 0,0 UV-I 0 W/m 0,6 C 1,2 C 9,7 km/h (2 Bft) 100,00 %
07.02.2017 18:48 1,2 C 96 % 1018,3 hPa 0,0 l/m 5,8 km/h (2 Bft) NO 49 0 min 0,000 mm 0,0 UV-I 0 W/m 0,6 C 1,2 C 8,0 km/h (2 Bft) 95,45 %
07.02.2017 18:50 1,2 C 97 % 1018,3 hPa 0,0 l/m 6,3 km/h (2 Bft) NO 55 0 min 0,000 mm 0,0 UV-I 0 W/m 0,8 C 1,2 C 9,7 km/h (2 Bft) 100,00 %
07.02.2017 18:52 1,2 C 97 % 1018,2 hPa 0,0 l/m 6,2 km/h (2 Bft) O-NO 73 0 min 0,000 mm 0,0 UV-I 0 W/m 0,8 C 1,2 C 12,9 km/h (3 Bft) 93,62 %
07.02.2017 18:54 1,3 C 97 % 1018,2 hPa 0,0 l/m 9,2 km/h (2 Bft) O-NO 71 0 min 0,000 mm 0,0 UV-I 0 W/m 0,9 C -1,4 C 12,9 km/h (3 Bft) 100,00 %
07.02.2017 18:56 1,3 C 97 % 1018,2 hPa 0,0 l/m 9,3 km/h (2 Bft) O-SO 103 0 min 0,000 mm 0,0 UV-I 0 W/m 0,9 C -1,4 C 14,5 km/h (3 Bft) 94,00 %
07.02.2017 18:58 1,2 C 97 % 1018,2 hPa 0,0 l/m 6,3 km/h (2 Bft) O-SO 107 0 min 0,000 mm 0,0 UV-I 0 W/m 0,8 C 1,2 C 11,3 km/h (2 Bft) 94,34 %
07.02.2017 19:00 1,2 C 97 % 1018,2 hPa 0,0 l/m 7,0 km/h (2 Bft) O-NO 69 0 min 0,000 mm 0,0 UV-I 0 W/m 0,8 C 0,6 C 12,9 km/h (3 Bft) 97,37 %
07.02.2017 19:02 1,2 C 97 % 1018,2 hPa 0,0 l/m 7,6 km/h (2 Bft) SO 141 0 min 0,000 mm 0,0 UV-I 0 W/m 0,8 C -0,0 C 12,9 km/h (3 Bft) 100,00 %
07.02.2017 19:04 1,2 C 97 % 1018,3 hPa 0,0 l/m 4,8 km/h (1 Bft) NO 51 0 min 0,000 mm 0,0 UV-I 0 W/m 0,8 C 1,2 C 6,4 km/h (2 Bft) 92,45 %
07.02.2017 19:06 1,2 C 97 % 1018,3 hPa 0,0 l/m 3,3 km/h (1 Bft) NO 51 0 min 0,000 mm 0,0 UV-I 0 W/m 0,8 C 1,2 C 6,4 km/h (2 Bft) 96,00 %
07.02.2017 19:08 1,2 C 97 % 1018,4 hPa 0,0 l/m 1,4 km/h (1 Bft) N-NW 331 0 min 0,000 mm 0,0 UV-I 0 W/m 0,8 C 1,2 C 3,2 km/h (1 Bft) 92,00 %
07.02.2017 19:10 1,2 C 97 % 1018,4 hPa 0,0 l/m 3,6 km/h (1 Bft) NW 315 0 min 0,000 mm 0,0 UV-I 0 W/m 0,8 C 1,2 C 6,4 km/h (2 Bft) 97,37 %
07.02.2017 19:12 1,2 C 97 % 1018,5 hPa 0,0 l/m 2,5 km/h (1 Bft) NW 307 0 min 0,000 mm 0,0 UV-I 0 W/m 0,8 C 1,2 C 4,8 km/h (1 Bft) 98,11 %
07.02.2017 19:14 1,2 C 97 % 1018,5 hPa 0,0 l/m 2,1 km/h (1 Bft) NW 309 0 min 0,000 mm 0,0 UV-I 0 W/m 0,8 C 1,2 C 3,2 km/h (1 Bft) 90,00 %
07.02.2017 19:16 1,2 C 97 % 1018,4 hPa 0,0 l/m 0,0 km/h (0 Bft) NW 309 0 min 0,000 mm 0,0 UV-I 0 W/m 0,8 C 1,2 C 0,0 km/h (0 Bft) 96,00 %
07.02.2017 19:18 1,2 C 97 % 1018,4 hPa 0,0 l/m 0,0 km/h (0 Bft) NW 309 0 min 0,000 mm 0,0 UV-I 0 W/m 0,8 C 1,2 C 0,0 km/h (0 Bft) 88,57 %
07.02.2017 19:20 1,1 C 97 % 1018,4 hPa 0,0 l/m 1,4 km/h (1 Bft) N-NO 31 0 min 0,000 mm 0,0 UV-I 0 W/m 0,7 C 1,1 C 4,8 km/h (1 Bft) 98,11 %
07.02.2017 19:22 1,2 C 97 % 1018,3 hPa 0,0 l/m 3,4 km/h (1 Bft) N-NO 32 0 min 0,000 mm 0,0 UV-I 0 W/m 0,8 C 1,2 C 4,8 km/h (1 Bft) 92,68 %
07.02.2017 19:24 1,2 C 97 % 1018,3 hPa 0,0 l/m 2,9 km/h (1 Bft) NO 40 0 min 0,000 mm 0,0 UV-I 0 W/m 0,8 C 1,2 C 4,8 km/h (1 Bft) 92,45 %
07.02.2017 19:26 1,2 C 97 % 1018,4 hPa 0,0 l/m 2,5 km/h (1 Bft) NO 40 0 min 0,000 mm 0,0 UV-I 0 W/m 0,8 C 1,2 C 3,2 km/h (1 Bft) 98,00 %
07.02.2017 19:28 1,2 C 97 % 1018,4 hPa 0,0 l/m 1,9 km/h (1 Bft) NO 40 0 min 0,000 mm 0,0 UV-I 0 W/m 0,8 C 1,2 C 3,2 km/h (1 Bft) 97,37 %
07.02.2017 19:30 1,2 C 97 % 1018,4 hPa 0,0 l/m 1,7 km/h (1 Bft) NO 40 0 min 0,000 mm 0,0 UV-I 0 W/m 0,8 C 1,2 C 3,2 km/h (1 Bft) 97,87 %
07.02.2017 19:32 1,2 C 97 % 1018,4 hPa 0,0 l/m 2,1 km/h (1 Bft) NO 40 0 min 0,000 mm 0,0 UV-I 0 W/m 0,8 C 1,2 C 3,2 km/h (1 Bft) 95,12 %
07.02.2017 19:34 1,1 C 97 % 1018,4 hPa 0,0 l/m 3,6 km/h (1 Bft) NO 40 0 min 0,000 mm 0,0 UV-I 0 W/m 0,7 C 1,1 C 6,4 km/h (2 Bft) 98,39 %
07.02.2017 19:36 1,1 C 97 % 1018,3 hPa 0,0 l/m 2,5 km/h (1 Bft) NO 40 0 min 0,000 mm 0,0 UV-I 0 W/m 0,7 C 1,1 C 4,8 km/h (1 Bft) 97,87 %
07.02.2017 19:38 1,1 C 97 % 1018,3 hPa 0,0 l/m 0,7 km/h (0 Bft) NO 40 0 min 0,000 mm 0,0 UV-I 0 W/m 0,7 C 1,1 C 3,2 km/h (1 Bft) 97,37 %
07.02.2017 19:40 1,1 C 97 % 1018,3 hPa 0,0 l/m 0,7 km/h (0 Bft) NO 40 0 min 0,000 mm 0,0 UV-I 0 W/m 0,7 C 1,1 C 1,6 km/h (1 Bft) 94,64 %
07.02.2017 19:42 1,1 C 97 % 1018,3 hPa 0,0 l/m 0,7 km/h (0 Bft) NO 40 0 min 0,000 mm 0,0 UV-I 0 W/m 0,7 C 1,1 C 1,6 km/h (1 Bft) 91,49 %
07.02.2017 19:44 1,0 C 97 % 1018,3 hPa 0,0 l/m 1,4 km/h (1 Bft) NO 40 0 min 0,000 mm 0,0 UV-I 0 W/m 0,6 C 1,0 C 3,2 km/h (1 Bft) 94,44 %
07.02.2017 19:46 1,0 C 97 % 1018,3 hPa 0,0 l/m 0,4 km/h (0 Bft) NO 40 0 min 0,000 mm 0,0 UV-I 0 W/m 0,6 C 1,0 C 1,6 km/h (1 Bft) 98,00 %
07.02.2017 19:48 1,0 C 97 % 1018,3 hPa 0,0 l/m 0,0 km/h (0 Bft) NO 40 0 min 0,000 mm 0,0 UV-I 0 W/m 0,6 C 1,0 C 0,0 km/h (0 Bft) 100,00 %
07.02.2017 19:50 1,0 C 97 % 1018,4 hPa 0,0 l/m 0,0 km/h (0 Bft) NO 40 0 min 0,000 mm 0,0 UV-I 0 W/m 0,6 C 1,0 C 0,0 km/h (0 Bft) 100,00 %
07.02.2017 19:52 0,9 C 97 % 1018,3 hPa 0,0 l/m 0,7 km/h (0 Bft) NO 40 0 min 0,000 mm 0,0 UV-I 0 W/m 0,5 C 0,9 C 4,8 km/h (1 Bft) 98,11 %
07.02.2017 19:54 0,9 C 97 % 1018,4 hPa 0,0 l/m 2,5 km/h (1 Bft) NO 40 0 min 0,000 mm 0,0 UV-I 0 W/m 0,5 C 0,9 C 4,8 km/h (1 Bft) 94,74 %
07.02.2017 19:56 0,9 C 97 % 1018,5 hPa 0,0 l/m 3,4 km/h (1 Bft) NO 40 0 min 0,000 mm 0,0 UV-I 0 W/m 0,5 C 0,9 C 4,8 km/h (1 Bft) 100,00 %
07.02.2017 19:58 0,9 C 97 % 1018,5 hPa 0,0 l/m 4,2 km/h (1 Bft) NO 40 0 min 0,000 mm 0,0 UV-I 0 W/m 0,5 C 0,9 C 6,4 km/h (2 Bft) 92,00 %
07.02.2017 20:00 1,0 C 97 % 1018,4 hPa 0,0 l/m 4,7 km/h (1 Bft) NO 40 0 min 0,000 mm 0,0 UV-I 0 W/m 0,6 C 1,0 C 8,0 km/h (2 Bft) 98,00 %
07.02.2017 20:03 1,0 C 97 % 1018,4 hPa 0,0 l/m 3,7 km/h (1 Bft) NO 43 0 min 0,000 mm 0,0 UV-I 0 W/m 0,6 C 1,0 C 6,4 km/h (2 Bft) 96,88 %
07.02.2017 20:04 1,0 C 97 % 1018,4 hPa 0,0 l/m 4,9 km/h (1 Bft) NO 43 0 min 0,000 mm 0,0 UV-I 0 W/m 0,6 C 1,0 C 6,4 km/h (2 Bft) 91,67 %
07.02.2017 20:06 1,0 C 97 % 1018,4 hPa 0,0 l/m 4,3 km/h (1 Bft) NO 43 0 min 0,000 mm 0,0 UV-I 0 W/m 0,6 C 1,0 C 6,4 km/h (2 Bft) 94,34 %
07.02.2017 20:08 1,0 C 97 % 1018,4 hPa 0,0 l/m 4,0 km/h (1 Bft) NO 44 0 min 0,000 mm 0,0 UV-I 0 W/m 0,6 C 1,0 C 6,4 km/h (2 Bft) 95,12 %
07.02.2017 20:10 1,0 C 97 % 1018,5 hPa 0,0 l/m 4,2 km/h (1 Bft) NO 34 0 min 0,000 mm 0,0 UV-I 0 W/m 0,6 C 1,0 C 6,4 km/h (2 Bft) 97,87 %
07.02.2017 20:12 1,0 C 97 % 1018,4 hPa 0,0 l/m 4,3 km/h (1 Bft) NO 51 0 min 0,000 mm 0,0 UV-I 0 W/m 0,6 C 1,0 C 6,4 km/h (2 Bft) 94,00 %
07.02.2017 20:14 1,0 C 97 % 1018,4 hPa 0,0 l/m 3,8 km/h (1 Bft) O-NO 59 0 min 0,000 mm 0,0 UV-I 0 W/m 0,6 C 1,0 C 4,8 km/h (1 Bft) 97,37 %
07.02.2017 20:16 1,0 C 97 % 1018,4 hPa 0,0 l/m 4,4 km/h (1 Bft) O-NO 63 0 min 0,000 mm 0,0 UV-I 0 W/m 0,6 C 1,0 C 6,4 km/h (2 Bft) 98,00 %
07.02.2017 20:18 0,9 C 97 % 1018,5 hPa 0,0 l/m 3,9 km/h (1 Bft) O-NO 63 0 min 0,000 mm 0,0 UV-I 0 W/m 0,5 C 0,9 C 4,8 km/h (1 Bft) 97,87 %
07.02.2017 20:20 0,9 C 97 % 1018,5 hPa 0,0 l/m 3,9 km/h (1 Bft) N-NO 29 0 min 0,000 mm 0,0 UV-I 0 W/m 0,5 C 0,9 C 4,8 km/h (1 Bft) 94,34 %
07.02.2017 20:22 0,9 C 97 % 1018,4 hPa 0,0 l/m 4,9 km/h (1 Bft) N-NO 21 0 min 0,000 mm 0,0 UV-I 0 W/m 0,5 C 0,9 C 6,4 km/h (2 Bft) 100,00 %
07.02.2017 20:24 0,9 C 97 % 1018,5 hPa 0,0 l/m 3,9 km/h (1 Bft) N-NO 30 0 min 0,000 mm 0,0 UV-I 0 W/m 0,5 C 0,9 C 6,4 km/h (2 Bft) 95,74 %
07.02.2017 20:26 0,8 C 97 % 1018,5 hPa 0,0 l/m 3,5 km/h (1 Bft) N-NO 31 0 min 0,000 mm 0,0 UV-I 0 W/m 0,4 C 0,8 C 8,0 km/h (2 Bft) 86,00 %
07.02.2017 20:28 0,8 C 97 % 1018,5 hPa 0,0 l/m 1,3 km/h (1 Bft) N-NO 26 0 min 0,000 mm 0,0 UV-I 0 W/m 0,4 C 0,8 C 8,0 km/h (2 Bft) 97,56 %
07.02.2017 20:30 0,8 C 97 % 1018,5 hPa 0,0 l/m 1,4 km/h (1 Bft) N-NO 23 0 min 0,000 mm 0,0 UV-I 0 W/m 0,4 C 0,8 C 8,0 km/h (2 Bft) 100,00 %
07.02.2017 20:32 0,8 C 97 % 1018,5 hPa 0,0 l/m 0,7 km/h (0 Bft) N-NO 23 0 min 0,000 mm 0,0 UV-I 0 W/m 0,4 C 0,8 C 4,8 km/h (1 Bft) 100,00 %
07.02.2017 20:34 0,8 C 97 % 1018,5 hPa 0,0 l/m 3,5 km/h (1 Bft) N-NO 28 0 min 0,000 mm 0,0 UV-I 0 W/m 0,4 C 0,8 C 9,7 km/h (2 Bft) 100,00 %
07.02.2017 20:36 0,8 C 97 % 1018,5 hPa 0,0 l/m 5,6 km/h (1 Bft) N-NO 19 0 min 0,000 mm 0,0 UV-I 0 W/m 0,4 C 0,8 C 8,0 km/h (2 Bft) 92,68 %
07.02.2017 20:38 0,8 C 97 % 1018,5 hPa 0,0 l/m 7,0 km/h (2 Bft) N-NO 29 0 min 0,000 mm 0,0 UV-I 0 W/m 0,4 C 0,2 C 9,7 km/h (2 Bft) 98,46 %
07.02.2017 20:40 0,8 C 97 % 1018,5 hPa 0,0 l/m 5,5 km/h (1 Bft) NO 42 0 min 0,000 mm 0,0 UV-I 0 W/m 0,4 C 0,8 C 9,7 km/h (2 Bft) 97,73 %
07.02.2017 20:42 0,8 C 97 % 1018,5 hPa 0,0 l/m 4,7 km/h (1 Bft) N-NO 30 0 min 0,000 mm 0,0 UV-I 0 W/m 0,4 C 0,8 C 8,0 km/h (2 Bft) 100,00 %
07.02.2017 20:44 0,8 C 97 % 1018,5 hPa 0,0 l/m 4,9 km/h (1 Bft) NO 49 0 min 0,000 mm 0,0 UV-I 0 W/m 0,4 C 0,8 C 8,0 km/h (2 Bft) 97,87 %
07.02.2017 20:46 0,8 C 97 % 1018,5 hPa 0,0 l/m 5,5 km/h (1 Bft) NO 36 0 min 0,000 mm 0,0 UV-I 0 W/m 0,4 C 0,8 C 8,0 km/h (2 Bft) 96,00 %
07.02.2017 20:48 0,7 C 97 % 1018,5 hPa 0,0 l/m 4,6 km/h (1 Bft) NO 34 0 min 0,000 mm 0,0 UV-I 0 W/m 0,3 C 0,7 C 8,0 km/h (2 Bft) 92,00 %
07.02.2017 20:50 0,7 C 97 % 1018,5 hPa 0,0 l/m 4,9 km/h (1 Bft) NO 42 0 min 0,000 mm 0,0 UV-I 0 W/m 0,3 C 0,7 C 6,4 km/h (2 Bft) 90,24 %
07.02.2017 20:52 0,7 C 97 % 1018,5 hPa 0,0 l/m 4,7 km/h (1 Bft) NO 34 0 min 0,000 mm 0,0 UV-I 0 W/m 0,3 C 0,7 C 6,4 km/h (2 Bft) 97,73 %
07.02.2017 20:54 0,7 C 97 % 1018,5 hPa 0,0 l/m 3,7 km/h (1 Bft) NO 34 0 min 0,000 mm 0,0 UV-I 0 W/m 0,3 C 0,7 C 6,4 km/h (2 Bft) 98,00 %
07.02.2017 20:56 0,6 C 97 % 1018,5 hPa 0,0 l/m 4,3 km/h (1 Bft) N-NO 24 0 min 0,000 mm 0,0 UV-I 0 W/m 0,2 C 0,6 C 6,4 km/h (2 Bft) 96,00 %
07.02.2017 20:58 0,6 C 97 % 1018,5 hPa 0,0 l/m 4,8 km/h (1 Bft) N-NO 24 0 min 0,000 mm 0,0 UV-I 0 W/m 0,2 C 0,6 C 6,4 km/h (2 Bft) 97,87 %
07.02.2017 21:00 0,6 C 97 % 1018,5 hPa 0,0 l/m 4,5 km/h (1 Bft) N-NO 32 0 min 0,000 mm 0,0 UV-I 0 W/m 0,2 C 0,6 C 6,4 km/h (2 Bft) 98,00 %
07.02.2017 21:02 0,6 C 97 % 1018,5 hPa 0,0 l/m 5,2 km/h (1 Bft) NO 44 0 min 0,000 mm 0,0 UV-I 0 W/m 0,2 C 0,6 C 6,4 km/h (2 Bft) 97,50 %
07.02.2017 21:04 0,6 C 97 % 1018,4 hPa 0,0 l/m 3,4 km/h (1 Bft) NO 42 0 min 0,000 mm 0,0 UV-I 0 W/m 0,2 C 0,6 C 4,8 km/h (1 Bft) 100,00 %
07.02.2017 21:06 0,5 C 97 % 1018,4 hPa 0,0 l/m 5,2 km/h (1 Bft) NO 34 0 min 0,000 mm 0,0 UV-I 0 W/m 0,1 C 0,5 C 6,4 km/h (2 Bft) 94,34 %
07.02.2017 21:08 0,5 C 97 % 1018,4 hPa 0,0 l/m 4,7 km/h (1 Bft) N-NO 26 0 min 0,000 mm 0,0 UV-I 0 W/m 0,1 C 0,5 C 8,0 km/h (2 Bft) 96,15 %
07.02.2017 21:10 0,4 C 97 % 1018,4 hPa 0,0 l/m 5,5 km/h (1 Bft) N-NO 32 0 min 0,000 mm 0,0 UV-I 0 W/m -0,0 C 0,4 C 8,0 km/h (2 Bft) 97,78 %
07.02.2017 21:12 0,4 C 97 % 1018,4 hPa 0,0 l/m 4,8 km/h (1 Bft) N-NO 27 0 min 0,000 mm 0,0 UV-I 0 W/m -0,0 C 0,4 C 6,4 km/h (2 Bft) 93,62 %
07.02.2017 21:14 0,4 C 97 % 1018,3 hPa 0,0 l/m 4,6 km/h (1 Bft) N-NO 22 0 min 0,000 mm 0,0 UV-I 0 W/m -0,0 C 0,4 C 6,4 km/h (2 Bft) 94,74 %
07.02.2017 21:16 0,4 C 98 % 1018,3 hPa 0,0 l/m 3,4 km/h (1 Bft) N-NO 26 0 min 0,000 mm 0,0 UV-I 0 W/m 0,1 C 0,4 C 6,4 km/h (2 Bft) 86,79 %
07.02.2017 21:18 0,4 C 98 % 1018,3 hPa 0,0 l/m 2,3 km/h (1 Bft) N-NO 26 0 min 0,000 mm 0,0 UV-I 0 W/m 0,1 C 0,4 C 4,8 km/h (1 Bft) 94,00 %
07.02.2017 21:20 0,3 C 98 % 1018,3 hPa 0,0 l/m 2,8 km/h (1 Bft) N-NO 26 0 min 0,000 mm 0,0 UV-I 0 W/m 0,0 C 0,3 C 8,0 km/h (2 Bft) 94,00 %
07.02.2017 21:22 0,3 C 98 % 1018,3 hPa 0,0 l/m 2,8 km/h (1 Bft) N-NO 13 0 min 0,000 mm 0,0 UV-I 0 W/m 0,0 C 0,3 C 6,4 km/h (2 Bft) 95,45 %
07.02.2017 21:24 0,3 C 98 % 1018,3 hPa 0,0 l/m 2,9 km/h (1 Bft) NO 43 0 min 0,000 mm 0,0 UV-I 0 W/m 0,0 C 0,3 C 8,0 km/h (2 Bft) 95,12 %
07.02.2017 21:26 0,3 C 98 % 1018,4 hPa 0,0 l/m 4,7 km/h (1 Bft) N-NO 22 0 min 0,000 mm 0,0 UV-I 0 W/m 0,0 C 0,3 C 6,4 km/h (2 Bft) 90,57 %
07.02.2017 21:28 0,3 C 98 % 1018,4 hPa 0,0 l/m 5,2 km/h (1 Bft) N-NO 26 0 min 0,000 mm 0,0 UV-I 0 W/m 0,0 C 0,3 C 6,4 km/h (2 Bft) 97,37 %
07.02.2017 21:30 0,3 C 98 % 1018,4 hPa 0,0 l/m 4,9 km/h (1 Bft) NO 42 0 min 0,000 mm 0,0 UV-I 0 W/m 0,0 C 0,3 C 6,4 km/h (2 Bft) 93,62 %
07.02.2017 21:32 0,3 C 98 % 1018,4 hPa 0,0 l/m 5,9 km/h (2 Bft) NO 42 0 min 0,000 mm 0,0 UV-I 0 W/m 0,0 C 0,3 C 9,7 km/h (2 Bft) 95,74 %
07.02.2017 21:34 0,2 C 97 % 1018,4 hPa 0,0 l/m 6,3 km/h (2 Bft) N-NO 32 0 min 0,000 mm 0,0 UV-I 0 W/m -0,2 C 0,2 C 8,0 km/h (2 Bft) 94,00 %
07.02.2017 21:36 0,2 C 97 % 1018,4 hPa 0,0 l/m 7,0 km/h (2 Bft) N-NO 33 0 min 0,000 mm 0,0 UV-I 0 W/m -0,2 C -0,4 C 9,7 km/h (2 Bft) 93,62 %
07.02.2017 21:38 0,2 C 97 % 1018,4 hPa 0,0 l/m 6,8 km/h (2 Bft) N-NO 26 0 min 0,000 mm 0,0 UV-I 0 W/m -0,2 C -0,2 C 8,0 km/h (2 Bft) 88,68 %
07.02.2017 21:40 0,2 C 97 % 1018,4 hPa 0,0 l/m 7,2 km/h (2 Bft) N-NO 22 0 min 0,000 mm 0,0 UV-I 0 W/m -0,2 C -0,6 C 11,3 km/h (2 Bft) 97,56 %
07.02.2017 21:42 0,2 C 97 % 1018,4 hPa 0,0 l/m 6,4 km/h (2 Bft) N-NO 28 0 min 0,000 mm 0,0 UV-I 0 W/m -0,2 C 0,2 C 12,9 km/h (3 Bft) 96,00 %
07.02.2017 21:44 0,1 C 97 % 1018,4 hPa 0,0 l/m 7,2 km/h (2 Bft) N-NO 23 0 min 0,000 mm 0,0 UV-I 0 W/m -0,3 C -0,7 C 14,5 km/h (3 Bft) 87,23 %
07.02.2017 21:46 0,1 C 97 % 1018,4 hPa 0,0 l/m 8,8 km/h (2 Bft) O-NO 57 0 min 0,000 mm 0,0 UV-I 0 W/m -0,3 C -2,3 C 11,3 km/h (2 Bft) 95,24 %
07.02.2017 21:48 0,1 C 98 % 1018,4 hPa 0,0 l/m 7,6 km/h (2 Bft) N-NO 28 0 min 0,000 mm 0,0 UV-I 0 W/m -0,2 C -1,1 C 12,9 km/h (3 Bft) 94,34 %
07.02.2017 21:50 0,1 C 98 % 1018,4 hPa 0,0 l/m 8,6 km/h (2 Bft) NO 40 0 min 0,000 mm 0,0 UV-I 0 W/m -0,2 C -2,1 C 11,3 km/h (2 Bft) 95,12 %
07.02.2017 21:52 0,0 C 98 % 1018,4 hPa 0,0 l/m 9,5 km/h (2 Bft) N-NO 32 0 min 0,000 mm 0,0 UV-I 0 W/m -0,3 C -3,0 C 14,5 km/h (3 Bft) 100,00 %
07.02.2017 21:54 0,0 C 98 % 1018,4 hPa 0,0 l/m 9,3 km/h (2 Bft) NO 45 0 min 0,000 mm 0,0 UV-I 0 W/m -0,3 C -2,9 C 14,5 km/h (3 Bft) 96,00 %
07.02.2017 21:56 0,0 C 98 % 1018,4 hPa 0,0 l/m 8,9 km/h (2 Bft) NO 48 0 min 0,000 mm 0,0 UV-I 0 W/m -0,3 C -2,5 C 12,9 km/h (3 Bft) 100,00 %
07.02.2017 21:58 -0,1 C 98 % 1018,4 hPa 0,0 l/m 9,0 km/h (2 Bft) N 5 0 min 0,000 mm 0,0 UV-I 0 W/m -0,4 C -2,7 C 14,5 km/h (3 Bft) 98,00 %
07.02.2017 22:00 -0,1 C 98 % 1018,4 hPa 0,0 l/m 9,9 km/h (2 Bft) NO 46 0 min 0,000 mm 0,0 UV-I 0 W/m -0,4 C -3,5 C 16,1 km/h (3 Bft) 97,73 %
07.02.2017 22:02 -0,1 C 97 % 1018,4 hPa 0,0 l/m 7,9 km/h (2 Bft) NO 43 0 min 0,000 mm 0,0 UV-I 0 W/m -0,5 C -1,7 C 12,9 km/h (3 Bft) 100,00 %
07.02.2017 22:04 -0,2 C 97 % 1018,4 hPa 0,0 l/m 6,7 km/h (2 Bft) NO 44 0 min 0,000 mm 0,0 UV-I 0 W/m -0,6 C -0,5 C 11,3 km/h (2 Bft) 100,00 %
07.02.2017 22:06 -0,2 C 97 % 1018,4 hPa 0,0 l/m 8,5 km/h (2 Bft) NO 46 0 min 0,000 mm 0,0 UV-I 0 W/m -0,6 C -2,3 C 12,9 km/h (3 Bft) 94,00 %
07.02.2017 22:08 -0,2 C 97 % 1018,4 hPa 0,0 l/m 9,5 km/h (2 Bft) NO 42 0 min 0,000 mm 0,0 UV-I 0 W/m -0,6 C -3,2 C 14,5 km/h (3 Bft) 98,21 %
07.02.2017 22:10 -0,2 C 97 % 1018,4 hPa 0,0 l/m 8,3 km/h (2 Bft) NO 34 0 min 0,000 mm 0,0 UV-I 0 W/m -0,6 C -2,1 C 12,9 km/h (3 Bft) 100,00 %
07.02.2017 22:12 -0,2 C 97 % 1018,4 hPa 0,0 l/m 6,7 km/h (2 Bft) NO 45 0 min 0,000 mm 0,0 UV-I 0 W/m -0,6 C -0,5 C 9,7 km/h (2 Bft) 100,00 %
07.02.2017 22:14 -0,2 C 97 % 1018,4 hPa 0,0 l/m 9,2 km/h (2 Bft) NO 48 0 min 0,000 mm 0,0 UV-I 0 W/m -0,6 C -3,0 C 14,5 km/h (3 Bft) 100,00 %
07.02.2017 22:16 -0,2 C 97 % 1018,4 hPa 0,0 l/m 8,9 km/h (2 Bft) N-NO 26 0 min 0,000 mm 0,0 UV-I 0 W/m -0,6 C -2,7 C 14,5 km/h (3 Bft) 97,78 %
07.02.2017 22:18 -0,2 C 97 % 1018,4 hPa 0,0 l/m 7,3 km/h (2 Bft) N-NO 24 0 min 0,000 mm 0,0 UV-I 0 W/m -0,6 C -1,1 C 12,9 km/h (3 Bft) 98,28 %
07.02.2017 22:20 -0,3 C 97 % 1018,4 hPa 0,0 l/m 8,2 km/h (2 Bft) NO 54 0 min 0,000 mm 0,0 UV-I 0 W/m -0,7 C -2,2 C 12,9 km/h (3 Bft) 95,12 %
07.02.2017 22:22 -0,3 C 97 % 1018,4 hPa 0,0 l/m 6,1 km/h (2 Bft) NO 40 0 min 0,000 mm 0,0 UV-I 0 W/m -0,7 C -0,3 C 8,0 km/h (2 Bft) 98,11 %
07.02.2017 22:24 -0,3 C 97 % 1018,5 hPa 0,0 l/m 6,0 km/h (2 Bft) NO 44 0 min 0,000 mm 0,0 UV-I 0 W/m -0,7 C -0,3 C 8,0 km/h (2 Bft) 100,00 %
07.02.2017 22:26 -0,3 C 97 % 1018,5 hPa 0,0 l/m 5,4 km/h (1 Bft) N-NO 32 0 min 0,000 mm 0,0 UV-I 0 W/m -0,7 C -0,3 C 9,7 km/h (2 Bft) 100,00 %
07.02.2017 22:28 -0,3 C 97 % 1018,4 hPa 0,0 l/m 6,0 km/h (2 Bft) NO 42 0 min 0,000 mm 0,0 UV-I 0 W/m -0,7 C -0,3 C 8,0 km/h (2 Bft) 88,00 %
07.02.2017 22:30 -0,3 C 97 % 1018,4 hPa 0,0 l/m 8,1 km/h (2 Bft) N-NO 30 0 min 0,000 mm 0,0 UV-I 0 W/m -0,7 C -2,1 C 12,9 km/h (3 Bft) 100,00 %
07.02.2017 22:32 -0,3 C 97 % 1018,5 hPa 0,0 l/m 6,6 km/h (2 Bft) O-NO 65 0 min 0,000 mm 0,0 UV-I 0 W/m -0,7 C -0,5 C 9,7 km/h (2 Bft) 100,00 %
07.02.2017 22:34 -0,2 C 97 % 1018,5 hPa 0,0 l/m 5,1 km/h (1 Bft) O-NO 61 0 min 0,000 mm 0,0 UV-I 0 W/m -0,6 C -0,2 C 8,0 km/h (2 Bft) 98,11 %
07.02.2017 22:36 -0,2 C 97 % 1018,5 hPa 0,0 l/m 5,0 km/h (1 Bft) NO 53 0 min 0,000 mm 0,0 UV-I 0 W/m -0,6 C -0,2 C 8,0 km/h (2 Bft) 91,43 %
07.02.2017 22:38 -0,2 C 97 % 1018,5 hPa 0,0 l/m 4,1 km/h (1 Bft) NO 53 0 min 0,000 mm 0,0 UV-I 0 W/m -0,6 C -0,2 C 4,8 km/h (1 Bft) 96,00 %
07.02.2017 22:40 -0,2 C 97 % 1018,5 hPa 0,0 l/m 3,9 km/h (1 Bft) NO 50 0 min 0,000 mm 0,0 UV-I 0 W/m -0,6 C -0,2 C 6,4 km/h (2 Bft) 98,11 %
07.02.2017 22:42 -0,2 C 97 % 1018,5 hPa 0,0 l/m 3,7 km/h (1 Bft) NO 50 0 min 0,000 mm 0,0 UV-I 0 W/m -0,6 C -0,2 C 6,4 km/h (2 Bft) 92,00 %
07.02.2017 22:44 -0,2 C 97 % 1018,5 hPa 0,0 l/m 3,2 km/h (1 Bft) NO 50 0 min 0,000 mm 0,0 UV-I 0 W/m -0,6 C -0,2 C 4,8 km/h (1 Bft) 100,00 %
07.02.2017 22:46 -0,2 C 97 % 1018,5 hPa 0,0 l/m 5,9 km/h (2 Bft) O-NO 63 0 min 0,000 mm 0,0 UV-I 0 W/m -0,6 C -0,2 C 9,7 km/h (2 Bft) 89,83 %
07.02.2017 22:48 -0,3 C 97 % 1018,5 hPa 0,0 l/m 5,4 km/h (1 Bft) O-NO 61 0 min 0,000 mm 0,0 UV-I 0 W/m -0,7 C -0,3 C 9,7 km/h (2 Bft) 97,37 %
07.02.2017 22:50 -0,3 C 97 % 1018,5 hPa 0,0 l/m 6,7 km/h (2 Bft) NO 36 0 min 0,000 mm 0,0 UV-I 0 W/m -0,7 C -0,6 C 9,7 km/h (2 Bft) 100,00 %
07.02.2017 22:52 -0,3 C 97 % 1018,5 hPa 0,0 l/m 6,4 km/h (2 Bft) NO 47 0 min 0,000 mm 0,0 UV-I 0 W/m -0,7 C -0,3 C 9,7 km/h (2 Bft) 100,00 %
07.02.2017 22:54 -0,3 C 97 % 1018,5 hPa 0,0 l/m 6,8 km/h (2 Bft) O-NO 64 0 min 0,000 mm 0,0 UV-I 0 W/m -0,7 C -0,7 C 9,7 km/h (2 Bft) 100,00 %
07.02.2017 22:56 -0,3 C 97 % 1018,5 hPa 0,0 l/m 5,8 km/h (2 Bft) NO 50 0 min 0,000 mm 0,0 UV-I 0 W/m -0,7 C -0,3 C 12,9 km/h (3 Bft) 96,23 %
07.02.2017 22:58 -0,3 C 97 % 1018,5 hPa 0,0 l/m 7,1 km/h (2 Bft) O-NO 60 0 min 0,000 mm 0,0 UV-I 0 W/m -0,7 C -1,0 C 9,7 km/h (2 Bft) 97,87 %
07.02.2017 23:00 -0,3 C 97 % 1018,6 hPa 0,0 l/m 8,0 km/h (2 Bft) N-NO 28 0 min 0,000 mm 0,0 UV-I 0 W/m -0,7 C -2,0 C 11,3 km/h (2 Bft) 97,73 %
07.02.2017 23:02 -0,3 C 97 % 1018,6 hPa 0,0 l/m 7,6 km/h (2 Bft) O-NO 58 0 min 0,000 mm 0,0 UV-I 0 W/m -0,7 C -1,6 C 11,3 km/h (2 Bft) 98,08 %
07.02.2017 23:04 -0,3 C 97 % 1018,6 hPa 0,0 l/m 6,9 km/h (2 Bft) NO 52 0 min 0,000 mm 0,0 UV-I 0 W/m -0,7 C -0,8 C 11,3 km/h (2 Bft) 100,00 %
07.02.2017 23:06 -0,3 C 97 % 1018,6 hPa 0,0 l/m 6,9 km/h (2 Bft) O-NO 65 0 min 0,000 mm 0,0 UV-I 0 W/m -0,7 C -0,8 C 9,7 km/h (2 Bft) 96,36 %
07.02.2017 23:08 -0,3 C 97 % 1018,6 hPa 0,0 l/m 7,4 km/h (2 Bft) NO 40 0 min 0,000 mm 0,0 UV-I 0 W/m -0,7 C -1,4 C 11,3 km/h (2 Bft) 97,22 %
07.02.2017 23:10 -0,3 C 97 % 1018,7 hPa 0,0 l/m 7,2 km/h (2 Bft) NO 38 0 min 0,000 mm 0,0 UV-I 0 W/m -0,7 C -1,1 C 9,7 km/h (2 Bft) 98,00 %
07.02.2017 23:12 -0,3 C 97 % 1018,7 hPa 0,0 l/m 5,5 km/h (1 Bft) O-NO 59 0 min 0,000 mm 0,0 UV-I 0 W/m -0,7 C -0,3 C 8,0 km/h (2 Bft) 97,14 %
07.02.2017 23:14 -0,3 C 97 % 1018,7 hPa 0,0 l/m 8,1 km/h (2 Bft) NO 55 0 min 0,000 mm 0,0 UV-I 0 W/m -0,7 C -2,1 C 11,3 km/h (2 Bft) 98,21 %
07.02.2017 23:16 -0,3 C 97 % 1018,8 hPa 0,0 l/m 7,8 km/h (2 Bft) O-NO 66 0 min 0,000 mm 0,0 UV-I 0 W/m -0,7 C -1,8 C 14,5 km/h (3 Bft) 98,21 %
07.02.2017 23:18 -0,3 C 97 % 1018,7 hPa 0,0 l/m 7,3 km/h (2 Bft) O-NO 77 0 min 0,000 mm 0,0 UV-I 0 W/m -0,7 C -1,2 C 9,7 km/h (2 Bft) 97,56 %
07.02.2017 23:20 -0,3 C 97 % 1018,8 hPa 0,0 l/m 6,6 km/h (2 Bft) NO 54 0 min 0,000 mm 0,0 UV-I 0 W/m -0,7 C -0,5 C 9,7 km/h (2 Bft) 98,00 %
07.02.2017 23:22 -0,3 C 97 % 1018,7 hPa 0,0 l/m 5,4 km/h (1 Bft) O-NO 65 0 min 0,000 mm 0,0 UV-I 0 W/m -0,7 C -0,3 C 8,0 km/h (2 Bft) 96,00 %
07.02.2017 23:24 -0,3 C 97 % 1018,7 hPa 0,0 l/m 7,2 km/h (2 Bft) O-NO 58 0 min 0,000 mm 0,0 UV-I 0 W/m -0,7 C -1,1 C 12,9 km/h (3 Bft) 94,74 %
07.02.2017 23:26 -0,4 C 97 % 1018,8 hPa 0,0 l/m 6,6 km/h (2 Bft) O-NO 69 0 min 0,000 mm 0,0 UV-I 0 W/m -0,8 C -0,6 C 8,0 km/h (2 Bft) 96,00 %
07.02.2017 23:28 -0,4 C 97 % 1018,8 hPa 0,0 l/m 5,2 km/h (1 Bft) O-NO 61 0 min 0,000 mm 0,0 UV-I 0 W/m -0,8 C -0,4 C 8,0 km/h (2 Bft) 95,45 %
07.02.2017 23:30 -0,4 C 97 % 1018,8 hPa 0,0 l/m 5,2 km/h (1 Bft) NO 48 0 min 0,000 mm 0,0 UV-I 0 W/m -0,8 C -0,4 C 8,0 km/h (2 Bft) 95,74 %
07.02.2017 23:32 -0,5 C 97 % 1018,8 hPa 0,0 l/m 5,8 km/h (2 Bft) NO 55 0 min 0,000 mm 0,0 UV-I 0 W/m -0,9 C -0,5 C 8,0 km/h (2 Bft) 93,62 %
07.02.2017 23:34 -0,5 C 97 % 1018,8 hPa 0,0 l/m 5,3 km/h (1 Bft) O-NO 65 0 min 0,000 mm 0,0 UV-I 0 W/m -0,9 C -0,5 C 8,0 km/h (2 Bft) 97,73 %
07.02.2017 23:36 -0,6 C 97 % 1018,8 hPa 0,0 l/m 6,2 km/h (2 Bft) O-NO 57 0 min 0,000 mm 0,0 UV-I 0 W/m -1,0 C -0,6 C 8,0 km/h (2 Bft) 98,11 %
07.02.2017 23:38 -0,6 C 97 % 1018,8 hPa 0,0 l/m 6,2 km/h (2 Bft) O-NO 59 0 min 0,000 mm 0,0 UV-I 0 W/m -1,0 C -0,6 C 9,7 km/h (2 Bft) 95,12 %
07.02.2017 23:40 -0,6 C 97 % 1018,7 hPa 0,0 l/m 7,6 km/h (2 Bft) O-NO 67 0 min 0,000 mm 0,0 UV-I 0 W/m -1,0 C -1,9 C 12,9 km/h (3 Bft) 98,00 %
07.02.2017 23:42 -0,6 C 97 % 1018,8 hPa 0,0 l/m 7,0 km/h (2 Bft) O-NO 61 0 min 0,000 mm 0,0 UV-I 0 W/m -1,0 C -1,2 C 12,9 km/h (3 Bft) 96,00 %
07.02.2017 23:44 -0,6 C 97 % 1018,7 hPa 0,0 l/m 7,0 km/h (2 Bft) NO 54 0 min 0,000 mm 0,0 UV-I 0 W/m -1,0 C -1,2 C 9,7 km/h (2 Bft) 97,87 %
07.02.2017 23:46 -0,6 C 97 % 1018,8 hPa 0,0 l/m 6,3 km/h (2 Bft) NO 52 0 min 0,000 mm 0,0 UV-I 0 W/m -1,0 C -0,6 C 8,0 km/h (2 Bft) 97,22 %
07.02.2017 23:48 -0,6 C 97 % 1018,8 hPa 0,0 l/m 7,3 km/h (2 Bft) O-NO 61 0 min 0,000 mm 0,0 UV-I 0 W/m -1,0 C -1,6 C 12,9 km/h (3 Bft) 94,64 %
07.02.2017 23:50 -0,6 C 97 % 1018,8 hPa 0,0 l/m 7,5 km/h (2 Bft) NO 55 0 min 0,000 mm 0,0 UV-I 0 W/m -1,0 C -1,8 C 9,7 km/h (2 Bft) 100,00 %
07.02.2017 23:52 -0,6 C 97 % 1018,8 hPa 0,0 l/m 8,0 km/h (2 Bft) O-NO 65 0 min 0,000 mm 0,0 UV-I 0 W/m -1,0 C -2,3 C 14,5 km/h (3 Bft) 97,06 %
07.02.2017 23:54 -0,5 C 97 % 1018,8 hPa 0,0 l/m 7,3 km/h (2 Bft) O-NO 73 0 min 0,000 mm 0,0 UV-I 0 W/m -0,9 C -1,5 C 11,3 km/h (2 Bft) 98,00 %
07.02.2017 23:56 -0,6 C 97 % 1018,8 hPa 0,0 l/m 9,4 km/h (2 Bft) NO 55 0 min 0,000 mm 0,0 UV-I 0 W/m -1,0 C -3,6 C 14,5 km/h (3 Bft) 97,87 %
07.02.2017 23:58 -0,5 C 97 % 1018,8 hPa 0,0 l/m 7,7 km/h (2 Bft) O-NO 61 0 min 0,000 mm 0,0 UV-I 0 W/m -0,9 C -1,9 C 11,3 km/h (2 Bft) 97,87 %
_ Min-Zeit 23:34 12:58 14:06 - 01:58 - - - - - - 23:36 18:16 02:00 00:02
Minimum _ -0,6 C 94 % 1017,4 hPa - 0,0 km/h (0 Bft) - - - - - - -1,0 C -5,3 C 0,0 km/h (0 Bft) 9,09 %
_ Max-Zeit 13:42 00:00 08:38 00:00 18:16 - - 00:00 12:00 11:42 13:38 13:42 13:42 18:16 00:34
Maximum _ 2,8 C 98 % 1018,8 hPa 0,0 l/m 14,9 km/h
O-SO (3 Bft)
- - 0 min 0,051 mm 0,5 UV-I 176 W/m 1,9 C 2,8 C 20,9 km/h
O-SO (4 Bft)
100,00 %
Durchschnitt _ 1,4 C 97 % 1018,1 hPa #0,0 l/m 2,6 km/h (1 Bft) O-NO - #0 min. #0,254 mm 0,5 UV-I 78 W/m 0,9 C 1,1 C 4,1 km/h (1 Bft) 96,57 %